[[{"header":{"parameterUnit":"m.s-1","parameterCategory":1,"la1":31.0,"la2":29.5877,"lo1":-88.7671,"lo2":-86.6584,"dx":0.0162,"dy":0.0185,"nx":115,"ny":88,"refTime":"2022-12-30T18:00:00:Z","depth":0,"parameterNumber":2,"parameterNumberName":"U-component_of_WINDS"},"data":[0.0,0.0,0.0,0.0,0.0,0.0,0.0,0.0,0.0,0.0,0.0,0.0,0.0,0.0,0.0,0.0,0.0,0.0,0.0,0.0,0.0,0.0,0.0,0.0,0.0,0.0,0.0,0.0,0.0,0.0,0.0,0.0,0.0,0.0,0.0,0.0,0.0,0.0,0.0,0.0,0.0,0.0,0.0,0.0,0.0,0.0,0.0,0.0,0.0,0.0,0.0,0.0,0.0,0.0,0.0,0.0,0.0,0.0,0.0,0.0,0.0,0.0,0.0,0.0,0.0,0.0,0.0,0.0,0.0,0.0,0.0,0.0,0.0,0.0,0.0,0.0,0.0,0.0,0.0,0.0,0.0,0.0,0.0,0.0,0.0,0.0,0.0,0.0,0.0,0.0,0.0,0.0,0.0,0.0,0.0,0.0,0.0,0.0,0.0,0.0,0.0,0.0,0.0,0.0,0.0,0.0,0.0,0.0,0.0,0.0,0.0,0.0,0.0,0.0,0.0,0.0,0.0,0.0,0.0,0.0,0.0,0.0,0.0,0.0,0.0,0.0,0.0,0.0,0.0,0.0,0.0,0.0,0.0,0.0,0.0,0.0,0.0,0.0,0.0,0.0,0.0,0.0,0.0,0.0,0.0,0.0,0.0,0.0,0.0,0.0,0.0,0.0,0.0,0.0,0.0,0.0,0.0,0.0,0.0,0.0,0.0,0.0,0.0,0.0,0.0,0.0,0.0,0.0,0.0,0.0,0.0,0.0,0.0,0.0,0.0,0.0,0.0,0.0,0.0,0.0,0.0,0.0,0.0,0.0,0.0,0.0,0.0,0.0,0.0,0.0,0.0,0.0,0.0,0.0,0.0,0.0,0.0,0.0,0.0,0.0,0.0,0.0,0.0,0.0,0.0,0.0,0.0,0.0,0.0,0.0,0.0,0.0,0.0,0.0,0.0,0.0,0.0,0.0,0.0,0.0,0.0,0.0,0.0,0.0,0.0,0.0,0.0,0.0,0.0,0.0,0.0,0.0,0.0,0.0,0.0,0.0,0.0,0.0,0.0,0.0,0.0,0.0,0.0,0.0,0.0,0.0,0.0,0.0,0.0,0.0,0.0,0.0,0.0,0.0,0.0,0.0,0.0,0.0,0.0,0.0,0.0,0.0,0.0,0.0,0.0,0.0,0.0,0.0,0.0,0.0,0.0,0.0,0.0,0.0,0.0,0.0,0.0,0.0,0.0,0.0,0.0,0.0,0.0,0.0,0.0,0.0,0.0,0.0,0.0,0.0,0.0,0.0,0.0,0.0,0.0,0.0,0.0,0.0,0.0,0.0,0.0,0.0,0.0,0.0,0.0,0.0,0.0,0.0,0.0,0.0,0.0,0.0,0.0,0.0,0.0,0.0,0.0,0.0,0.0,0.0,0.0,0.0,0.0,0.0,0.0,0.0,0.0,0.0,0.0,0.0,0.0,0.0,0.0,0.0,0.0,0.0,0.0,0.0,0.0,0.0,0.0,0.0,0.0,0.0,0.0,0.0,0.0,0.0,0.0,0.0,0.0,0.0,0.0,0.0,0.0,0.0,0.0,0.0,0.0,0.0,0.0,0.0,0.0,0.0,0.0,0.0,0.0,0.0,0.0,0.0,0.0,0.0,0.0,0.0,0.0,0.0,0.0,0.0,0.0,0.0,0.0,0.0,0.0,0.0,0.0,0.0,0.0,0.0,0.0,0.0,0.0,0.0,0.0,0.0,0.0,0.0,0.0,0.0,0.0,0.0,0.0,0.0,0.0,0.0,0.0,0.0,0.0,0.0,0.0,0.0,0.0,0.0,0.0,0.0,0.0,0.0,0.0,0.0,0.0,0.0,0.0,0.0,0.0,0.0,0.0,0.0,0.0,0.0,0.0,0.0,0.0,0.0,0.0,0.0,0.0,0.0,0.0,0.0,0.0,0.0,0.0,0.0,0.0,0.0,0.0,0.0,0.0,0.0,0.0,0.0,0.0,0.0,0.0,0.0,0.0,0.0,0.0,0.0,0.0,0.0,0.0,0.0,0.0,0.0,0.0,0.0,0.0,0.0,0.0,0.0,0.0,0.0,0.0,0.0,0.0,0.0,0.0,0.0,0.0,0.0,0.0,0.0,0.0,0.0,0.0,0.0,0.0,0.0,0.0,0.0,0.0,0.0,0.0,0.0,0.0,0.0,0.0,0.0,0.0,0.0,0.0,0.0,0.0,0.0,0.0,0.0,0.0,0.0,0.0,0.0,0.0,0.0,0.0,0.0,0.0,0.0,0.0,0.0,0.0,0.0,0.0,0.0,0.0,0.0,0.0,0.0,0.0,0.0,0.0,0.0,0.0,0.0,0.0,0.0,0.0,0.0,0.0,0.0,0.0,0.0,0.0,0.0,0.0,0.0,0.0,0.0,0.0,0.0,0.0,0.0,0.0,0.0,0.0,0.0,0.0,0.0,0.0,0.0,0.0,0.0,0.0,0.0,0.0,0.0,0.0,0.0,0.0,0.0,0.0,0.0,0.0,0.0,0.0,0.0,0.0,0.0,0.0,0.0,0.0,0.0,0.0,0.0,0.0,0.0,0.0,0.0,0.0,0.0,0.0,0.0,0.0,0.0,0.0,0.0,0.0,0.0,0.0,0.0,0.0,0.0,0.0,0.0,0.0,0.0,0.0,0.0,0.0,0.0,0.0,0.0,0.0,0.0,0.0,0.0,0.0,0.0,0.0,0.0,0.0,0.0,0.0,0.0,0.0,0.0,0.0,0.0,0.0,0.0,0.0,0.0,0.0,0.0,0.0,0.0,0.0,0.0,0.0,0.0,0.0,0.0,0.0,0.0,0.0,0.0,0.0,0.0,0.0,0.0,0.0,0.0,0.0,0.0,0.0,0.0,0.0,0.0,0.0,0.0,0.0,0.0,0.0,0.0,0.0,0.0,0.0,0.0,0.0,0.0,0.0,0.0,0.0,0.0,0.0,0.0,0.0,0.0,0.0,0.0,0.0,0.0,0.0,0.0,0.0,0.0,0.0,0.0,0.0,0.0,0.0,0.0,0.0,0.0,0.0,0.0,0.0,0.0,0.0,0.0,0.0,0.0,0.0,0.0,0.0,0.0,0.0,0.0,0.0,0.0,0.0,0.0,0.0,0.0,0.0,0.0,0.0,0.0,0.0,0.0,0.0,0.0,0.0,0.0,0.0,0.0,0.0,0.0,0.0,0.0,0.0,0.0,0.0,0.0,0.0,0.0,0.0,0.0,0.0,0.0,0.0,0.0,0.0,0.0,0.0,0.0,0.0,0.0,0.0,0.0,0.0,0.0,0.0,0.0,0.0,0.0,0.0,0.0,0.0,0.0,0.0,0.0,0.0,0.0,0.0,0.0,0.0,0.0,0.0,0.0,0.0,0.0,0.0,0.0,0.0,0.0,0.0,0.0,0.0,0.0,0.0,0.0,0.0,0.0,0.0,0.0,0.0,0.0,0.0,0.0,0.0,0.0,0.0,0.0,0.0,0.0,0.0,0.0,0.0,0.0,0.0,0.0,0.0,0.0,0.0,0.0,0.0,0.0,0.0,0.0,0.0,0.0,0.0,0.0,0.0,0.0,0.0,0.0,0.0,0.0,0.0,0.0,0.0,0.0,0.0,0.0,0.0,0.0,0.0,0.0,0.0,0.0,0.0,0.0,0.0,0.0,0.0,0.0,0.0,0.0,0.0,0.0,0.0,0.0,0.0,0.0,0.0,0.0,0.0,0.0,0.0,0.0,0.0,0.0,0.0,0.0,0.0,0.0,0.0,0.0,0.0,0.0,0.0,0.0,0.0,0.0,0.0,0.0,0.0,0.0,0.0,0.0,0.0,0.0,0.0,0.0,0.0,0.0,0.0,0.0,0.0,0.0,0.0,0.0,0.0,0.0,0.0,0.0,0.0,0.0,0.0,0.0,0.0,0.0,0.0,0.0,0.0,0.0,0.0,0.0,0.0,0.0,0.0,0.0,0.0,0.0,0.0,0.0,0.0,0.0,0.0,0.0,0.0,0.0,0.0,0.0,0.0,0.0,0.0,0.0,0.0,0.0,0.0,0.0,0.0,0.0,0.0,0.0,0.0,0.0,0.0,0.0,0.0,0.0,0.0,0.0,0.0,0.0,0.0,0.0,0.0,0.0,0.0,0.0,0.0,0.0,0.0,0.0,0.0,0.0,0.0,0.0,0.0,0.0,0.0,0.0,0.0,0.0,0.0,0.0,0.0,0.0,0.0,0.0,-5.0241,0.0,0.0,0.0,-4.9784,0.0,0.0,0.0,0.0,0.0,0.0,0.0,0.0,0.0,0.0,0.0,0.0,0.0,0.0,0.0,0.0,0.0,0.0,0.0,0.0,0.0,0.0,0.0,0.0,0.0,0.0,0.0,0.0,0.0,0.0,0.0,0.0,0.0,0.0,0.0,0.0,0.0,0.0,0.0,0.0,0.0,0.0,0.0,0.0,0.0,0.0,0.0,0.0,0.0,0.0,0.0,0.0,0.0,0.0,0.0,0.0,0.0,0.0,0.0,0.0,0.0,0.0,0.0,0.0,0.0,0.0,0.0,0.0,0.0,0.0,0.0,0.0,0.0,0.0,0.0,0.0,0.0,0.0,0.0,0.0,0.0,0.0,0.0,0.0,0.0,0.0,0.0,0.0,0.0,0.0,0.0,0.0,0.0,0.0,0.0,0.0,0.0,0.0,0.0,0.0,0.0,0.0,0.0,0.0,0.0,0.0,0.0,0.0,0.0,0.0,-5.1409,-5.1099,-5.3149,-5.3265,-5.1177,0.0,0.0,0.0,0.0,0.0,0.0,0.0,0.0,0.0,0.0,0.0,0.0,0.0,0.0,0.0,0.0,0.0,0.0,0.0,0.0,0.0,0.0,0.0,0.0,0.0,0.0,0.0,0.0,0.0,0.0,0.0,0.0,0.0,0.0,0.0,0.0,0.0,0.0,0.0,0.0,0.0,0.0,0.0,0.0,0.0,0.0,0.0,0.0,0.0,0.0,0.0,0.0,0.0,0.0,0.0,0.0,0.0,0.0,0.0,0.0,0.0,0.0,0.0,0.0,0.0,0.0,0.0,0.0,0.0,0.0,0.0,0.0,0.0,0.0,0.0,0.0,0.0,0.0,0.0,0.0,0.0,0.0,0.0,0.0,0.0,0.0,0.0,0.0,0.0,0.0,0.0,0.0,0.0,0.0,0.0,0.0,0.0,0.0,0.0,0.0,0.0,0.0,0.0,0.0,0.0,0.0,0.0,0.0,0.0,0.0,0.0,0.0,-5.4774,-5.5006,-5.284,0.0,0.0,0.0,0.0,0.0,0.0,0.0,0.0,0.0,0.0,0.0,0.0,0.0,0.0,0.0,0.0,0.0,0.0,0.0,0.0,0.0,0.0,0.0,0.0,0.0,0.0,0.0,0.0,0.0,0.0,0.0,0.0,0.0,0.0,0.0,0.0,0.0,0.0,0.0,0.0,0.0,0.0,0.0,0.0,0.0,0.0,0.0,0.0,0.0,0.0,0.0,0.0,0.0,0.0,0.0,0.0,0.0,0.0,0.0,0.0,0.0,0.0,0.0,0.0,0.0,0.0,0.0,0.0,0.0,0.0,0.0,0.0,0.0,0.0,0.0,0.0,0.0,0.0,0.0,0.0,0.0,0.0,0.0,0.0,0.0,0.0,0.0,0.0,0.0,0.0,0.0,0.0,0.0,0.0,0.0,0.0,0.0,0.0,0.0,0.0,0.0,0.0,0.0,0.0,0.0,0.0,0.0,0.0,0.0,0.0,-5.2569,-5.3382,-5.5084,0.0,-5.4465,0.0,0.0,0.0,0.0,0.0,0.0,0.0,0.0,0.0,0.0,0.0,0.0,0.0,0.0,0.0,0.0,0.0,0.0,0.0,0.0,0.0,0.0,0.0,0.0,0.0,0.0,0.0,0.0,0.0,0.0,0.0,0.0,0.0,0.0,0.0,0.0,0.0,0.0,0.0,0.0,0.0,0.0,0.0,0.0,0.0,0.0,0.0,0.0,0.0,0.0,0.0,0.0,0.0,0.0,0.0,0.0,0.0,0.0,0.0,0.0,0.0,0.0,0.0,0.0,0.0,0.0,0.0,0.0,0.0,0.0,0.0,0.0,0.0,0.0,0.0,0.0,0.0,0.0,0.0,0.0,0.0,0.0,0.0,0.0,0.0,0.0,0.0,0.0,0.0,0.0,0.0,0.0,0.0,0.0,0.0,0.0,0.0,0.0,0.0,0.0,0.0,0.0,0.0,0.0,0.0,0.0,0.0,0.0,0.0,0.0,-5.3923,-5.4271,-5.5393,-5.5393,0.0,0.0,0.0,0.0,0.0,0.0,0.0,0.0,0.0,0.0,0.0,0.0,0.0,0.0,0.0,0.0,0.0,0.0,0.0,0.0,0.0,0.0,0.0,0.0,0.0,0.0,0.0,0.0,0.0,0.0,0.0,0.0,0.0,0.0,0.0,0.0,0.0,0.0,0.0,0.0,0.0,0.0,0.0,0.0,0.0,0.0,0.0,0.0,0.0,0.0,0.0,0.0,0.0,0.0,0.0,0.0,0.0,0.0,0.0,0.0,0.0,0.0,0.0,0.0,0.0,0.0,0.0,0.0,0.0,0.0,0.0,0.0,0.0,0.0,0.0,0.0,0.0,0.0,0.0,0.0,0.0,0.0,0.0,0.0,0.0,0.0,0.0,0.0,0.0,0.0,0.0,0.0,0.0,0.0,0.0,0.0,0.0,0.0,0.0,0.0,0.0,0.0,0.0,0.0,0.0,0.0,0.0,0.0,0.0,0.0,-5.3691,-5.5006,-5.547,-5.5586,-5.5084,-5.3884,0.0,0.0,0.0,0.0,0.0,0.0,0.0,0.0,0.0,0.0,0.0,0.0,0.0,0.0,0.0,0.0,0.0,0.0,0.0,0.0,0.0,0.0,0.0,0.0,0.0,0.0,0.0,0.0,0.0,0.0,0.0,0.0,0.0,0.0,0.0,0.0,0.0,0.0,0.0,0.0,0.0,0.0,0.0,0.0,0.0,0.0,0.0,0.0,0.0,0.0,0.0,0.0,0.0,0.0,0.0,0.0,0.0,0.0,0.0,0.0,0.0,0.0,0.0,0.0,0.0,0.0,0.0,0.0,0.0,0.0,0.0,0.0,0.0,0.0,0.0,0.0,0.0,0.0,0.0,0.0,0.0,0.0,0.0,0.0,0.0,0.0,0.0,0.0,0.0,0.0,0.0,0.0,0.0,0.0,0.0,0.0,0.0,0.0,0.0,0.0,0.0,0.0,0.0,0.0,0.0,0.0,0.0,0.0,-5.3304,-5.431,-5.5586,-5.7048,-5.5664,-5.4813,0.0,0.0,0.0,0.0,0.0,0.0,0.0,0.0,0.0,0.0,0.0,0.0,0.0,0.0,0.0,0.0,0.0,0.0,0.0,0.0,0.0,0.0,0.0,0.0,0.0,0.0,0.0,0.0,0.0,0.0,0.0,0.0,0.0,0.0,0.0,0.0,0.0,0.0,0.0,0.0,0.0,0.0,0.0,0.0,0.0,0.0,0.0,0.0,0.0,0.0,0.0,0.0,0.0,0.0,0.0,0.0,0.0,0.0,0.0,0.0,0.0,0.0,0.0,0.0,0.0,0.0,0.0,0.0,0.0,0.0,0.0,0.0,0.0,0.0,0.0,0.0,0.0,0.0,0.0,0.0,0.0,0.0,0.0,0.0,0.0,0.0,0.0,0.0,0.0,0.0,0.0,0.0,0.0,0.0,0.0,0.0,0.0,0.0,0.0,0.0,0.0,0.0,0.0,0.0,0.0,0.0,0.0,0.0,0.0,-5.422,-5.5144,-5.6128,-5.7202,-5.6158,-5.5586,0.0,0.0,0.0,0.0,0.0,0.0,0.0,0.0,0.0,0.0,0.0,0.0,0.0,0.0,0.0,0.0,0.0,0.0,0.0,0.0,0.0,0.0,0.0,0.0,0.0,0.0,0.0,0.0,0.0,0.0,0.0,0.0,0.0,0.0,0.0,0.0,0.0,0.0,0.0,0.0,0.0,0.0,0.0,0.0,0.0,0.0,0.0,0.0,0.0,0.0,0.0,0.0,0.0,0.0,0.0,0.0,0.0,0.0,0.0,0.0,0.0,0.0,0.0,0.0,0.0,0.0,0.0,0.0,0.0,0.0,0.0,0.0,0.0,0.0,0.0,0.0,0.0,0.0,0.0,0.0,0.0,0.0,0.0,0.0,0.0,0.0,0.0,0.0,0.0,0.0,0.0,0.0,0.0,0.0,0.0,0.0,0.0,0.0,0.0,0.0,0.0,0.0,0.0,0.0,0.0,0.0,0.0,0.0,0.0,-5.5477,-5.6372,-5.7018,-5.728,-5.6738,-5.6167,0.0,0.0,0.0,0.0,0.0,0.0,0.0,0.0,0.0,0.0,0.0,0.0,0.0,0.0,0.0,0.0,0.0,0.0,0.0,0.0,0.0,0.0,0.0,0.0,0.0,0.0,0.0,0.0,0.0,0.0,0.0,0.0,0.0,0.0,0.0,0.0,0.0,0.0,0.0,0.0,0.0,0.0,0.0,0.0,0.0,0.0,0.0,0.0,0.0,0.0,0.0,0.0,0.0,0.0,0.0,0.0,0.0,0.0,0.0,0.0,0.0,0.0,0.0,0.0,0.0,0.0,0.0,0.0,0.0,0.0,0.0,0.0,0.0,0.0,0.0,0.0,0.0,0.0,0.0,0.0,0.0,0.0,0.0,0.0,0.0,0.0,0.0,0.0,0.0,0.0,0.0,0.0,0.0,0.0,0.0,0.0,0.0,0.0,0.0,0.0,0.0,0.0,0.0,0.0,0.0,0.0,0.0,0.0,-5.5422,-5.71,-5.8035,-5.8139,-5.7357,-5.728,-5.6506,0.0,0.0,0.0,0.0,0.0,0.0,0.0,0.0,0.0,0.0,0.0,0.0,0.0,0.0,0.0,0.0,0.0,0.0,0.0,0.0,0.0,0.0,0.0,0.0,0.0,0.0,0.0,0.0,0.0,0.0,0.0,0.0,0.0,0.0,0.0,0.0,0.0,0.0,0.0,0.0,0.0,0.0,0.0,0.0,0.0,0.0,0.0,0.0,0.0,0.0,0.0,0.0,0.0,0.0,0.0,0.0,0.0,0.0,0.0,0.0,0.0,0.0,0.0,0.0,0.0,0.0,0.0,0.0,0.0,0.0,0.0,0.0,0.0,0.0,0.0,0.0,0.0,0.0,0.0,0.0,0.0,0.0,0.0,0.0,0.0,0.0,0.0,0.0,0.0,0.0,0.0,0.0,0.0,0.0,0.0,0.0,0.0,0.0,0.0,0.0,0.0,0.0,0.0,0.0,0.0,0.0,0.0,0.0,0.0,-5.6387,-5.7747,-5.8412,-5.8178,-5.7598,-5.7327,0.0,0.0,0.0,0.0,0.0,0.0,0.0,0.0,0.0,0.0,0.0,0.0,0.0,0.0,0.0,0.0,0.0,0.0,0.0,0.0,0.0,0.0,0.0,0.0,0.0,0.0,0.0,0.0,0.0,0.0,0.0,0.0,0.0,0.0,0.0,0.0,0.0,0.0,0.0,0.0,0.0,0.0,0.0,0.0,0.0,0.0,0.0,0.0,0.0,0.0,0.0,0.0,0.0,0.0,0.0,0.0,0.0,0.0,0.0,0.0,0.0,0.0,0.0,0.0,0.0,0.0,0.0,0.0,0.0,0.0,0.0,0.0,0.0,0.0,0.0,0.0,0.0,0.0,0.0,0.0,0.0,0.0,0.0,0.0,0.0,0.0,0.0,0.0,0.0,0.0,0.0,0.0,0.0,0.0,0.0,0.0,0.0,0.0,0.0,0.0,0.0,0.0,0.0,0.0,0.0,0.0,0.0,0.0,0.0,-5.8333,-5.9619,-6.0094,-5.9515,-5.8674,-5.8171,-5.8046,0.0,0.0,0.0,0.0,0.0,0.0,0.0,0.0,0.0,0.0,0.0,0.0,0.0,0.0,0.0,0.0,0.0,0.0,0.0,0.0,0.0,0.0,0.0,0.0,0.0,0.0,0.0,0.0,0.0,0.0,0.0,0.0,0.0,0.0,0.0,0.0,0.0,0.0,0.0,0.0,0.0,0.0,0.0,0.0,0.0,0.0,0.0,0.0,0.0,0.0,0.0,0.0,0.0,0.0,0.0,0.0,0.0,0.0,0.0,0.0,0.0,0.0,0.0,0.0,0.0,0.0,0.0,0.0,0.0,0.0,0.0,0.0,0.0,0.0,0.0,0.0,0.0,0.0,0.0,0.0,0.0,0.0,0.0,0.0,0.0,0.0,0.0,0.0,0.0,0.0,0.0,0.0,0.0,0.0,0.0,0.0,0.0,0.0,0.0,0.0,0.0,0.0,0.0,0.0,0.0,0.0,0.0,0.0,-6.2236,-6.3191,-6.2877,-6.119,-6.0267,-5.9003,0.0,0.0,0.0,0.0,0.0,0.0,0.0,0.0,0.0,0.0,0.0,0.0,0.0,0.0,0.0,0.0,0.0,0.0,0.0,0.0,0.0,0.0,0.0,0.0,0.0,0.0,0.0,0.0,0.0,0.0,0.0,0.0,0.0,0.0,0.0,0.0,0.0,0.0,0.0,0.0,0.0,0.0,0.0,0.0,0.0,0.0,0.0,0.0,0.0,0.0,0.0,0.0,0.0,0.0,0.0,0.0,0.0,0.0,0.0,0.0,0.0,0.0,0.0,0.0,0.0,0.0,0.0,0.0,0.0,0.0,0.0,0.0,0.0,0.0,0.0,0.0,0.0,0.0,0.0,0.0,0.0,0.0,0.0,0.0,0.0,0.0,0.0,0.0,0.0,0.0,0.0,0.0,0.0,0.0,0.0,0.0,0.0,0.0,0.0,0.0,0.0,0.0,0.0,0.0,0.0,0.0,0.0,0.0,0.0,-6.3948,-6.5396,-6.511,-6.2915,-6.0815,-5.9503,0.0,0.0,0.0,0.0,0.0,0.0,0.0,0.0,0.0,0.0,0.0,0.0,0.0,0.0,0.0,0.0,0.0,0.0,0.0,0.0,0.0,0.0,0.0,0.0,0.0,0.0,0.0,0.0,0.0,0.0,0.0,0.0,0.0,0.0,0.0,0.0,0.0,0.0,0.0,0.0,0.0,0.0,0.0,0.0,0.0,0.0,0.0,0.0,0.0,0.0,0.0,0.0,0.0,0.0,0.0,0.0,0.0,0.0,0.0,0.0,0.0,0.0,0.0,0.0,0.0,0.0,0.0,0.0,0.0,0.0,0.0,0.0,0.0,0.0,0.0,0.0,0.0,0.0,0.0,0.0,0.0,0.0,0.0,0.0,0.0,0.0,0.0,0.0,0.0,0.0,0.0,0.0,0.0,0.0,0.0,0.0,0.0,0.0,0.0,0.0,0.0,0.0,0.0,0.0,0.0,0.0,0.0,0.0,-6.3649,-6.5904,-6.6518,-6.6613,-6.6112,-6.2948,-6.0668,0.0,0.0,0.0,0.0,0.0,0.0,0.0,0.0,0.0,0.0,0.0,0.0,0.0,0.0,0.0,0.0,0.0,0.0,0.0,0.0,0.0,0.0,0.0,0.0,0.0,0.0,0.0,0.0,0.0,0.0,0.0,0.0,0.0,0.0,0.0,0.0,0.0,0.0,0.0,0.0,0.0,0.0,0.0,0.0,0.0,0.0,0.0,0.0,0.0,0.0,0.0,0.0,0.0,0.0,0.0,0.0,0.0,0.0,0.0,0.0,0.0,0.0,0.0,0.0,0.0,0.0,0.0,0.0,0.0,0.0,0.0,0.0,0.0,0.0,0.0,0.0,0.0,0.0,0.0,0.0,0.0,0.0,0.0,0.0,0.0,0.0,0.0,0.0,0.0,0.0,0.0,0.0,0.0,0.0,0.0,0.0,0.0,0.0,0.0,0.0,0.0,0.0,0.0,0.0,0.0,0.0,0.0,0.0,-6.4234,-6.7735,-6.7092,-6.7653,-6.9481,-6.5602,-6.2156,0.0,0.0,0.0,0.0,0.0,0.0,0.0,0.0,0.0,0.0,0.0,0.0,0.0,0.0,0.0,0.0,0.0,0.0,0.0,0.0,0.0,0.0,0.0,0.0,0.0,0.0,0.0,0.0,0.0,0.0,0.0,0.0,0.0,0.0,0.0,0.0,0.0,0.0,0.0,0.0,0.0,0.0,0.0,0.0,0.0,0.0,0.0,0.0,0.0,0.0,0.0,0.0,0.0,0.0,0.0,0.0,0.0,0.0,0.0,0.0,0.0,0.0,0.0,0.0,0.0,0.0,0.0,0.0,0.0,0.0,0.0,0.0,0.0,0.0,0.0,0.0,0.0,0.0,0.0,0.0,0.0,0.0,0.0,0.0,0.0,0.0,0.0,0.0,0.0,0.0,0.0,0.0,0.0,0.0,0.0,0.0,0.0,0.0,0.0,0.0,0.0,0.0,0.0,0.0,0.0,0.0,0.0,0.0,-6.586,-6.8202,-6.8088,-6.8542,-6.9639,-6.5566,-6.2731,0.0,0.0,0.0,0.0,0.0,0.0,0.0,0.0,0.0,0.0,0.0,0.0,0.0,0.0,0.0,0.0,0.0,0.0,0.0,0.0,0.0,0.0,0.0,0.0,0.0,0.0,0.0,0.0,0.0,0.0,0.0,0.0,0.0,0.0,0.0,0.0,0.0,0.0,0.0,0.0,0.0,0.0,0.0,0.0,0.0,0.0,0.0,0.0,-6.0435,0.0,0.0,0.0,0.0,0.0,0.0,0.0,0.0,0.0,0.0,0.0,0.0,0.0,0.0,0.0,0.0,0.0,0.0,0.0,0.0,0.0,0.0,0.0,0.0,0.0,0.0,0.0,0.0,0.0,0.0,0.0,0.0,0.0,0.0,0.0,0.0,0.0,0.0,0.0,0.0,0.0,0.0,0.0,0.0,0.0,0.0,0.0,0.0,0.0,0.0,0.0,0.0,0.0,0.0,0.0,0.0,0.0,0.0,0.0,-6.6303,-6.8613,-6.8726,-6.9222,-7.0081,-6.6924,-6.394,0.0,0.0,0.0,0.0,0.0,0.0,0.0,0.0,0.0,0.0,0.0,0.0,0.0,0.0,0.0,0.0,0.0,0.0,0.0,0.0,0.0,0.0,0.0,0.0,0.0,0.0,0.0,0.0,0.0,0.0,0.0,0.0,0.0,0.0,0.0,0.0,0.0,0.0,0.0,0.0,0.0,0.0,0.0,0.0,0.0,0.0,0.0,0.0,0.0,0.0,0.0,0.0,0.0,0.0,0.0,0.0,0.0,0.0,0.0,0.0,0.0,0.0,0.0,0.0,0.0,0.0,0.0,0.0,0.0,0.0,0.0,0.0,0.0,0.0,0.0,0.0,0.0,0.0,0.0,0.0,0.0,0.0,0.0,0.0,0.0,0.0,0.0,0.0,0.0,0.0,0.0,0.0,0.0,0.0,0.0,0.0,0.0,0.0,0.0,0.0,0.0,0.0,0.0,0.0,0.0,0.0,0.0,-6.4173,-6.6373,-6.9072,-6.9334,-6.9847,-7.0828,-6.8506,-6.5142,-6.0792,0.0,0.0,0.0,0.0,0.0,0.0,0.0,0.0,0.0,0.0,0.0,0.0,0.0,0.0,0.0,0.0,0.0,0.0,0.0,0.0,0.0,0.0,0.0,0.0,0.0,0.0,0.0,0.0,0.0,0.0,0.0,0.0,0.0,0.0,0.0,0.0,0.0,0.0,-5.5836,-5.7592,0.0,0.0,0.0,0.0,0.0,0.0,0.0,0.0,-6.3397,0.0,0.0,0.0,0.0,0.0,0.0,0.0,0.0,0.0,0.0,0.0,0.0,0.0,0.0,0.0,0.0,0.0,0.0,0.0,0.0,0.0,0.0,0.0,0.0,0.0,0.0,0.0,0.0,0.0,0.0,0.0,0.0,0.0,0.0,0.0,0.0,0.0,0.0,0.0,0.0,0.0,0.0,0.0,0.0,0.0,0.0,0.0,0.0,0.0,0.0,0.0,0.0,0.0,0.0,0.0,0.0,-6.3379,-6.5013,-6.7043,-6.9556,-7.0276,-7.0697,-7.0808,-6.8535,-6.5344,-6.1316,0.0,0.0,0.0,0.0,0.0,0.0,0.0,0.0,0.0,0.0,0.0,0.0,0.0,0.0,0.0,0.0,0.0,0.0,0.0,0.0,0.0,0.0,0.0,0.0,0.0,0.0,0.0,0.0,0.0,0.0,0.0,0.0,0.0,0.0,0.0,0.0,0.0,0.0,0.0,-6.0213,-6.182,0.0,0.0,0.0,0.0,0.0,0.0,0.0,0.0,-6.4051,0.0,0.0,0.0,0.0,0.0,0.0,0.0,0.0,0.0,0.0,0.0,0.0,0.0,0.0,0.0,0.0,0.0,0.0,0.0,0.0,0.0,0.0,0.0,0.0,0.0,0.0,0.0,0.0,0.0,0.0,0.0,0.0,0.0,0.0,0.0,0.0,0.0,0.0,0.0,0.0,0.0,0.0,0.0,0.0,0.0,0.0,0.0,0.0,0.0,0.0,0.0,0.0,0.0,0.0,0.0,-6.3527,-6.5622,-6.785,-7.0227,-7.1143,-7.1366,-7.0858,-6.8989,-6.5993,0.0,0.0,0.0,0.0,0.0,0.0,0.0,0.0,0.0,0.0,0.0,0.0,0.0,0.0,0.0,0.0,0.0,0.0,0.0,0.0,0.0,0.0,0.0,0.0,0.0,0.0,0.0,0.0,0.0,0.0,0.0,0.0,0.0,0.0,0.0,0.0,0.0,0.0,0.0,0.0,-6.1555,-6.3166,-6.4474,0.0,0.0,0.0,0.0,0.0,0.0,-6.4628,-6.4628,0.0,0.0,0.0,0.0,0.0,0.0,0.0,0.0,0.0,0.0,0.0,0.0,0.0,0.0,0.0,0.0,0.0,0.0,0.0,0.0,0.0,0.0,0.0,0.0,0.0,0.0,0.0,0.0,0.0,0.0,0.0,0.0,0.0,0.0,0.0,0.0,0.0,0.0,0.0,0.0,0.0,0.0,0.0,0.0,0.0,0.0,0.0,0.0,0.0,0.0,0.0,0.0,0.0,0.0,0.0,-6.3579,-6.6054,-6.8468,-7.0784,-7.1923,-7.1923,-7.0895,-6.9484,-6.676,0.0,0.0,0.0,0.0,0.0,0.0,0.0,0.0,0.0,0.0,0.0,0.0,0.0,0.0,0.0,0.0,0.0,0.0,0.0,0.0,0.0,0.0,0.0,0.0,0.0,0.0,0.0,0.0,0.0,0.0,0.0,0.0,0.0,0.0,0.0,0.0,0.0,0.0,0.0,0.0,0.0,-6.4283,-6.582,-6.6949,0.0,0.0,0.0,0.0,-6.659,-6.5936,0.0,0.0,0.0,0.0,0.0,0.0,0.0,0.0,0.0,0.0,0.0,0.0,0.0,0.0,0.0,0.0,0.0,0.0,0.0,0.0,0.0,0.0,0.0,0.0,0.0,0.0,0.0,0.0,0.0,0.0,0.0,0.0,0.0,0.0,0.0,0.0,0.0,0.0,0.0,0.0,0.0,0.0,0.0,0.0,0.0,0.0,0.0,0.0,0.0,0.0,0.0,0.0,0.0,0.0,0.0,0.0,-6.3565,-6.6054,-6.8481,-7.0821,-7.2444,-7.2481,-7.0932,-7.0004,-6.7317,0.0,0.0,0.0,0.0,0.0,0.0,0.0,0.0,0.0,0.0,0.0,0.0,0.0,0.0,0.0,0.0,0.0,0.0,0.0,0.0,0.0,0.0,0.0,0.0,0.0,0.0,0.0,0.0,0.0,0.0,0.0,0.0,0.0,0.0,0.0,0.0,0.0,0.0,0.0,0.0,0.0,-6.5412,-6.6391,-6.8157,-6.936,0.0,0.0,-6.9937,-6.936,-6.8513,0.0,0.0,0.0,0.0,0.0,0.0,0.0,0.0,0.0,0.0,0.0,0.0,0.0,0.0,0.0,0.0,0.0,0.0,0.0,0.0,0.0,0.0,0.0,0.0,0.0,0.0,0.0,0.0,0.0,0.0,0.0,0.0,0.0,0.0,0.0,0.0,0.0,0.0,0.0,0.0,0.0,0.0,0.0,0.0,0.0,0.0,0.0,0.0,0.0,0.0,0.0,0.0,0.0,0.0,0.0,-6.1707,-6.3616,-6.6945,-6.9657,-7.1589,-7.2778,-7.3038,-7.2332,-7.0623,-6.8073,0.0,0.0,0.0,0.0,0.0,0.0,0.0,0.0,0.0,0.0,0.0,0.0,0.0,0.0,0.0,0.0,0.0,0.0,0.0,0.0,0.0,0.0,0.0,0.0,0.0,0.0,0.0,0.0,0.0,0.0,0.0,0.0,0.0,0.0,0.0,0.0,0.0,0.0,0.0,0.0,0.0,0.0,-6.7542,-6.9425,0.0,0.0,0.0,-7.0876,-6.9871,0.0,0.0,0.0,0.0,0.0,0.0,0.0,0.0,0.0,0.0,0.0,0.0,0.0,0.0,0.0,0.0,0.0,0.0,0.0,0.0,0.0,0.0,0.0,0.0,0.0,0.0,0.0,0.0,0.0,0.0,0.0,0.0,0.0,0.0,0.0,0.0,0.0,0.0,0.0,0.0,0.0,0.0,0.0,0.0,0.0,0.0,0.0,0.0,0.0,0.0,0.0,0.0,0.0,0.0,0.0,0.0,0.0,-6.3951,-6.7701,-7.0623,-7.2432,-7.3287,-7.3621,-7.3361,-7.1589,0.0,0.0,0.0,0.0,0.0,0.0,0.0,0.0,0.0,0.0,0.0,0.0,0.0,0.0,0.0,0.0,0.0,0.0,0.0,0.0,0.0,0.0,0.0,0.0,0.0,0.0,0.0,-5.4314,0.0,0.0,0.0,0.0,0.0,0.0,0.0,0.0,0.0,0.0,0.0,0.0,0.0,0.0,-6.778,-6.847,-7.0606,-7.216,0.0,0.0,-7.1988,-7.106,-7.0602,-7.0063,0.0,0.0,0.0,0.0,0.0,0.0,0.0,0.0,0.0,0.0,0.0,0.0,0.0,0.0,0.0,0.0,0.0,0.0,0.0,0.0,0.0,0.0,0.0,0.0,0.0,0.0,0.0,0.0,0.0,0.0,0.0,0.0,0.0,0.0,0.0,0.0,0.0,0.0,0.0,0.0,0.0,0.0,0.0,0.0,0.0,0.0,0.0,0.0,0.0,0.0,0.0,0.0,0.0,0.0,-6.3193,-6.473,-6.7999,-7.092,-7.3224,-7.4078,-7.4153,-7.3435,-7.325,-7.1292,0.0,0.0,0.0,0.0,0.0,0.0,0.0,0.0,0.0,0.0,0.0,0.0,0.0,0.0,0.0,0.0,0.0,0.0,0.0,0.0,0.0,0.0,0.0,0.0,0.0,0.0,0.0,0.0,0.0,0.0,0.0,0.0,0.0,0.0,0.0,0.0,0.0,0.0,0.0,0.0,0.0,-6.7317,-6.8833,-7.1826,-7.3917,0.0,-7.4235,-7.4433,-7.4297,-7.2937,-7.19,-7.1824,0.0,0.0,0.0,0.0,0.0,0.0,0.0,0.0,0.0,0.0,0.0,0.0,0.0,0.0,0.0,0.0,0.0,0.0,0.0,0.0,0.0,0.0,0.0,0.0,0.0,0.0,0.0,0.0,0.0,0.0,0.0,0.0,0.0,0.0,0.0,0.0,0.0,0.0,0.0,0.0,0.0,0.0,0.0,0.0,0.0,0.0,0.0,0.0,0.0,0.0,0.0,0.0,0.0,-6.4456,-6.5622,-6.9323,-7.2184,-7.4041,-7.4933,-7.5453,-7.5702,-7.4216,-7.2406,0.0,0.0,0.0,0.0,0.0,0.0,0.0,0.0,0.0,0.0,0.0,0.0,0.0,0.0,0.0,0.0,0.0,0.0,0.0,0.0,0.0,0.0,0.0,0.0,0.0,0.0,0.0,0.0,-5.7398,-5.7398,-5.6432,0.0,0.0,0.0,0.0,0.0,0.0,0.0,0.0,0.0,0.0,-6.9821,-7.0062,-7.1869,0.0,0.0,-7.4174,-7.4371,-7.4073,-7.3335,-7.2786,-7.2786,-7.1758,0.0,0.0,0.0,0.0,0.0,0.0,0.0,0.0,0.0,0.0,0.0,0.0,0.0,0.0,0.0,0.0,0.0,0.0,0.0,0.0,0.0,0.0,0.0,0.0,0.0,0.0,0.0,0.0,0.0,0.0,0.0,0.0,0.0,0.0,0.0,0.0,0.0,0.0,0.0,0.0,0.0,0.0,0.0,0.0,0.0,0.0,0.0,0.0,0.0,0.0,0.0,0.0,-6.5389,-6.6762,-7.0363,-7.3101,-7.4896,-7.549,-7.6196,-7.6976,-7.4959,-7.3398,-7.2581,0.0,0.0,0.0,0.0,0.0,0.0,0.0,0.0,0.0,0.0,0.0,0.0,0.0,0.0,0.0,0.0,0.0,0.0,0.0,0.0,0.0,0.0,0.0,0.0,0.0,0.0,0.0,-5.8661,-5.8624,-5.7509,0.0,0.0,0.0,0.0,0.0,0.0,0.0,0.0,0.0,0.0,-7.1253,-7.1013,-7.2063,-7.3052,-7.354,-7.4206,-7.453,-7.4232,-7.4312,-7.4367,-7.41,0.0,0.0,0.0,0.0,0.0,0.0,0.0,0.0,0.0,0.0,0.0,0.0,0.0,0.0,0.0,0.0,0.0,0.0,0.0,0.0,0.0,0.0,0.0,0.0,0.0,0.0,0.0,-5.3435,0.0,0.0,-5.2103,0.0,0.0,0.0,0.0,0.0,0.0,0.0,0.0,0.0,0.0,0.0,0.0,0.0,0.0,0.0,0.0,0.0,0.0,0.0,0.0,0.0,0.0,-6.5864,-6.8272,-7.0919,-7.3372,-7.5639,-7.5787,-7.6223,-7.7003,-7.5479,-7.419,-7.3361,0.0,0.0,0.0,0.0,0.0,0.0,0.0,0.0,0.0,0.0,0.0,0.0,0.0,0.0,0.0,0.0,0.0,0.0,0.0,0.0,0.0,0.0,0.0,0.0,0.0,0.0,-5.6506,-5.8475,-5.985,0.0,0.0,0.0,0.0,0.0,0.0,0.0,0.0,0.0,-6.8976,-7.0161,-7.0961,-7.1605,-7.2755,-7.3603,-7.3641,-7.4671,-7.5396,-7.5246,-7.6263,-7.6934,0.0,0.0,0.0,0.0,0.0,0.0,0.0,0.0,0.0,0.0,0.0,0.0,0.0,0.0,0.0,0.0,0.0,0.0,0.0,0.0,0.0,0.0,0.0,0.0,0.0,0.0,0.0,-5.5484,-5.5986,0.0,0.0,0.0,0.0,0.0,0.0,0.0,0.0,0.0,0.0,0.0,-6.2511,-6.464,0.0,0.0,0.0,0.0,0.0,0.0,0.0,0.0,0.0,0.0,0.0,0.0,-6.8121,-7.0523,-7.2643,-7.4317,-7.5652,-7.6354,-7.652,-7.6233,-7.5676,-7.4773,-7.341,0.0,0.0,0.0,0.0,0.0,0.0,0.0,0.0,0.0,0.0,0.0,0.0,0.0,0.0,0.0,0.0,0.0,0.0,0.0,0.0,0.0,0.0,0.0,0.0,0.0,-5.8141,0.0,0.0,0.0,0.0,0.0,0.0,0.0,0.0,0.0,0.0,-6.5811,-6.7889,-7.005,-7.187,-7.3056,-7.3176,-7.3979,-7.4571,0.0,0.0,0.0,0.0,0.0,0.0,0.0,0.0,0.0,0.0,0.0,0.0,0.0,-7.5042,-7.4851,-7.2902,-7.1833,-7.1603,-7.2711,0.0,0.0,0.0,0.0,0.0,0.0,0.0,0.0,0.0,0.0,0.0,0.0,0.0,0.0,-5.9154,-5.9679,-5.8938,0.0,0.0,0.0,0.0,0.0,0.0,0.0,0.0,-6.5705,-6.6182,-6.5448,-6.7283,-6.732,-6.5789,-6.5778,-6.4934,0.0,0.0,0.0,0.0,0.0,0.0,0.0,0.0,-6.9653,-7.1987,-7.3609,-7.4764,-7.5486,-7.63,-7.6382,-7.577,-7.576,-7.5044,-7.3435,-7.1849,-7.0475,0.0,0.0,0.0,0.0,0.0,0.0,0.0,0.0,0.0,0.0,0.0,0.0,0.0,0.0,0.0,0.0,0.0,0.0,0.0,0.0,0.0,0.0,0.0,-6.0831,0.0,0.0,0.0,0.0,0.0,0.0,0.0,0.0,0.0,-6.5626,-6.7432,-6.9406,-7.1152,-7.2955,-7.4134,-7.4249,0.0,0.0,0.0,0.0,0.0,0.0,0.0,-7.5655,-7.6466,-7.5851,-7.5567,-7.6537,-7.6953,-7.6953,-7.6379,0.0,0.0,-7.508,-7.4278,-7.4125,-7.4927,-7.4889,-7.4736,-7.4736,-7.5348,-7.6074,0.0,0.0,0.0,0.0,-6.1267,0.0,0.0,0.0,-6.3016,-6.3121,0.0,-6.2598,0.0,0.0,0.0,0.0,-6.1887,-6.42,0.0,0.0,-7.0073,-7.0881,-7.022,-7.0954,-7.1329,-7.1219,-6.9743,-6.9009,-6.8788,-6.5888,-6.4714,0.0,0.0,0.0,0.0,0.0,-7.0376,-7.2769,-7.3924,-7.4746,-7.5383,-7.5624,-7.5696,-7.556,-7.5632,-7.4996,-7.3521,-7.3398,-7.2629,-7.097,-6.7924,0.0,0.0,0.0,0.0,0.0,0.0,0.0,0.0,0.0,0.0,0.0,0.0,0.0,0.0,0.0,0.0,0.0,0.0,0.0,0.0,-6.2747,0.0,0.0,0.0,0.0,0.0,0.0,0.0,0.0,0.0,-6.8025,-6.7321,-6.858,-7.0328,-7.2383,0.0,0.0,0.0,0.0,-7.4992,-7.5028,-7.5652,-7.613,-7.6093,-7.7176,-7.791,-7.7704,0.0,0.0,-7.7033,-7.7564,-7.7678,-7.5997,-7.6532,-7.7144,-7.7908,-7.7793,-7.7526,-7.6953,-7.7335,-7.7908,-7.7908,-7.722,-7.7296,-6.6031,0.0,0.0,0.0,0.0,-6.4413,-6.5668,-6.7574,-6.7247,-6.7325,-6.7694,-6.6481,0.0,0.0,0.0,0.0,0.0,0.0,-6.7871,-6.9449,-7.0734,-7.1505,-7.1835,-7.2642,-7.2716,-7.2165,-7.2275,-7.2018,-7.1468,-7.1138,-6.9633,-6.7063,0.0,0.0,0.0,0.0,-7.27,-7.4941,-7.5035,-7.5141,-7.542,-7.5023,-7.4826,-7.4879,-7.4349,-7.4115,-7.4227,-7.3707,-7.2889,-7.1849,-7.092,0.0,0.0,0.0,0.0,0.0,0.0,0.0,0.0,0.0,0.0,0.0,0.0,0.0,0.0,0.0,0.0,0.0,0.0,0.0,-6.3639,-6.5274,-6.6425,0.0,0.0,0.0,0.0,0.0,0.0,0.0,0.0,0.0,-6.9358,-7.029,-7.1369,0.0,0.0,-7.5565,-7.5726,-7.624,-7.6613,-7.6576,-7.6796,0.0,-7.6166,-7.6733,-7.7351,-7.7653,-7.8929,-7.9801,-7.9456,-8.0124,-8.0353,-7.9245,-7.978,-8.0238,-7.9742,-7.8252,-7.7564,-7.8252,-7.829,-7.8022,-7.8022,-7.8252,-7.869,-6.8907,-6.6425,-6.5895,-6.6404,-6.7554,-6.7629,-6.8692,-7.0413,-7.0507,-7.0523,-7.0487,-6.9871,-6.921,-6.8482,-6.7604,0.0,0.0,0.0,-7.0477,-7.2018,-7.2496,-7.301,-7.345,-7.3927,-7.3927,-7.3487,-7.3634,-7.3634,-7.345,-7.3597,-7.2642,-7.0624,0.0,-7.1358,-7.2936,-7.3303,-7.4147,-7.5542,-7.536,-7.5072,-7.4732,-7.4062,-7.3794,-7.3956,-7.3861,-7.3888,-7.4036,-7.4238,-7.3844,-7.2729,-7.2395,-7.1143,0.0,0.0,0.0,0.0,0.0,0.0,0.0,0.0,0.0,0.0,0.0,-5.8772,-5.8289,0.0,0.0,0.0,-6.3735,-6.5051,-6.6601,-6.7391,0.0,0.0,0.0,0.0,0.0,0.0,0.0,-6.8124,-6.9392,-7.0407,-7.0735,-7.171,-7.2647,-7.3456,-7.5051,-7.6203,-7.6533,0.0,-7.742,-7.7781,-7.7818,-7.7781,-7.7598,-7.7821,-7.8304,-7.9054,-8.0264,-8.1077,-8.106,-8.1461,-8.1461,-8.0812,-8.0926,-8.1117,-8.0582,-7.9474,-7.8863,-7.9589,-7.936,-7.9092,-7.9436,-7.9933,-8.0353,-7.0979,-7.0958,-6.9649,-6.9802,-7.0805,-7.0671,-7.1505,-7.2972,-7.2779,-7.2732,-7.274,-7.2663,-7.2239,-7.1541,-7.0844,0.0,-7.2716,-7.2753,-7.356,-7.4992,-7.5035,-7.5072,-7.5102,-7.5102,-7.5102,-7.5102,-7.4331,-7.4331,-7.4918,-7.4331,-7.4331,-7.4992,-7.5065,-7.4698,-7.3964,-7.4588,-7.4992,-7.5102,-7.5139,-7.4735,-7.381,-7.3255,-7.3028,-7.3204,-7.3969,-7.4023,-7.3384,-7.4853,-7.5007,-7.3584,-7.2804,-7.1998,-7.1081,0.0,0.0,0.0,0.0,0.0,0.0,0.0,0.0,0.0,0.0,0.0,0.0,0.0,0.0,-6.5212,-6.6563,0.0,-6.9496,-6.8952,0.0,0.0,0.0,-6.8258,-6.9744,-6.9755,-6.9691,-6.9665,0.0,0.0,-7.1775,-7.3023,-7.4184,-7.4992,-7.5726,-7.6497,-7.7273,-7.742,-7.7745,-7.8552,-7.8699,-7.8956,-7.9465,-7.9669,-8.0112,-8.1243,-8.1986,-8.2212,-8.2205,-8.2225,-8.1805,-8.1117,-8.0812,-8.0812,-8.0735,-8.1308,-8.1652,-8.085,-8.0697,-8.0926,-8.1614,-8.1805,-8.1996,-7.2711,-7.2622,-7.2188,-7.2049,-7.2085,-7.15,-7.2029,-7.3224,-7.277,-7.2884,-7.3471,-7.3442,-7.3634,-7.4037,-7.3854,-7.3964,-7.4368,-7.4992,-7.5432,-7.5836,-7.646,-7.6723,-7.6723,-7.6723,-7.6723,-7.6686,-7.654,-7.624,-7.5873,-7.624,-7.624,-7.5873,-7.6423,-7.635,-7.5542,-7.5139,-7.5542,-7.6686,-7.5572,-7.4897,-7.4764,-7.4761,-7.4772,-7.4829,-7.445,-7.4238,-7.4125,-7.4522,-7.4603,-7.4338,-7.4115,-7.3632,-7.2852,-7.1663,0.0,0.0,0.0,0.0,0.0,0.0,0.0,0.0,0.0,-6.4642,-6.3988,0.0,-6.8198,0.0,-6.6882,-6.7393,-6.8877,-6.882,0.0,0.0,-7.1255,-7.113,-7.1361,-7.1346,-7.1242,-7.1065,-7.183,-7.2851,-7.3949,-7.4948,-7.5836,-7.6613,-7.687,-7.7341,-7.8148,-7.8295,-7.8552,-7.9323,-7.9507,-7.958,-7.9832,-8.0161,-8.1019,-8.268,-8.3028,-8.3427,-8.4439,-8.4632,-8.4365,-8.3601,-8.3372,-8.3142,-8.2455,-8.2569,-8.2646,-8.2455,-8.2416,-8.2455,-8.2684,-8.2722,-8.276,-7.3727,-7.3656,-7.3794,-7.3776,-7.3621,-7.2457,-7.2328,-7.3007,-7.2998,-7.3266,-7.3744,-7.4441,-7.5028,-7.5469,-7.5836,-7.5953,-7.5989,-7.6393,-7.6644,-7.668,-7.7121,-7.731,-7.731,-7.731,-7.731,-7.731,-7.731,-7.7268,-7.7231,-7.7671,-7.7818,-7.7745,-7.8185,-7.8038,-7.7194,-7.6387,-7.6393,-7.7273,-7.5696,-7.4948,-7.5,-7.5124,-7.5522,-7.6184,-7.5203,-7.4818,-7.5272,-7.4654,-7.4542,-7.5011,-7.4704,-7.4508,-7.445,-7.3696,-7.3324,0.0,0.0,0.0,0.0,0.0,0.0,0.0,0.0,0.0,0.0,0.0,-6.9201,-6.8325,-6.7898,-6.8102,-6.9238,-6.9583,-7.0228,-7.1413,-7.155,-7.1621,-7.1796,-7.2049,-7.2337,-7.2539,-7.3227,-7.4125,-7.5285,-7.613,-7.6937,-7.7781,-7.8185,-7.8442,-7.8589,-7.8883,-7.9433,-8.0167,-8.0314,-8.0461,-8.0791,-8.1408,-8.2334,-8.3765,-8.4166,-8.4481,-8.5352,-8.5206,-8.4709,-8.3907,-8.3715,-8.3601,-8.3123,-8.3333,-8.3639,-8.4059,-8.4441,-8.425,-8.3257,-8.3295,-8.3563,-7.4386,-7.4394,-7.4772,-7.497,-7.4977,-7.3435,-7.2826,-7.2863,-7.3523,-7.3891,-7.4111,-7.5616,-7.624,-7.6313,-7.7011,-7.7347,-7.7457,-7.7457,-7.7494,-7.7635,-7.7604,-7.7604,-7.7604,-7.7604,-7.7604,-7.7604,-7.7635,-7.8038,-7.8736,-7.8772,-7.9103,-7.9795,-7.9722,-7.9323,-7.8736,-7.7818,-7.7237,-7.7127,-7.5983,-7.5395,-7.5395,-7.5395,-7.6026,-7.7341,-7.5992,-7.5603,-7.6332,-7.5048,-7.4635,-7.5329,-7.4764,-7.4633,-7.5213,-7.4694,-7.3962,0.0,-7.3167,0.0,0.0,0.0,0.0,0.0,0.0,0.0,0.0,-6.8211,-6.9085,-6.8992,-6.8822,-6.9092,-6.9969,-7.0475,-7.0913,-7.1135,-7.1135,-7.1389,-7.2041,-7.2669,-7.3321,-7.4094,-7.4757,-7.5506,-7.635,-7.7121,-7.7928,-7.8662,-7.9396,-7.9653,-7.914,-7.9543,-8.0241,-8.1048,-8.1269,-8.1599,-8.2223,-8.2994,-8.3915,-8.4965,-8.5075,-8.5261,-8.5616,-8.5053,-8.4289,-8.3754,-8.3754,-8.3677,-8.3601,-8.4365,-8.5015,-8.5702,-8.6352,-8.6199,-8.4518,-8.4441,-8.4747,-7.5273,-7.517,-7.5072,-7.5,-7.4911,-7.4588,-7.4478,-7.4478,-7.4625,-7.5028,-7.5689,-7.668,-7.7053,-7.7053,-7.7237,-7.7708,-7.8332,-7.8369,-7.8699,-7.9323,-7.9323,-7.9323,-7.9323,-7.9323,-7.9323,-7.9323,-7.9323,-7.9396,-7.9543,-7.9543,-7.9617,-7.9764,-7.914,-7.9066,-7.9433,0.0,0.0,0.0,-7.7378,-7.7892,-7.7892,-7.7892,-7.8038,-7.8332,-7.6784,0.0,-7.6339,-7.5477,-7.4789,-7.4487,-7.434,0.0,-7.2546,0.0,0.0,0.0,0.0,0.0,0.0,0.0,0.0,0.0,-6.8118,-6.7532,-6.8445,-6.893,-6.8946,-6.8399,-6.7763,-6.8133,-6.9993,-7.0157,-7.1128,-7.336,-7.3572,-7.373,-7.4364,-7.4564,-7.4911,-7.5602,-7.635,-7.7194,-7.8002,-7.8846,-7.936,-7.9543,-8.0241,-8.0681,-8.0571,-8.0681,-8.1048,-8.1856,-8.2443,-8.292,-8.3141,-8.3801,-8.4727,-8.5695,-8.551,-8.5537,-8.6299,-8.5893,-8.5588,-8.5855,-8.6084,-8.6275,-8.6887,-8.7269,-8.7269,-8.7536,-8.7727,-8.7727,-8.7231,-8.7231,-8.7384,-7.5888,-7.5779,-7.6059,-7.6153,0.0,-7.6063,-7.6063,-7.6019,-7.5249,-7.5139,-7.5579,-7.635,-7.6717,-7.6717,-7.7127,-7.753,-7.7965,-7.7965,-7.8185,-7.8552,-7.8552,-7.8589,-7.8589,-7.8552,-7.8552,-7.8552,-7.8552,-7.8772,-7.9176,-7.9213,-7.9396,-7.9832,-7.9396,-7.9176,-7.914,-7.7965,-7.709,-7.6717,-7.7561,-7.7965,-7.7965,-7.7561,-7.7745,-7.8516,-7.6607,0.0,0.0,0.0,0.0,0.0,0.0,0.0,0.0,-7.3573,-7.324,-7.248,-7.2548,-7.24,-7.1998,-7.08,-6.9877,-6.9427,-6.8435,-6.7903,-6.8021,-6.8427,-6.8576,-6.8253,-6.8716,-6.9668,-7.1127,-7.1386,-7.2358,-7.4421,-7.3932,-7.4077,-7.5765,-7.5845,-7.622,-7.7665,-7.8295,-7.8736,-7.914,-7.991,-8.0351,-8.0424,-8.1085,-8.1599,-8.1599,-8.1599,-8.1856,-8.2663,-8.3104,-8.3398,-8.3504,-8.435,-8.5084,-8.5582,-8.5936,-8.6473,-8.7298,-8.7078,-8.6925,-8.7384,-8.746,-8.7613,-8.7957,-8.811,-8.8224,-8.8568,-8.8683,-8.8874,-8.9141,-8.8683,-8.811,-7.6611,-7.6637,-7.7268,-7.7604,-7.7745,-7.7745,-7.7745,-7.7635,-7.6026,0.0,0.0,-7.6019,-7.6313,-7.6387,-7.698,-7.7384,-7.7524,-7.753,-7.7604,-7.7745,-7.7745,-7.7714,-7.7745,-7.7781,-7.7745,-7.7745,-7.7745,-7.8185,-7.8993,-7.9029,-7.9433,-8.0131,-7.9947,-7.9323,-7.8369,-7.764,-7.731,-7.731,-7.7457,-7.7457,-7.7273,-7.668,-7.69,-7.8148,-7.6056,-7.5212,-7.5836,-7.4625,-7.4147,-7.4691,-7.4103,-7.3912,-7.4235,-7.3684,-7.3185,-7.2893,-7.2449,-7.2173,-7.2205,-7.1156,-7.0023,-6.8893,-6.8975,-6.861,-6.7405,-6.8038,-6.8563,-6.8669,-6.9951,-7.1267,-7.262,-7.2758,-7.3519,-7.5287,-7.4204,-7.4448,-7.7011,-7.6974,-7.7378,-7.9323,-7.9837,-7.9984,-8.0021,-8.0718,-8.1232,-8.1305,-8.1746,-8.2296,-8.237,-8.2406,-8.2627,-8.3214,-8.3544,-8.3688,-8.3921,-8.4606,-8.5387,-8.5918,-8.6643,-8.7414,-8.8078,-8.8186,-8.8148,-8.8262,-8.8301,-8.8415,-8.853,-8.8644,-8.8759,-8.9409,-8.9561,-8.9752,-9.0287,-8.9523,-8.8683,-7.7811,-7.8407,-7.8431,-7.8809,-7.9433,-7.9433,-7.9433,-7.9286,-7.7708,-7.6943,-7.698,-7.709,-7.7127,-7.7157,-7.7237,-7.7708,-7.8405,-7.8405,-7.8772,-7.9433,-7.9433,-7.9433,-7.9433,-7.9433,-7.9433,-7.9433,-7.9433,-7.9874,-8.0608,-8.0608,-8.1085,-8.1562,-8.0461,-7.9029,-7.7635,-7.7347,-7.731,-7.731,-7.8038,-7.8075,-7.731,-7.72,-7.69,-7.6423,-7.5402,-7.4955,-7.5065,-7.4815,-7.4202,-7.3021,-7.288,-7.1974,-7.0129,-7.0022,-6.9225,-6.8113,-6.8575,-6.8929,-6.8964,-6.8951,-6.9241,-6.9729,-7.031,-7.0027,-6.8638,-6.9199,-6.9931,-7.0488,-6.9767,-7.0478,-7.3503,-7.2849,-7.349,-7.6564,-7.625,-7.638,-7.8222,-7.8259,-7.8589,-7.9764,-8.0424,-8.0865,-8.0975,-8.1562,-8.2039,-8.2039,-8.2223,-8.2443,-8.2994,-8.3214,-8.3287,-8.3471,-8.4022,-8.4547,-8.4754,-8.5213,-8.5993,-8.7701,-8.7406,-8.7764,-8.8829,-8.8644,-8.853,-8.9027,-8.9141,-8.9409,-8.9982,-9.0249,-9.0173,-9.0326,-9.0326,-9.044,-9.0593,-9.0287,-9.0135,-7.9007,-7.9338,-7.9244,-7.9433,-7.9832,-7.9832,-7.9832,-7.9727,-7.8993,-7.8662,-7.8589,-7.8185,-7.8002,-7.7965,-7.7494,-7.7494,-7.7892,-7.7892,-7.8112,-7.8442,-7.8442,-7.8442,-7.8442,-7.8442,-7.8442,-7.8442,-7.8442,-7.8626,-7.8998,-7.947,-7.9874,-8.0204,-7.991,-7.9396,-7.8699,-7.8662,-7.8442,-7.8002,-7.7488,-7.7047,-7.6613,-7.5426,-7.4582,-7.4218,-7.347,-7.3063,-7.3063,-7.3428,-7.3333,-7.2638,-7.2602,-7.2109,-7.1086,-7.098,-7.0876,-7.0664,-7.0654,-7.0644,-7.0646,-7.0035,-6.9778,-7.0159,-7.0851,-7.099,-7.0297,-7.0357,-7.0654,-7.0967,-7.061,-7.1284,-7.3437,-7.3191,-7.4108,-7.717,-7.6276,-7.6717,-7.9176,-7.9029,-7.925,-8.0828,-8.1819,-8.2296,-8.2296,-8.2627,-8.2847,-8.2847,-8.2847,-8.303,-8.3398,-8.4168,-8.4535,-8.4205,-8.4352,-8.4415,-8.4442,-8.5276,-8.6004,-8.663,-8.7625,-8.8483,-8.9273,-8.9218,-8.96,-8.9905,-9.002,-9.0135,-9.0593,-9.0631,-9.0631,-9.0631,-9.0631,-9.0631,-9.0631,-9.0631,-9.0631,-7.9874,-8.0057,-8.0057,-8.0167,-8.0314,-8.0314,-8.0314,-8.0314,-8.0351,-8.0314,-8.0204,-7.9323,-7.8883,-7.8772,-7.8185,-7.7892,-7.7861,-7.7892,-7.7892,-7.7892,-7.7855,-7.7892,-7.7892,-7.7892,-7.7892,-7.7892,-7.7855,-7.7934,-7.8222,-7.8809,-7.914,-7.9213,-7.9764,-7.9947,-7.9832,-7.9832,-7.947,-7.8809,-7.704,-7.6026,-7.5812,-7.4065,-7.2987,-7.2575,-7.2075,-7.1764,-7.18,-7.2335,-7.2513,-7.2406,-7.2334,-7.2262,-7.2115,-7.208,-7.2363,-7.2892,-7.2609,-7.2469,-7.2608,-7.1596,-7.0912,-7.0912,-7.1429,-7.1808,-7.1953,-7.1613,-7.1468,-7.1642,-7.1729,-7.233,-7.3767,-7.3829,-7.4904,-7.7389,-7.6632,-7.7273,-8.0241,-8.0021,-8.0131,-8.215,-8.3177,-8.3654,-8.3654,-8.3508,-8.3287,-8.3104,-8.3287,-8.3471,-8.3801,-8.4939,-8.538,-8.4866,-8.4609,-8.4621,-8.412,-8.5015,-8.5966,-8.5825,-8.7825,-8.9075,-8.9638,-9.0211,-9.0517,-9.0555,-9.0555,-9.0555,-9.0593,-9.0631,-9.0631,-9.0631,-9.0631,-9.0631,-9.0631,-9.0631,-9.0631,-8.0241,-8.0865,-8.0901,-8.1305,-8.1893,-8.1929,-8.1893,-8.1893,-8.1966,-8.1966,-8.1709,-8.0351,-7.969,-7.9653,-7.9543,-7.947,-7.947,-7.9543,-7.9507,-7.947,-7.9543,-7.9543,-7.947,-7.9507,-7.9543,-7.9507,-7.947,-7.9764,-8.0351,-8.0608,-8.0755,-8.0791,-8.0865,-8.0534,-7.991,-7.9837,-7.9764,-7.9653,-7.7397,-7.5832,-7.5143,-7.4896,-7.406,-7.2654,-7.2513,-7.2478,-7.2442,-7.2549,-7.2297,-7.1669,-7.1663,-7.1319,-7.0758,-7.0643,-7.0713,-7.0816,-7.1324,-7.1898,-7.2596,-7.2582,-7.2437,-7.2506,-7.254,-7.2843,-7.3429,-7.2954,-7.2858,-7.3204,-7.2333,-7.3177,-7.6318,-7.5152,-7.5617,-7.8833,-7.8678,-7.8993,-8.0718,-8.1525,-8.226,-8.3177,-8.4022,-8.4499,-8.4425,-8.3948,-8.3214,-8.2663,-8.3177,-8.3801,-8.4462,-8.527,-8.56,-8.4903,-8.4609,-8.5018,-8.5475,-8.544,-8.6405,-8.8219,-8.8998,-8.9638,-9.0173,-9.044,-9.0631,-9.0631,-9.0631,-9.0631,-9.0631,-9.0631,-9.0631,-9.0631,-9.0631,-9.0631,-9.0631,-9.0631,-9.0631,-8.1415,-8.1709,-8.1709,-8.1893,-8.2186,-8.2186,-8.2186,-8.2186,-8.2186,-8.2186,-8.2076,-8.0975,-8.0498,-8.0498,-8.0021,-7.9832,-7.9832,-7.9832,-7.9832,-7.9832,-7.9832,-7.9832,-7.9832,-7.9832,-7.9832,-7.9832,-7.9832,-7.9947,-8.0314,-8.0791,-8.1232,-8.1672,-8.1709,-8.1293,-8.0526,-8.0456,-7.9996,-7.9034,-7.8063,-7.6945,-7.561,-7.3829,-7.2617,-7.2001,-7.1938,-7.1948,-7.1983,-7.2403,-7.2524,-7.2204,-7.2238,-7.2076,-7.1781,-7.1781,-7.1739,-7.1781,-7.2057,-7.2326,-7.2636,-7.2671,-7.292,-7.3291,-7.3368,-7.3636,-7.4395,-7.4602,-7.4843,-7.4912,-7.3774,-7.3843,-7.578,-7.5962,-7.7021,-7.9265,-7.9873,-8.0645,-8.2223,-8.27,-8.3214,-8.4022,-8.4829,-8.5306,-8.5196,-8.4609,-8.3838,-8.3214,-8.3618,-8.4389,-8.5196,-8.6004,-8.6114,-8.5594,-8.5566,-8.5528,-8.5487,-8.6448,-8.7485,-8.8608,-8.9544,-9.0266,-9.044,-9.0631,-9.0631,-9.0631,-9.0669,-9.0669,-9.0631,-9.0631,-9.0631,-9.0708,-9.0631,-9.0631,-9.0631,-9.0631,-9.0631,-8.2186,-8.2186,-8.2186,-8.2186,-8.2186,-8.2186,-8.2186,-8.2186,-8.2186,-8.2186,-8.2113,-8.1342,-8.1012,-8.0901,-8.0131,-7.9832,-7.9832,-8.0021,-7.9984,-7.9874,-8.0241,-8.0383,-8.0167,-8.0388,-8.0461,-8.0461,-8.0498,-8.0461,-8.0498,-8.1012,-8.1501,-8.1812,-8.1815,-8.1405,-8.0659,-8.055,-8.0041,-7.8903,-7.8419,-7.7598,-7.6227,-7.3802,-7.2459,-7.2415,-7.2243,-7.2119,-7.2119,-7.2671,-7.292,-7.2747,-7.2671,-7.2671,-7.2671,-7.2671,-7.2671,-7.2671,-7.2671,-7.2816,-7.2989,-7.3023,-7.3291,-7.3981,-7.4085,-7.443,-7.5154,-7.5775,-7.6189,-7.6326,-7.5578,-7.5478,-7.6332,-7.7573,-7.9035,-8.0577,-8.152,-8.2517,-8.3544,-8.3875,-8.4315,-8.4903,-8.5637,-8.5894,-8.5527,-8.5086,-8.4572,-8.3654,-8.4242,-8.5086,-8.5747,-8.6407,-8.6701,-8.6035,-8.6577,-8.6691,-8.5645,-8.6877,-8.8401,-8.9201,-9.0062,-9.0517,-9.0631,-9.0631,-9.0631,-9.0631,-9.0746,-9.0975,-9.1166,-9.109,-9.1281,-9.1281,-9.1281,-9.1281,-9.151,-9.1357,-9.1319,-8.2186,-8.2223,-8.2223,-8.2296,-8.2223,-8.226,-8.2223,-8.237,-8.226,-8.226,-8.2223,-8.1452,-8.1048,-8.1012,-8.0241,-7.9832,-7.9874,-8.0498,-8.0461,-8.0057,-8.1269,-8.1636,-8.1048,-8.1709,-8.2039,-8.1856,-8.1856,-8.186,-8.1933,-8.2007,-8.1745,-8.0982,-8.0947,-8.0586,-7.9839,-7.976,-7.9685,-7.9273,-7.8105,-7.731,-7.7046,-7.5524,-7.4654,-7.4619,-7.4059,-7.3602,-7.3671,-7.3705,-7.3429,-7.2705,-7.274,-7.2705,-7.2671,-7.2671,-7.2671,-7.2705,-7.2705,-7.3015,-7.3636,-7.374,-7.405,-7.4697,-7.4878,-7.5179,-7.5947,-7.6154,-7.6499,-7.712,-7.7779,-7.8482,-7.9238,-8.0003,-8.1305,-8.287,-8.3845,-8.4352,-8.4499,-8.5159,-8.56,-8.582,-8.6371,-8.6261,-8.5013,-8.5306,-8.4939,-8.4278,-8.4792,-8.5747,-8.5967,-8.6554,-8.6591,-8.6495,-8.7267,-8.8373,-8.7667,-8.8407,-8.933,-8.9936,-9.0449,-9.0822,-9.0669,-9.0631,-9.0669,-9.0822,-9.1243,-9.1586,-9.1854,-9.2198,-9.258,-9.2695,-9.2618,-9.2618,-9.2389,-9.2809,-9.2733,-8.3287,-8.3728,-8.3728,-8.3728,-8.3728,-8.3728,-8.3728,-8.3728,-8.3765,-8.3728,-8.3581,-8.2884,-8.226,-8.1746,-8.0938,-8.0277,-7.9837,-8.0094,-8.0351,-8.0571,-8.1158,-8.1562,-8.1819,-8.2076,-8.2186,-8.2186,-8.2186,-8.1919,-8.1405,-8.1405,-8.0983,-8.0255,-8.0105,-7.9724,-7.9084,-7.8922,-7.8676,-7.8089,-7.7459,-7.7224,-7.7155,-7.6183,-7.5869,-7.6248,-7.5188,-7.4533,-7.4533,-7.4533,-7.4154,-7.3429,-7.3395,-7.3196,-7.274,-7.2671,-7.292,-7.3326,-7.3437,-7.374,-7.4395,-7.4533,-7.4843,-7.5568,-7.5706,-7.5937,-7.6637,-7.6844,-7.7154,-7.8009,-7.929,-8.0297,-8.1009,-8.1521,-8.2391,-8.389,-8.4866,-8.538,-8.5527,-8.604,-8.6554,-8.6628,-8.6848,-8.6518,-8.5747,-8.5637,-8.5563,-8.5123,-8.5453,-8.5967,-8.6481,-8.6885,-8.6885,-8.6903,-8.7768,-8.8691,-8.8466,-8.9752,-9.0803,-9.0868,-9.1243,-9.1969,-9.216,-9.1548,-9.1472,-9.1854,-9.216,-9.2389,-9.2733,-9.3191,-9.3612,-9.3612,-9.3573,-9.3841,-9.3115,-9.365,-9.3497,-8.4095,-8.4572,-8.4609,-8.4609,-8.4609,-8.4609,-8.4609,-8.4609,-8.4609,-8.4609,-8.4462,-8.3765,-8.2957,-8.215,-8.1342,-8.0571,-7.9874,-8.0057,-8.0314,-8.0645,-8.1158,-8.1562,-8.1819,-8.2076,-8.2186,-8.2186,-8.2186,-8.1885,-8.137,-8.1018,-8.0513,-7.976,-7.9487,-7.8922,-7.8209,-7.8116,-7.7728,-7.7313,-7.7223,-7.7223,-7.7109,-7.674,-7.6661,-7.6982,-7.6144,-7.5489,-7.5283,-7.5248,-7.4947,-7.4292,-7.4154,-7.3912,-7.3464,-7.3188,-7.336,-7.405,-7.4154,-7.4499,-7.5145,-7.5283,-7.5593,-7.6395,-7.6499,-7.6706,-7.7144,-7.743,-7.7979,-7.8903,-8.0293,-8.162,-8.2625,-8.312,-8.3765,-8.4874,-8.571,-8.6187,-8.6187,-8.6664,-8.6958,-8.6958,-8.6995,-8.6628,-8.604,-8.6077,-8.604,-8.5857,-8.6004,-8.6518,-8.7178,-8.7399,-8.75,-8.7734,-8.8554,-8.9104,-8.942,-9.0651,-9.1457,-9.1603,-9.2121,-9.2924,-9.3191,-9.258,-9.2427,-9.2847,-9.3191,-9.3382,-9.3726,-9.4146,-9.4376,-9.449,-9.5102,-9.5637,-9.5025,-9.4529,-9.4414,-8.4646,-8.4756,-8.4646,-8.4792,-8.4829,-8.4829,-8.4682,-8.4792,-8.4792,-8.4866,-8.4829,-8.3948,-8.3398,-8.2406,-8.1929,-8.0828,-8.0461,-8.0901,-8.0718,-8.0204,-8.1379,-8.1672,-8.1269,-8.1893,-8.2186,-8.2186,-8.2154,-8.2121,-8.1852,-8.1018,-8.0218,-7.9565,-7.88,-7.8082,-7.7268,-7.7357,-7.7268,-7.7223,-7.7223,-7.7223,-7.7223,-7.7109,-7.7154,-7.7223,-7.7041,-7.6696,-7.6154,-7.612,-7.574,-7.5007,-7.4903,-7.4903,-7.4662,-7.4154,-7.4119,-7.4766,-7.4903,-7.5283,-7.5982,-7.612,-7.643,-7.6982,-7.7144,-7.7258,-7.743,-7.8072,-7.889,-7.985,-8.1241,-8.2757,-8.4241,-8.5042,-8.5495,-8.582,-8.6371,-8.6848,-8.6848,-8.6958,-8.7031,-8.7031,-8.7031,-8.6664,-8.6224,-8.6407,-8.6591,-8.6224,-8.6554,-8.7284,-8.8049,-8.8267,-8.8511,-8.9029,-8.9689,-9.0196,-9.0764,-9.1446,-9.1855,-9.2274,-9.2962,-9.3612,-9.3688,-9.3382,-9.3344,-9.3726,-9.4452,-9.472,-9.5407,-9.5828,-9.6286,-9.6554,-9.7089,-9.6859,-9.6057,-9.5369,-9.5522,-8.6261,-8.6261,-8.6261,-8.6261,-8.6261,-8.6261,-8.6261,-8.6261,-8.6261,-8.6261,-8.6224,-8.6004,-8.5453,-8.4756,-8.4389,-8.3838,-8.3104,-8.281,-8.1929,-8.0938,-8.1195,-8.1599,-8.1819,-8.2076,-8.2186,-8.2051,-8.1576,-8.1018,-8.0439,-7.9682,-7.8841,-7.8082,-7.7772,-7.7456,-7.7223,-7.7223,-7.7223,-7.7223,-7.7223,-7.7223,-7.7223,-7.7223,-7.7223,-7.7223,-7.7178,-7.7041,-7.6878,-7.6878,-7.6533,-7.5731,-7.574,-7.5455,-7.4972,-7.4705,-7.4947,-7.5637,-7.574,-7.6041,-7.674,-7.6834,-7.6947,-7.7258,-7.7706,-7.8017,-7.8176,-7.9267,-8.0343,-8.1246,-8.2759,-8.4273,-8.5152,-8.5587,-8.5786,-8.5783,-8.6518,-8.6738,-8.6444,-8.6701,-8.6995,-8.7031,-8.7031,-8.6885,-8.6738,-8.6958,-8.6885,-8.6775,-8.7323,-8.8086,-8.8745,-8.9432,-8.991,-9.052,-9.1055,-9.1494,-9.1947,-9.2558,-9.3104,-9.3459,-9.3955,-9.4299,-9.4338,-9.4261,-9.4299,-9.472,-9.5446,-9.6172,-9.6898,-9.728,-9.7547,-9.7471,-9.7203,-9.6745,-9.621,-9.6019,-9.6095,-8.7031,-8.7031,-8.7031,-8.7031,-8.7031,-8.7031,-8.7031,-8.7031,-8.7031,-8.7031,-8.6995,-8.6995,-8.6554,-8.593,-8.5783,-8.5343,-8.4572,-8.3765,-8.2884,-8.1929,-8.1525,-8.1746,-8.215,-8.2186,-8.1985,-8.1681,-8.116,-8.0477,-7.9721,-7.8922,-7.8209,-7.7772,-7.7402,-7.7223,-7.7223,-7.7223,-7.7223,-7.7223,-7.7223,-7.7223,-7.7223,-7.7223,-7.7316,-7.7603,-7.7672,-7.7637,-7.7637,-7.7672,-7.7327,-7.6637,-7.6292,-7.5982,-7.5696,-7.5524,-7.5706,-7.6326,-7.6533,-7.674,-7.7154,-7.7144,-7.7396,-7.7672,-7.812,-7.8726,-7.9317,-8.0535,-8.159,-8.2908,-8.414,-8.5334,-8.6029,-8.6241,-8.6006,-8.538,-8.604,-8.6444,-8.6261,-8.6407,-8.6701,-8.6885,-8.7031,-8.7031,-8.7031,-8.7031,-8.7178,-8.7435,-8.8081,-8.9052,-8.9835,-9.0715,-9.135,-9.1893,-9.2285,-9.2658,-9.3041,-9.3656,-9.437,-9.472,-9.5064,-9.514,-9.5178,-9.5025,-9.4987,-9.5828,-9.6592,-9.7356,-9.8044,-9.7891,-9.7967,-9.7623,-9.7394,-9.7089,-9.6745,-9.6401,-9.6286,-8.7031,-8.7031,-8.7031,-8.7031,-8.7031,-8.7031,-8.7031,-8.7031,-8.7031,-8.7031,-8.7031,-8.7031,-8.6628,-8.6004,-8.5967,-8.5563,-8.4646,-8.3948,-8.3471,-8.303,-8.2517,-8.215,-8.2186,-8.2051,-8.161,-8.1088,-8.0732,-8.0255,-7.9487,-7.8676,-7.842,-7.8124,-7.75,-7.7223,-7.7223,-7.7223,-7.7223,-7.7223,-7.7223,-7.7223,-7.7258,-7.7327,-7.7637,-7.8292,-7.8396,-7.8465,-7.8465,-7.8327,-7.7982,-7.7258,-7.6568,-7.6499,-7.6913,-7.6533,-7.6455,-7.7085,-7.7189,-7.7154,-7.7223,-7.7396,-7.7637,-7.8223,-7.875,-7.9193,-8.0605,-8.1789,-8.3004,-8.4336,-8.5295,-8.6065,-8.6749,-8.6777,-8.6151,-8.5086,-8.5416,-8.6004,-8.6775,-8.6371,-8.6444,-8.6885,-8.7031,-8.7105,-8.7215,-8.7252,-8.769,-8.8301,-8.9033,-9.01,-9.1311,-9.218,-9.2823,-9.3248,-9.363,-9.3815,-9.4151,-9.4312,-9.4949,-9.514,-9.5446,-9.5522,-9.5751,-9.5675,-9.5713,-9.6592,-9.7623,-9.8426,-9.8884,-9.8693,-9.8502,-9.8311,-9.8044,-9.77,-9.7089,-9.6477,-9.6248,-8.7031,-8.7031,-8.7031,-8.7031,-8.7031,-8.7031,-8.7031,-8.7031,-8.7031,-8.7031,-8.7031,-8.7031,-8.6885,-8.6701,-8.6628,-8.6261,-8.538,-8.4572,-8.3911,-8.3324,-8.259,-8.2223,-8.2018,-8.1542,-8.1124,-8.0732,-7.9762,-7.9009,-7.8759,-7.8031,-7.7588,-7.7544,-7.7402,-7.7258,-7.7223,-7.7292,-7.7223,-7.7223,-7.7258,-7.7292,-7.7351,-7.7844,-7.8189,-7.8396,-7.8948,-7.9189,-7.9155,-7.8672,-7.8017,-7.7247,-7.7085,-7.6972,-7.7189,-7.7016,-7.6982,-7.7109,-7.7223,-7.7258,-7.7361,-7.7775,-7.8154,-7.8556,-7.9858,-8.1121,-8.1602,-8.3494,-8.4721,-8.5551,-8.6138,-8.6714,-8.685,-8.6518,-8.5894,-8.5563,-8.5343,-8.5637,-8.6628,-8.6848,-8.6775,-8.6995,-8.7509,-8.7839,-8.7986,-8.8316,-8.8929,-8.9666,-9.043,-9.1354,-9.2588,-9.3526,-9.4085,-9.4686,-9.5059,-9.5105,-9.521,-9.5232,-9.5369,-9.5446,-9.556,-9.556,-9.5866,-9.6133,-9.6401,-9.6898,-9.8311,-9.9305,-9.9534,-9.9572,-9.9305,-9.877,-9.8197,-9.7585,-9.6554,-9.5828,-9.5942,-8.7031,-8.7031,-8.7031,-8.7031,-8.7031,-8.7031,-8.7031,-8.7031,-8.7031,-8.7031,-8.7031,-8.7031,-8.7031,-8.6995,-8.6628,-8.6261,-8.5673,-8.4609,-8.3838,-8.3294,-8.2147,-8.1647,-8.1508,-8.1053,-8.0586,-7.9801,-7.8963,-7.8336,-7.7945,-7.7411,-7.7223,-7.7223,-7.7223,-7.7396,-7.7775,-7.7741,-7.7879,-7.8154,-7.8189,-7.8189,-7.8258,-7.8637,-7.9051,-7.9293,-7.9776,-7.9982,-7.9879,-7.9258,-7.8499,-7.7844,-7.7465,-7.7361,-7.7637,-7.7361,-7.7258,-7.7223,-7.7178,-7.7327,-7.7741,-7.8189,-7.8899,-7.9709,-8.106,-8.1874,-8.2903,-8.4475,-8.5186,-8.5227,-8.631,-8.6705,-8.6554,-8.6334,-8.6334,-8.6261,-8.5894,-8.6004,-8.6958,-8.6995,-8.7178,-8.7545,-8.8169,-8.872,-8.872,-8.916,-8.9875,-9.0703,-9.1448,-9.253,-9.3698,-9.4516,-9.5091,-9.5349,-9.556,-9.5522,-9.5462,-9.5522,-9.5598,-9.5713,-9.5789,-9.5751,-9.6057,-9.6554,-9.7127,-9.7738,-9.9037,-9.9916,-10.0031,-9.9916,-9.9228,-9.8655,-9.8082,-9.7318,-9.6324,-9.6095,-9.6133,-8.7031,-8.7031,-8.7031,-8.7031,-8.7031,-8.7031,-8.7031,-8.6995,-8.6848,-8.6811,-8.674,-8.6634,-8.6379,-8.6667,-8.5509,-8.5286,-8.5172,-8.3649,-8.3064,-8.2346,-8.1451,-8.0732,-8.0513,-8.0439,-7.9798,-7.8841,-7.8504,-7.7945,-7.7456,-7.7223,-7.7223,-7.7223,-7.7223,-7.7672,-7.812,-7.8327,-7.8775,-7.9224,-7.9258,-7.9224,-7.9293,-7.95,-7.9844,-8.0293,-8.0603,-8.0638,-8.0431,-7.9948,-7.9281,-7.8626,-7.7833,-7.7891,-7.8316,-7.7719,-7.7467,-7.7467,-7.757,-7.7868,-7.8497,-7.8944,-7.9753,-8.141,-8.1492,-8.2087,-8.4037,-8.4858,-8.5119,-8.525,-8.6192,-8.6557,-8.6371,-8.6591,-8.6848,-8.6848,-8.6885,-8.6958,-8.7031,-8.7031,-8.7325,-8.8096,-8.8867,-8.9344,-8.9528,-8.967,-9.0168,-9.1379,-9.2061,-9.2641,-9.3656,-9.443,-9.4884,-9.515,-9.5407,-9.5598,-9.5637,-9.5713,-9.5828,-9.5942,-9.6019,-9.6095,-9.6363,-9.6898,-9.7738,-9.8617,-9.9572,-10.0145,-10.0413,-9.9954,-9.9305,-9.8808,-9.8426,-9.7356,-9.6363,-9.6783,-9.6974,-8.7031,-8.7031,-8.7031,-8.7031,-8.7031,-8.7031,-8.6995,-8.6921,-8.6297,-8.5972,-8.5756,-8.4752,-8.4604,-8.5023,-8.37,-8.2895,-8.294,-8.1996,-8.1116,-8.0468,-8.0211,-7.9565,-7.917,-7.9049,-7.8841,-7.8294,-7.7772,-7.7411,-7.7223,-7.7223,-7.7223,-7.7223,-7.7258,-7.7603,-7.8292,-7.843,-7.8775,-7.9362,-7.9534,-7.9603,-7.9776,-8.0155,-8.0465,-8.0741,-8.1224,-8.1155,-8.0707,-8.0465,-8.02,-7.9749,-7.9175,-7.8853,-7.8865,-7.8554,-7.8289,-7.8301,-7.8556,-7.9028,-7.9912,-8.064,-8.1567,-8.2643,-8.3499,-8.4568,-8.5023,-8.5626,-8.5919,-8.6203,-8.6603,-8.6709,-8.6703,-8.6885,-8.7068,-8.7105,-8.7178,-8.7142,-8.7068,-8.7068,-8.7509,-8.8169,-8.8977,-8.9602,-9.0261,-9.0603,-9.1214,-9.2084,-9.2391,-9.2671,-9.3379,-9.4227,-9.4561,-9.4834,-9.514,-9.5407,-9.6057,-9.6248,-9.6554,-9.6592,-9.6592,-9.6821,-9.7089,-9.7356,-9.8273,-9.9114,-9.9916,-10.0336,-10.0489,-10.0375,-9.9763,-9.9305,-9.8808,-9.8082,-9.7547,-9.7815,-9.7853,-8.7031,-8.7031,-8.7031,-8.6775,-8.6481,-8.6444,-8.6224,-8.5788,-8.5001,-8.4676,-8.439,-8.3335,-8.3078,-8.3302,-8.2155,-8.1571,-8.1329,-8.0706,-7.9918,-7.932,-7.9089,-7.8676,-7.8039,-7.7902,-7.7902,-7.7815,-7.7456,-7.7223,-7.7223,-7.7223,-7.7223,-7.7223,-7.7258,-7.7637,-7.8292,-7.8465,-7.9051,-7.9844,-8.0051,-8.0189,-8.0638,-8.0948,-8.119,-8.119,-8.1569,-8.1522,-8.1035,-8.0966,-8.0823,-8.0597,-8.0384,-8.0042,-7.9406,-7.8968,-7.8784,-7.8763,-7.9292,-7.9913,-8.0821,-8.1707,-8.2736,-8.3911,-8.4532,-8.4809,-8.5185,-8.5664,-8.5662,-8.5803,-8.6201,-8.6749,-8.6997,-8.7472,-8.7509,-8.7655,-8.7912,-8.8061,-8.8098,-8.8133,-8.8243,-8.883,-8.9528,-9.0078,-9.0622,-9.0876,-9.1199,-9.1588,-9.2075,-9.2353,-9.2924,-9.3683,-9.4048,-9.4376,-9.4758,-9.5293,-9.621,-9.6821,-9.7394,-9.7432,-9.7471,-9.7853,-9.8235,-9.8541,-9.8884,-9.9534,-10.0069,-10.0222,-10.0336,-10.026,-10.0107,-9.9572,-9.9075,-9.8808,-9.8655,-9.8541,-9.8617,-8.6701,-8.6811,-8.6848,-8.6407,-8.5857,-8.5681,-8.5174,-8.441,-8.3411,-8.3009,-8.2824,-8.2027,-8.147,-8.147,-8.0652,-8.0328,-8.011,-7.9675,-7.8829,-7.8651,-7.8364,-7.8084,-7.7619,-7.7461,-7.7461,-7.7361,-7.7258,-7.7223,-7.7223,-7.7258,-7.7361,-7.7396,-7.743,-7.8085,-7.8603,-7.8844,-7.9638,-8.0879,-8.1121,-8.1431,-8.2017,-8.219,-8.2224,-8.2129,-8.1956,-8.1813,-8.1531,-8.1331,-8.12,-8.1126,-8.1458,-8.1183,-8.0643,-7.9905,-7.9495,-7.9693,-8.0836,-8.1837,-8.2664,-8.3182,-8.4034,-8.5297,-8.4763,-8.4708,-8.5228,-8.5446,-8.5445,-8.5698,-8.628,-8.7229,-8.7296,-8.7845,-8.8212,-8.8357,-8.8907,-8.92,-8.9199,-8.9236,-8.9199,-8.9345,-8.9601,-9.004,-9.0168,-9.0332,-9.0676,-9.1048,-9.1582,-9.2033,-9.2535,-9.3,-9.3344,-9.3955,-9.4338,-9.5369,-9.6363,-9.6859,-9.7471,-9.8044,-9.812,-9.8579,-9.9114,-9.9419,-9.9572,-9.961,-9.9954,-10.0183,-10.0298,-10.026,-10.0031,-9.961,-9.9572,-9.9534,-9.9381,-9.9228,-9.9343,-8.538,-8.6004,-8.5967,-8.5894,-8.5681,-8.5081,-8.4319,-8.3411,-8.1944,-8.135,-8.1087,-7.9797,-7.958,-7.9635,-7.8481,-7.7893,-7.8111,-7.7971,-7.8006,-7.8133,-7.7925,-7.7668,-7.7958,-7.7741,-7.7706,-7.7879,-7.7706,-7.743,-7.7396,-7.7213,-7.7741,-7.812,-7.8223,-7.8844,-7.9707,-8.0293,-8.0741,-8.1879,-8.2224,-8.2673,-8.3225,-8.3349,-8.3251,-8.3071,-8.2609,-8.2257,-8.1938,-8.143,-8.1229,-8.1526,-8.168,-8.2318,-8.2913,-8.2956,-8.2962,-8.298,-8.3749,-8.4599,-8.5344,-8.5631,-8.6128,-8.6523,-8.6202,-8.5767,-8.5917,-8.5953,-8.6172,-8.6756,-8.7376,-8.8141,-8.8472,-8.8436,-8.8582,-8.8728,-8.8655,-8.8692,-8.8471,-8.869,-8.8981,-8.8905,-8.9306,-8.9555,-8.9403,-8.943,-8.976,-9.0114,-9.0608,-9.1004,-9.1403,-9.1969,-9.2465,-9.3191,-9.3955,-9.5255,-9.6554,-9.6859,-9.7356,-9.8235,-9.8579,-9.8923,-9.9458,-10.0069,-10.026,-9.9954,-9.9992,-10.0298,-10.0336,-10.0298,-10.026,-10.0069,-10.0183,-10.0298,-10.0069,-9.9878,-10.0031,-8.5673,-8.6373,-8.5915,-8.5481,-8.5046,-8.4234,-8.3169,-8.1973,-8.0763,-8.001,-7.937,-7.8427,-7.7996,-7.8124,-7.7685,-7.7223,-7.7258,-7.7223,-7.7465,-7.7672,-7.781,-7.7982,-7.8499,-7.8327,-7.8637,-7.881,-7.8603,-7.8361,-7.843,-7.843,-7.8603,-7.8844,-7.8982,-7.9362,-7.9982,-8.0396,-8.1293,-8.2259,-8.2845,-8.3362,-8.3969,-8.3906,-8.3709,-8.3373,-8.3102,-8.2763,-8.2528,-8.2682,-8.253,-8.2802,-8.3516,-8.4277,-8.5076,-8.5879,-8.5973,-8.5275,-8.5781,-8.6525,-8.7038,-8.7012,-8.7456,-8.7614,-8.7366,-8.7221,-8.7147,-8.7217,-8.7217,-8.7734,-8.7739,-8.8068,-8.8106,-8.8215,-8.8179,-8.8179,-8.8216,-8.8107,-8.8033,-8.8252,-8.8103,-8.7841,-8.7909,-8.7961,-8.807,-8.8242,-8.8668,-8.9148,-8.9679,-9.0067,-9.0381,-9.0937,-9.1548,-9.3115,-9.4108,-9.5407,-9.6592,-9.6974,-9.7241,-9.8082,-9.8732,-9.9114,-9.9458,-9.9878,-9.9954,-9.9801,-9.9992,-10.0031,-10.0298,-10.0222,-10.0375,-10.0489,-10.0489,-10.0451,-10.0527,-10.0566,-10.0604,-8.5797,-8.6459,-8.5551,-8.4811,-8.4155,-8.3299,-8.2044,-8.0598,-7.9888,-7.9224,-7.8474,-7.8004,-7.7786,-7.7706,-7.7741,-7.7741,-7.7672,-7.7775,-7.7948,-7.8178,-7.8465,-7.8672,-7.9017,-7.9189,-7.95,-7.9672,-7.9672,-7.9638,-7.9327,-7.9293,-7.9534,-7.9707,-7.9741,-8.012,-8.0672,-8.1466,-8.181,-8.2845,-8.3466,-8.4141,-8.456,-8.443,-8.4111,-8.3705,-8.3534,-8.3279,-8.326,-8.3362,-8.3959,-8.454,-8.5496,-8.6563,-8.7339,-8.8689,-8.8631,-8.7187,-8.7273,-8.7497,-8.7787,-8.7969,-8.8405,-8.8483,-8.8263,-8.8118,-8.7829,-8.7575,-8.7831,-8.8095,-8.81,-8.781,-8.7883,-8.7739,-8.7812,-8.774,-8.7704,-8.7523,-8.7413,-8.7228,-8.6456,-8.6302,-8.6292,-8.6565,-8.6915,-8.7144,-8.7588,-8.8241,-8.8786,-8.9363,-8.9676,-9.002,-9.0975,-9.3,-9.449,-9.5713,-9.663,-9.705,-9.7356,-9.7815,-9.8349,-9.877,-9.9075,-9.9458,-9.9381,-9.9305,-9.9152,-9.9228,-9.9649,-10.0222,-10.0375,-10.0527,-10.0566,-10.0604,-10.0604,-10.0604,-10.0604,-8.4064,-8.4715,-8.3875,-8.341,-8.3254,-8.2468,-8.1196,-7.9873,-7.9639,-7.9085,-7.8529,-7.897,-7.912,-7.9086,-7.912,-7.9155,-7.9155,-7.9051,-7.9224,-7.9534,-7.95,-7.9672,-8.0086,-7.9672,-8.012,-8.0431,-8.05,-8.0086,-7.9879,-7.9741,-7.9948,-8.0396,-8.0672,-8.1362,-8.2776,-8.3121,-8.4742,-8.626,-8.6708,-8.6935,-8.7126,-8.649,-8.5991,-8.5475,-8.4689,-8.4109,-8.4427,-8.4532,-8.4948,-8.6696,-8.7002,-8.8474,-9.0368,-9.0998,-9.1262,-9.0887,-9.0561,-9.0132,-8.9838,-8.9488,-8.9169,-8.9024,-8.8662,-8.7937,-8.7573,-8.7319,-8.7322,-8.7177,-8.7652,-8.7944,-8.7872,-8.7978,-8.8087,-8.7656,-8.7116,-8.672,-8.6502,-8.5805,-8.5103,-8.4903,-8.4938,-8.5596,-8.6124,-8.6304,-8.6525,-8.7242,-8.7916,-8.8586,-8.9332,-8.9982,-9.0975,-9.3115,-9.4529,-9.5751,-9.621,-9.6706,-9.7127,-9.7509,-9.8006,-9.8388,-9.8579,-9.877,-9.8693,-9.8579,-9.8541,-9.8923,-9.9687,-10.0183,-10.0413,-10.0375,-10.0222,-10.0375,-10.0604,-10.0566,-10.0451,-8.3656,-8.4338,-8.3484,-8.3147,-8.3054,-8.2212,-8.1248,-8.0313,-8.0133,-7.9707,-7.9189,-7.9362,-7.95,-7.9569,-7.95,-7.95,-7.95,-7.9569,-7.9672,-8.0155,-8.012,-8.0327,-8.0569,-8.0741,-8.1086,-8.1121,-8.1293,-8.1224,-8.0845,-8.0776,-8.1017,-8.1155,-8.1397,-8.2121,-8.4087,-8.4501,-8.5673,-8.6864,-8.7538,-8.7726,-8.753,-8.7215,-8.6885,-8.6616,-8.5904,-8.5783,-8.5991,-8.6844,-8.7279,-8.8791,-8.9458,-9.0717,-9.1845,-9.223,-9.2388,-9.2342,-9.1664,-9.1048,-9.0581,-9.0255,-8.9857,-8.9459,-8.9024,-8.8589,-8.7829,-8.7249,-8.7249,-8.772,-8.7539,-8.7539,-8.7394,-8.7141,-8.667,-8.6273,-8.5841,-8.5337,-8.4824,-8.4348,-8.3749,-8.363,-8.3744,-8.4758,-8.5649,-8.6061,-8.6396,-8.6985,-8.7898,-8.8777,-8.9905,-9.109,-9.2198,-9.3612,-9.472,-9.5637,-9.5789,-9.6057,-9.6554,-9.7012,-9.7776,-9.8044,-9.7967,-9.8006,-9.8006,-9.8579,-9.9114,-9.9534,-9.9878,-9.9801,-9.9687,-9.9725,-9.9801,-9.9954,-10.0031,-10.0016,-10.0016,-8.3331,-8.3677,-8.3059,-8.2781,-8.2736,-8.2106,-8.1328,-8.0672,-8.081,-8.05,-8.0017,-8.0017,-8.012,-8.0086,-8.0189,-8.0258,-8.0155,-8.0086,-8.0086,-8.0293,-8.0569,-8.0879,-8.1121,-8.1535,-8.1707,-8.1776,-8.1672,-8.1638,-8.1707,-8.1707,-8.1638,-8.1845,-8.2293,-8.3259,-8.4452,-8.5643,-8.6816,-8.8123,-8.841,-8.8297,-8.8028,-8.7661,-8.7613,-8.7511,-8.7463,-8.7503,-8.8115,-8.8984,-8.981,-9.0976,-9.1847,-9.2763,-9.3378,-9.3602,-9.3318,-9.3044,-9.232,-9.1595,-9.098,-9.0436,-9.0147,-8.9567,-8.8843,-8.8227,-8.7829,-8.7213,-8.6851,-8.7322,-8.7032,-8.6706,-8.638,-8.5873,-8.5402,-8.4715,-8.3992,-8.3407,-8.3135,-8.3258,-8.353,-8.3744,-8.4036,-8.4569,-8.5342,-8.5918,-8.6377,-8.6861,-8.7766,-8.8912,-9.0402,-9.193,-9.3,-9.4185,-9.4872,-9.556,-9.5637,-9.5751,-9.6133,-9.6477,-9.7241,-9.7394,-9.7127,-9.7318,-9.7509,-9.8311,-9.9075,-9.877,-9.8311,-9.8579,-9.8884,-9.9037,-9.919,-9.9305,-9.9381,-9.9366,-9.9587,-8.2646,-8.1965,-8.1918,-8.1918,-8.1918,-8.1823,-8.1362,-8.0672,-8.1362,-8.1155,-8.0603,-8.119,-8.1466,-8.1603,-8.1603,-8.1603,-8.1603,-8.1638,-8.1466,-8.15,-8.1707,-8.1603,-8.1638,-8.1707,-8.1776,-8.1776,-8.1776,-8.1776,-8.1845,-8.1948,-8.1879,-8.1914,-8.2811,-8.4501,-8.5987,-8.7194,-8.8189,-8.916,-8.9281,-8.9294,-8.8994,-8.8722,-8.8564,-8.9103,-8.8881,-8.9031,-9.064,-9.0927,-9.1477,-9.2754,-9.3155,-9.3693,-9.415,-9.4367,-9.3913,-9.3189,-9.2718,-9.1921,-9.1125,-9.0618,-9.011,-8.9241,-8.8191,-8.7322,-8.7104,-8.6452,-8.6163,-8.6308,-8.6271,-8.5945,-8.5402,-8.475,-8.4643,-8.4246,-8.3736,-8.3344,-8.3153,-8.3183,-8.3446,-8.3827,-8.4419,-8.5214,-8.6138,-8.6948,-8.7188,-8.7648,-8.8492,-8.9638,-9.1243,-9.2733,-9.3612,-9.4567,-9.5102,-9.5522,-9.5598,-9.5751,-9.5904,-9.6057,-9.6554,-9.6363,-9.6019,-9.6401,-9.7432,-9.7089,-9.7547,-9.7165,-9.7165,-9.812,-9.8693,-9.8541,-9.8464,-9.8311,-9.8624,-9.886,-9.9141,-8.2118,-8.181,-8.1776,-8.1776,-8.1845,-8.2293,-8.1776,-8.0776,-8.0948,-8.0948,-8.0672,-8.1431,-8.2052,-8.2466,-8.2983,-8.288,-8.2535,-8.25,-8.2224,-8.1914,-8.1776,-8.1776,-8.1776,-8.1776,-8.1776,-8.1776,-8.1776,-8.1776,-8.181,-8.2155,-8.2431,-8.2776,-8.328,-8.488,-8.6573,-8.838,-8.94,-8.9519,-8.9628,-8.9683,-9.0143,-9.0059,-9.0156,-9.1081,-9.1077,-9.1052,-9.1705,-9.1941,-9.2478,-9.2934,-9.3243,-9.3638,-9.3975,-9.4058,-9.366,-9.2972,-9.261,-9.1958,-9.1306,-9.0762,-9.0038,-8.8626,-8.7322,-8.638,-8.6489,-8.609,-8.5945,-8.5945,-8.6018,-8.5945,-8.6199,-8.5442,-8.4755,-8.4282,-8.3941,-8.3562,-8.354,-8.3653,-8.4427,-8.5298,-8.573,-8.6244,-8.7252,-8.829,-8.8391,-8.853,-8.9409,-9.0478,-9.2121,-9.3421,-9.4261,-9.4834,-9.5331,-9.5522,-9.5598,-9.5598,-9.5598,-9.5751,-9.5942,-9.5828,-9.5789,-9.6974,-9.7662,-9.6974,-9.6515,-9.6821,-9.7394,-9.8235,-9.8426,-9.7967,-9.7455,-9.6958,-9.7484,-9.82,-9.8615,-8.1776,-8.181,-8.2052,-8.2017,-8.1845,-8.2121,-8.1638,-8.0707,-8.0362,-8.0465,-8.0672,-8.1466,-8.2224,-8.2914,-8.3328,-8.3604,-8.3259,-8.319,-8.2742,-8.2431,-8.219,-8.1983,-8.1845,-8.1776,-8.1776,-8.1776,-8.1776,-8.1776,-8.181,-8.2569,-8.3156,-8.3521,-8.3851,-8.542,-8.6971,-8.9046,-8.9847,-8.9517,-8.9813,-9.0084,-9.0622,-9.1005,-9.1635,-9.2418,-9.2316,-9.2507,-9.2656,-9.2773,-9.2637,-9.2834,-9.2953,-9.3034,-9.3044,-9.2972,-9.2863,-9.2537,-9.2175,-9.174,-9.1306,-9.04,-8.9422,-8.83,-8.7177,-8.6489,-8.6271,-8.6416,-8.6815,-8.6742,-8.6706,-8.6706,-8.7104,-8.6166,-8.5299,-8.4937,-8.4942,-8.4722,-8.4695,-8.4833,-8.5914,-8.6921,-8.73,-8.7867,-8.9365,-9.0436,-9.0496,-9.0669,-9.1472,-9.2274,-9.3191,-9.4261,-9.4834,-9.5255,-9.5522,-9.5598,-9.5598,-9.5598,-9.5598,-9.5637,-9.5789,-9.5828,-9.6172,-9.7165,-9.7356,-9.6515,-9.6324,-9.6821,-9.705,-9.7203,-9.728,-9.7241,-9.6729,-9.6276,-9.6631,-9.7367,-9.7856,-8.1776,-8.1879,-8.2535,-8.2397,-8.1776,-8.1017,-8.0707,-8.0431,-7.9844,-7.9948,-8.0672,-8.1466,-8.2293,-8.2914,-8.3362,-8.3673,-8.3983,-8.3983,-8.3535,-8.2914,-8.2638,-8.2397,-8.2017,-8.1776,-8.1776,-8.1776,-8.181,-8.181,-8.1914,-8.2914,-8.3845,-8.487,-8.546,-8.62,-8.7126,-8.8667,-8.9373,-8.9351,-9.0212,-9.0569,-9.1073,-9.1745,-9.254,-9.3008,-9.2879,-9.2979,-9.3309,-9.2911,-9.2676,-9.2693,-9.2554,-9.2573,-9.261,-9.2646,-9.2392,-9.1849,-9.1776,-9.1378,-9.069,-8.9205,-8.8589,-8.8372,-8.7539,-8.7068,-8.7141,-8.7539,-8.7865,-8.7611,-8.7754,-8.7573,-8.7358,-8.6925,-8.6279,-8.6172,-8.6303,-8.6355,-8.6396,-8.6681,-8.7809,-8.8689,-8.9185,-8.9884,-9.1527,-9.2733,-9.2733,-9.3038,-9.365,-9.4185,-9.4567,-9.4872,-9.5331,-9.5446,-9.5598,-9.5598,-9.5598,-9.5598,-9.5598,-9.5598,-9.5637,-9.5713,-9.5713,-9.6133,-9.6095,-9.5751,-9.5942,-9.6286,-9.6019,-9.5751,-9.6117,-9.6484,-9.6222,-9.5959,-9.6197,-9.6511,-9.7035,-8.1776,-8.181,-8.2086,-8.2017,-8.1845,-8.2052,-8.1328,-7.9913,-7.9224,-7.9465,-8.0603,-8.1466,-8.2535,-8.3431,-8.4121,-8.4466,-8.4742,-8.4742,-8.4259,-8.3018,-8.2949,-8.2431,-8.2017,-8.1776,-8.181,-8.181,-8.1845,-8.2155,-8.2569,-8.3604,-8.4663,-8.5751,-8.6867,-8.761,-8.8101,-8.9028,-8.9593,-9.0104,-9.064,-9.1055,-9.1855,-9.2306,-9.2727,-9.3294,-9.297,-9.3037,-9.3329,-9.261,-9.2247,-9.2139,-9.1921,-9.1595,-9.1559,-9.1559,-9.1378,-9.1052,-9.1016,-9.0907,-9.0436,-8.964,-8.9096,-8.877,-8.83,-8.7829,-8.7901,-8.7971,-8.8152,-8.8261,-8.8405,-8.8372,-8.8517,-8.8279,-8.7997,-8.8522,-8.8684,-8.8635,-8.8758,-8.9161,-8.9855,-9.0487,-9.1052,-9.1854,-9.3229,-9.3917,-9.407,-9.4223,-9.4681,-9.4872,-9.5178,-9.5255,-9.5522,-9.5522,-9.5598,-9.5598,-9.5598,-9.5598,-9.5598,-9.5598,-9.5598,-9.5637,-9.5637,-9.5598,-9.5637,-9.5675,-9.5637,-9.5598,-9.5598,-9.5621,-9.5664,-9.5763,-9.5768,-9.5814,-9.6051,-9.613,-9.6247,-8.1776,-8.1776,-8.1776,-8.1776,-8.1845,-8.2052,-8.1086,-7.9638,-7.9293,-7.9741,-8.0638,-8.1466,-8.2604,-8.3811,-8.4501,-8.5294,-8.5501,-8.5535,-8.4742,-8.3466,-8.3293,-8.2707,-8.2121,-8.1845,-8.2017,-8.2086,-8.2259,-8.2569,-8.3328,-8.457,-8.5646,-8.6714,-8.7965,-8.8789,-8.9287,-8.981,-8.9952,-9.0416,-9.0809,-9.1582,-9.2098,-9.2442,-9.2812,-9.291,-9.2709,-9.2573,-9.2356,-9.1958,-9.1414,-9.1233,-9.0943,-9.0618,-9.0618,-9.0618,-9.0618,-9.0618,-9.0618,-9.0618,-9.04,-9.0219,-8.9821,-8.9748,-8.906,-8.8698,-8.8734,-8.8988,-8.9133,-8.9169,-8.8988,-8.9281,-8.9652,-8.9451,-8.9751,-9.0227,-9.0547,-9.0511,-9.0688,-9.105,-9.162,-9.2253,-9.2695,-9.365,-9.4414,-9.4872,-9.5216,-9.5369,-9.556,-9.5598,-9.5598,-9.5598,-9.5598,-9.5598,-9.5598,-9.5598,-9.5598,-9.5598,-9.5598,-9.5598,-9.5598,-9.5598,-9.5598,-9.5598,-9.5598,-9.5598,-9.5598,-9.5598,-9.5621,-9.5643,-9.5708,-9.5751,-9.5772,-9.5856,-9.5941,-9.5981,-9.6039,-8.1776,-8.1776,-8.1776,-8.1776,-8.1672,-8.119,-8.0396,-7.9707,-8.0293,-8.0603,-8.0741,-8.1535,-8.2604,-8.3776,-8.4052,-8.488,-8.588,-8.6087,-8.5121,-8.4225,-8.3673,-8.2845,-8.2224,-8.1948,-8.2293,-8.2673,-8.2983,-8.3328,-8.4087,-8.5076,-8.6217,-8.757,-8.876,-8.9629,-9.0172,-9.0659,-9.0589,-9.0917,-9.1314,-9.1778,-9.1913,-9.2364,-9.2549,-9.2428,-9.2066,-9.1813,-9.1559,-9.1161,-9.0835,-9.069,-9.0618,-9.0618,-9.0618,-9.0618,-9.0618,-9.0618,-9.0618,-9.0618,-9.0581,-9.0436,-9.0436,-9.0292,-8.9821,-8.9531,-8.9567,-8.9857,-9.0002,-9.011,-9.0074,-9.0414,-9.0679,-9.0808,-9.0997,-9.1505,-9.2007,-9.2137,-9.2279,-9.2764,-9.3371,-9.3841,-9.4108,-9.4681,-9.5102,-9.5598,-9.5598,-9.5598,-9.5598,-9.5598,-9.5598,-9.5598,-9.5598,-9.5598,-9.5598,-9.5598,-9.5598,-9.5598,-9.5598,-9.5598,-9.5598,-9.5598,-9.5598,-9.5598,-9.5598,-9.5598,-9.5598,-9.5598,-9.5621,-9.5664,-9.5751,-9.5793,-9.5856,-9.5938,-9.6,-9.6117,-9.6175,-8.1776,-8.1776,-8.1776,-8.1776,-8.1776,-8.1535,-8.1328,-8.1155,-8.0845,-8.0879,-8.15,-8.1672,-8.2638,-8.3949,-8.4018,-8.4984,-8.5604,-8.5708,-8.4915,-8.419,-8.3535,-8.2673,-8.2293,-8.2259,-8.2673,-8.3004,-8.3417,-8.4072,-8.4885,-8.5717,-8.6901,-8.8416,-8.9241,-9.0106,-9.0917,-9.1666,-9.1598,-9.1564,-9.1781,-9.1654,-9.1625,-9.1975,-9.1921,-9.1487,-9.1269,-9.1052,-9.0907,-9.0799,-9.0618,-9.0618,-9.0618,-9.0618,-9.0618,-9.0618,-9.0618,-9.0618,-9.0618,-9.0618,-9.0618,-9.0618,-9.0618,-9.0618,-9.0328,-9.0328,-9.0328,-9.04,-9.0618,-9.0618,-9.0657,-9.074,-9.1093,-9.1363,-9.1866,-9.2519,-9.3026,-9.346,-9.365,-9.4022,-9.4567,-9.449,-9.4796,-9.5102,-9.556,-9.5598,-9.5598,-9.5598,-9.5598,-9.5598,-9.5598,-9.5598,-9.5598,-9.5598,-9.5598,-9.5598,-9.5598,-9.5598,-9.5598,-9.5598,-9.5598,-9.5598,-9.5598,-9.5598,-9.5598,-9.5598,-9.5598,-9.5598,-9.5598,-9.5686,-9.581,-9.5898,-9.5941,-9.6,-9.6098,-9.6309,-9.6539,-8.1776,-8.1776,-8.1776,-8.1776,-8.1776,-8.1776,-8.1776,-8.1707,-8.1293,-8.1397,-8.1741,-8.1776,-8.2604,-8.3845,-8.4087,-8.4811,-8.6156,-8.557,-8.4811,-8.4018,-8.3225,-8.2535,-8.2293,-8.2521,-8.2956,-8.3369,-8.3925,-8.4633,-8.5492,-8.6488,-8.7639,-8.8288,-8.9359,-9.0451,-9.1152,-9.1651,-9.2006,-9.1913,-9.1821,-9.1541,-9.1387,-9.1378,-9.098,-9.0726,-9.0618,-9.0618,-9.0618,-9.0618,-9.0618,-9.0618,-9.0618,-9.0618,-9.0618,-9.0618,-9.0292,-9.0292,-9.0473,-9.0545,-9.0618,-9.0618,-9.0618,-9.0618,-9.0618,-9.0581,-9.0545,-9.0581,-9.0618,-9.0618,-9.0701,-9.0858,-9.1285,-9.1802,-9.2592,-9.338,-9.3999,-9.4629,-9.4958,-9.5248,-9.5216,-9.5025,-9.5178,-9.5446,-9.5598,-9.5598,-9.5598,-9.5598,-9.5598,-9.5598,-9.5598,-9.5598,-9.5598,-9.5598,-9.5598,-9.5598,-9.5598,-9.5598,-9.5598,-9.5598,-9.5598,-9.5598,-9.5598,-9.5598,-9.5598,-9.5598,-9.5598,-9.5621,-9.5643,-9.5746,-9.5853,-9.5938,-9.6116,-9.6347,-9.654,-9.6828,-9.7116,-8.1776,-8.1776,-8.1776,-8.1776,-8.1776,-8.1776,-8.1845,-8.1914,-8.2017,-8.1914,-8.1845,-8.1879,-8.2707,-8.388,-8.4225,-8.5018,-8.5673,-8.5363,-8.4604,-8.3949,-8.3018,-8.2362,-8.2301,-8.259,-8.3223,-8.3812,-8.4449,-8.5135,-8.5873,-8.6864,-8.7715,-8.7999,-8.9989,-9.1269,-9.1747,-9.1602,-9.1821,-9.1877,-9.1604,-9.1257,-9.0827,-9.0654,-9.0618,-9.0618,-9.0618,-9.0618,-9.0618,-9.0618,-9.0618,-9.0618,-9.0473,-9.0436,-9.04,-9.0364,-8.9966,-9.0074,-9.0364,-9.0509,-9.0618,-9.0618,-9.0618,-9.0618,-9.0618,-9.078,-9.0822,-9.0858,-9.0897,-9.1057,-9.1211,-9.1584,-9.2013,-9.2625,-9.3387,-9.3982,-9.4526,-9.4596,-9.4471,-9.4758,-9.4872,-9.4911,-9.5369,-9.5598,-9.5598,-9.5598,-9.5598,-9.5598,-9.5598,-9.5598,-9.5598,-9.5598,-9.5598,-9.5598,-9.5598,-9.5598,-9.5598,-9.5598,-9.5598,-9.5598,-9.5598,-9.5598,-9.5598,-9.5598,-9.5598,-9.5598,-9.5598,-9.5643,-9.5686,-9.5789,-9.5874,-9.5997,-9.625,-9.6635,-9.6982,-9.7462,-9.7943,-8.1776,-8.1776,-8.1776,-8.1776,-8.1776,-8.1776,-8.2121,-8.2673,-8.3259,-8.2776,-8.2052,-8.2431,-8.319,-8.4121,-8.4639,-8.5432,-8.5846,-8.5052,-8.4328,-8.359,-8.2797,-8.2377,-8.2452,-8.3036,-8.3594,-8.4232,-8.4916,-8.577,-8.6467,-8.7399,-8.8562,-8.9664,-9.1067,-9.1773,-9.225,-9.1974,-9.1712,-9.1632,-9.1233,-9.098,-9.069,-9.0618,-9.0618,-9.0618,-9.0618,-9.0618,-9.0618,-9.0618,-9.0618,-9.0581,-8.9929,-8.9748,-8.9676,-8.9712,-8.9966,-9.0255,-9.04,-9.0545,-9.0618,-9.0618,-9.0618,-9.0581,-9.0701,-9.1095,-9.1249,-9.1284,-9.1434,-9.1657,-9.1978,-9.2357,-9.2821,-9.3447,-9.401,-9.4485,-9.4907,-9.4486,-9.407,-9.4261,-9.4529,-9.4949,-9.5484,-9.5598,-9.5598,-9.5598,-9.5598,-9.5598,-9.5598,-9.5598,-9.5598,-9.5598,-9.5598,-9.5598,-9.5598,-9.5598,-9.5598,-9.5598,-9.5598,-9.5598,-9.5598,-9.5598,-9.5598,-9.5598,-9.5598,-9.5598,-9.5621,-9.5664,-9.5708,-9.5768,-9.5874,-9.6191,-9.6616,-9.7096,-9.7866,-9.8404,-9.8942,-8.1776,-8.1776,-8.1776,-8.1776,-8.1776,-8.1776,-8.2052,-8.2431,-8.2845,-8.2604,-8.2155,-8.3225,-8.4294,-8.4811,-8.519,-8.5535,-8.5846,-8.4708,-8.4127,-8.3492,-8.2755,-8.2403,-8.2668,-8.3323,-8.3738,-8.4387,-8.572,-8.6642,-8.7226,-8.8801,-9.0226,-9.0899,-9.167,-9.2178,-9.2537,-9.1994,-9.1595,-9.1233,-9.0762,-9.0581,-9.0545,-9.0581,-9.0618,-9.0618,-9.0618,-9.0618,-9.0618,-9.0545,-9.0364,-9.0147,-8.9603,-8.9169,-8.9277,-8.964,-8.9929,-9.011,-9.0292,-9.0618,-9.0618,-9.0618,-9.0618,-9.0621,-9.074,-9.1095,-9.1728,-9.1801,-9.2257,-9.2525,-9.2686,-9.304,-9.3288,-9.3802,-9.4243,-9.4654,-9.5091,-9.5089,-9.4911,-9.4949,-9.5102,-9.5293,-9.5598,-9.5598,-9.5598,-9.5598,-9.5598,-9.5598,-9.5598,-9.5598,-9.5598,-9.5598,-9.5598,-9.5598,-9.5598,-9.5598,-9.5598,-9.5598,-9.5598,-9.5598,-9.5598,-9.5598,-9.5598,-9.5598,-9.5598,-9.5598,-9.5643,-9.5686,-9.5729,-9.5887,-9.634,-9.6789,-9.7193,-9.7615,-9.8442,-9.9269,-9.9769,-8.1776,-8.1776,-8.1776,-8.1776,-8.1776,-8.1776,-8.1879,-8.2017,-8.2121,-8.2293,-8.2638,-8.4363,-8.5466,-8.5466,-8.5432,-8.5673,-8.5279,-8.4127,-8.3601,-8.3228,-8.2512,-8.233,-8.2645,-8.3363,-8.4046,-8.5087,-8.637,-8.7423,-8.8342,-8.9964,-9.1149,-9.1734,-9.2142,-9.2501,-9.1994,-9.1595,-9.1306,-9.0835,-9.0473,-9.0364,-9.0436,-9.0545,-9.0581,-9.0618,-9.0618,-9.0618,-9.0618,-9.0364,-9.0002,-8.9857,-8.9531,-8.9133,-8.9096,-8.9567,-8.9857,-9.0038,-9.0328,-9.0545,-9.0618,-9.0618,-9.0621,-9.0661,-9.0897,-9.1361,-9.2047,-9.2621,-9.3071,-9.344,-9.3618,-9.3735,-9.4001,-9.4232,-9.4628,-9.4794,-9.5195,-9.5522,-9.5484,-9.5369,-9.5407,-9.5522,-9.5598,-9.5598,-9.5598,-9.5598,-9.5598,-9.5598,-9.5598,-9.5598,-9.5598,-9.5598,-9.5598,-9.5598,-9.5598,-9.5598,-9.5598,-9.5598,-9.5598,-9.5598,-9.5598,-9.5598,-9.5598,-9.5598,-9.5598,-9.5598,-9.5643,-9.5806,-9.6002,-9.6257,-9.6728,-9.7424,-9.8057,-9.8614,-9.9173,-9.9942,-10.0442,-8.1776,-8.1776,-8.1776,-8.1776,-8.1776,-8.1776,-8.2121,-8.2742,-8.3293,-8.3914,-8.419,-8.457,-8.4742,-8.3604,-8.4121,-8.4417,-8.4422,-8.3395,-8.2933,-8.2561,-8.1938,-8.2067,-8.2648,-8.35,-8.466,-8.5974,-8.7335,-8.8558,-8.9483,-9.0828,-9.1936,-9.2604,-9.1965,-9.1958,-9.1813,-9.1342,-9.069,-9.0292,-8.9893,-8.964,-8.9857,-9.0074,-9.0545,-9.0618,-9.0618,-9.0618,-9.0473,-8.9929,-9.0038,-9.0002,-8.9748,-8.935,-8.935,-8.9567,-8.9893,-9.0219,-9.0509,-9.0545,-9.0618,-9.078,-9.0822,-9.098,-9.1399,-9.2185,-9.2843,-9.3618,-9.4112,-9.4718,-9.4882,-9.4832,-9.5018,-9.5067,-9.5318,-9.5166,-9.5309,-9.5407,-9.5407,-9.5178,-9.5025,-9.5331,-9.5598,-9.5598,-9.5598,-9.5598,-9.5598,-9.5598,-9.5598,-9.5598,-9.5598,-9.5598,-9.5637,-9.5637,-9.5637,-9.5598,-9.5598,-9.5598,-9.5598,-9.5598,-9.5598,-9.5598,-9.5598,-9.5598,-9.5598,-9.5643,-9.5877,-9.6117,-9.6312,-9.6741,-9.7495,-9.823,-9.9075,-9.969,-10.0134,-10.048,-10.0865]},{"header":{"parameterUnit":"m.s-1","parameterCategory":1,"la1":31.0,"la2":29.5877,"lo1":-88.7671,"lo2":-86.6584,"dx":0.0162,"dy":0.0185,"nx":115,"ny":88,"refTime":"2022-12-30T18:00:00:Z","depth":0,"parameterNumber":3,"parameterNumberName":"V-component_of_WINDS"},"data":[0.0,0.0,0.0,0.0,0.0,0.0,0.0,0.0,0.0,0.0,0.0,0.0,0.0,0.0,0.0,0.0,0.0,0.0,0.0,0.0,0.0,0.0,0.0,0.0,0.0,0.0,0.0,0.0,0.0,0.0,0.0,0.0,0.0,0.0,0.0,0.0,0.0,0.0,0.0,0.0,0.0,0.0,0.0,0.0,0.0,0.0,0.0,0.0,0.0,0.0,0.0,0.0,0.0,0.0,0.0,0.0,0.0,0.0,0.0,0.0,0.0,0.0,0.0,0.0,0.0,0.0,0.0,0.0,0.0,0.0,0.0,0.0,0.0,0.0,0.0,0.0,0.0,0.0,0.0,0.0,0.0,0.0,0.0,0.0,0.0,0.0,0.0,0.0,0.0,0.0,0.0,0.0,0.0,0.0,0.0,0.0,0.0,0.0,0.0,0.0,0.0,0.0,0.0,0.0,0.0,0.0,0.0,0.0,0.0,0.0,0.0,0.0,0.0,0.0,0.0,0.0,0.0,0.0,0.0,0.0,0.0,0.0,0.0,0.0,0.0,0.0,0.0,0.0,0.0,0.0,0.0,0.0,0.0,0.0,0.0,0.0,0.0,0.0,0.0,0.0,0.0,0.0,0.0,0.0,0.0,0.0,0.0,0.0,0.0,0.0,0.0,0.0,0.0,0.0,0.0,0.0,0.0,0.0,0.0,0.0,0.0,0.0,0.0,0.0,0.0,0.0,0.0,0.0,0.0,0.0,0.0,0.0,0.0,0.0,0.0,0.0,0.0,0.0,0.0,0.0,0.0,0.0,0.0,0.0,0.0,0.0,0.0,0.0,0.0,0.0,0.0,0.0,0.0,0.0,0.0,0.0,0.0,0.0,0.0,0.0,0.0,0.0,0.0,0.0,0.0,0.0,0.0,0.0,0.0,0.0,0.0,0.0,0.0,0.0,0.0,0.0,0.0,0.0,0.0,0.0,0.0,0.0,0.0,0.0,0.0,0.0,0.0,0.0,0.0,0.0,0.0,0.0,0.0,0.0,0.0,0.0,0.0,0.0,0.0,0.0,0.0,0.0,0.0,0.0,0.0,0.0,0.0,0.0,0.0,0.0,0.0,0.0,0.0,0.0,0.0,0.0,0.0,0.0,0.0,0.0,0.0,0.0,0.0,0.0,0.0,0.0,0.0,0.0,0.0,0.0,0.0,0.0,0.0,0.0,0.0,0.0,0.0,0.0,0.0,0.0,0.0,0.0,0.0,0.0,0.0,0.0,0.0,0.0,0.0,0.0,0.0,0.0,0.0,0.0,0.0,0.0,0.0,0.0,0.0,0.0,0.0,0.0,0.0,0.0,0.0,0.0,0.0,0.0,0.0,0.0,0.0,0.0,0.0,0.0,0.0,0.0,0.0,0.0,0.0,0.0,0.0,0.0,0.0,0.0,0.0,0.0,0.0,0.0,0.0,0.0,0.0,0.0,0.0,0.0,0.0,0.0,0.0,0.0,0.0,0.0,0.0,0.0,0.0,0.0,0.0,0.0,0.0,0.0,0.0,0.0,0.0,0.0,0.0,0.0,0.0,0.0,0.0,0.0,0.0,0.0,0.0,0.0,0.0,0.0,0.0,0.0,0.0,0.0,0.0,0.0,0.0,0.0,0.0,0.0,0.0,0.0,0.0,0.0,0.0,0.0,0.0,0.0,0.0,0.0,0.0,0.0,0.0,0.0,0.0,0.0,0.0,0.0,0.0,0.0,0.0,0.0,0.0,0.0,0.0,0.0,0.0,0.0,0.0,0.0,0.0,0.0,0.0,0.0,0.0,0.0,0.0,0.0,0.0,0.0,0.0,0.0,0.0,0.0,0.0,0.0,0.0,0.0,0.0,0.0,0.0,0.0,0.0,0.0,0.0,0.0,0.0,0.0,0.0,0.0,0.0,0.0,0.0,0.0,0.0,0.0,0.0,0.0,0.0,0.0,0.0,0.0,0.0,0.0,0.0,0.0,0.0,0.0,0.0,0.0,0.0,0.0,0.0,0.0,0.0,0.0,0.0,0.0,0.0,0.0,0.0,0.0,0.0,0.0,0.0,0.0,0.0,0.0,0.0,0.0,0.0,0.0,0.0,0.0,0.0,0.0,0.0,0.0,0.0,0.0,0.0,0.0,0.0,0.0,0.0,0.0,0.0,0.0,0.0,0.0,0.0,0.0,0.0,0.0,0.0,0.0,0.0,0.0,0.0,0.0,0.0,0.0,0.0,0.0,0.0,0.0,0.0,0.0,0.0,0.0,0.0,0.0,0.0,0.0,0.0,0.0,0.0,0.0,0.0,0.0,0.0,0.0,0.0,0.0,0.0,0.0,0.0,0.0,0.0,0.0,0.0,0.0,0.0,0.0,0.0,0.0,0.0,0.0,0.0,0.0,0.0,0.0,0.0,0.0,0.0,0.0,0.0,0.0,0.0,0.0,0.0,0.0,0.0,0.0,0.0,0.0,0.0,0.0,0.0,0.0,0.0,0.0,0.0,0.0,0.0,0.0,0.0,0.0,0.0,0.0,0.0,0.0,0.0,0.0,0.0,0.0,0.0,0.0,0.0,0.0,0.0,0.0,0.0,0.0,0.0,0.0,0.0,0.0,0.0,0.0,0.0,0.0,0.0,0.0,0.0,0.0,0.0,0.0,0.0,0.0,0.0,0.0,0.0,0.0,0.0,0.0,0.0,0.0,0.0,0.0,0.0,0.0,0.0,0.0,0.0,0.0,0.0,0.0,0.0,0.0,0.0,0.0,0.0,0.0,0.0,0.0,0.0,0.0,0.0,0.0,0.0,0.0,0.0,0.0,0.0,0.0,0.0,0.0,0.0,0.0,0.0,0.0,0.0,0.0,0.0,0.0,0.0,0.0,0.0,0.0,0.0,0.0,0.0,0.0,0.0,0.0,0.0,0.0,0.0,0.0,0.0,0.0,0.0,0.0,0.0,0.0,0.0,0.0,0.0,0.0,0.0,0.0,0.0,0.0,0.0,0.0,0.0,0.0,0.0,0.0,0.0,0.0,0.0,0.0,0.0,0.0,0.0,0.0,0.0,0.0,0.0,0.0,0.0,0.0,0.0,0.0,0.0,0.0,0.0,0.0,0.0,0.0,0.0,0.0,0.0,0.0,0.0,0.0,0.0,0.0,0.0,0.0,0.0,0.0,0.0,0.0,0.0,0.0,0.0,0.0,0.0,0.0,0.0,0.0,0.0,0.0,0.0,0.0,0.0,0.0,0.0,0.0,0.0,0.0,0.0,0.0,0.0,0.0,0.0,0.0,0.0,0.0,0.0,0.0,0.0,0.0,0.0,0.0,0.0,0.0,0.0,0.0,0.0,0.0,0.0,0.0,0.0,0.0,0.0,0.0,0.0,0.0,0.0,0.0,0.0,0.0,0.0,0.0,0.0,0.0,0.0,0.0,0.0,0.0,0.0,0.0,0.0,0.0,0.0,0.0,0.0,0.0,0.0,0.0,0.0,0.0,0.0,0.0,0.0,0.0,0.0,0.0,0.0,0.0,0.0,0.0,0.0,0.0,0.0,0.0,0.0,0.0,0.0,0.0,0.0,0.0,0.0,0.0,0.0,0.0,0.0,0.0,0.0,0.0,0.0,0.0,0.0,0.0,0.0,0.0,0.0,0.0,0.0,0.0,0.0,0.0,0.0,0.0,0.0,0.0,0.0,0.0,0.0,0.0,0.0,0.0,0.0,0.0,0.0,0.0,0.0,0.0,0.0,0.0,0.0,0.0,0.0,0.0,0.0,0.0,0.0,0.0,0.0,0.0,0.0,0.0,0.0,0.0,0.0,0.0,0.0,0.0,0.0,0.0,0.0,0.0,0.0,0.0,0.0,0.0,0.0,0.0,0.0,0.0,0.0,0.0,0.0,0.0,0.0,0.0,0.0,0.0,0.0,0.0,0.0,0.0,0.0,0.0,0.0,0.0,0.0,0.0,0.0,0.0,0.0,0.0,0.0,0.0,0.0,0.0,0.0,0.0,0.0,0.0,0.0,0.0,0.0,0.0,0.0,0.0,0.0,0.0,0.0,0.0,0.0,0.0,0.0,0.0,0.0,0.0,0.0,0.0,0.0,0.0,0.0,0.0,0.0,0.0,0.0,0.0,0.0,0.0,0.0,0.0,0.0,0.0,0.0,0.0,0.0,0.0,0.0,0.0,0.0,0.0,0.0,0.0,0.0,0.0,0.0,0.0,0.0,0.0,0.0,0.0,0.0,0.0,0.0,0.0,-0.7117,0.0,0.0,0.0,-0.6997,0.0,0.0,0.0,0.0,0.0,0.0,0.0,0.0,0.0,0.0,0.0,0.0,0.0,0.0,0.0,0.0,0.0,0.0,0.0,0.0,0.0,0.0,0.0,0.0,0.0,0.0,0.0,0.0,0.0,0.0,0.0,0.0,0.0,0.0,0.0,0.0,0.0,0.0,0.0,0.0,0.0,0.0,0.0,0.0,0.0,0.0,0.0,0.0,0.0,0.0,0.0,0.0,0.0,0.0,0.0,0.0,0.0,0.0,0.0,0.0,0.0,0.0,0.0,0.0,0.0,0.0,0.0,0.0,0.0,0.0,0.0,0.0,0.0,0.0,0.0,0.0,0.0,0.0,0.0,0.0,0.0,0.0,0.0,0.0,0.0,0.0,0.0,0.0,0.0,0.0,0.0,0.0,0.0,0.0,0.0,0.0,0.0,0.0,0.0,0.0,0.0,0.0,0.0,0.0,0.0,0.0,0.0,0.0,0.0,0.0,-0.7225,-0.7182,-0.747,-0.7486,-0.7192,0.0,0.0,0.0,0.0,0.0,0.0,0.0,0.0,0.0,0.0,0.0,0.0,0.0,0.0,0.0,0.0,0.0,0.0,0.0,0.0,0.0,0.0,0.0,0.0,0.0,0.0,0.0,0.0,0.0,0.0,0.0,0.0,0.0,0.0,0.0,0.0,0.0,0.0,0.0,0.0,0.0,0.0,0.0,0.0,0.0,0.0,0.0,0.0,0.0,0.0,0.0,0.0,0.0,0.0,0.0,0.0,0.0,0.0,0.0,0.0,0.0,0.0,0.0,0.0,0.0,0.0,0.0,0.0,0.0,0.0,0.0,0.0,0.0,0.0,0.0,0.0,0.0,0.0,0.0,0.0,0.0,0.0,0.0,0.0,0.0,0.0,0.0,0.0,0.0,0.0,0.0,0.0,0.0,0.0,0.0,0.0,0.0,0.0,0.0,0.0,0.0,0.0,0.0,0.0,0.0,0.0,0.0,0.0,0.0,0.0,0.0,0.0,-0.7698,-0.7731,-0.7426,0.0,0.0,0.0,0.0,0.0,0.0,0.0,0.0,0.0,0.0,0.0,0.0,0.0,0.0,0.0,0.0,0.0,0.0,0.0,0.0,0.0,0.0,0.0,0.0,0.0,0.0,0.0,0.0,0.0,0.0,0.0,0.0,0.0,0.0,0.0,0.0,0.0,0.0,0.0,0.0,0.0,0.0,0.0,0.0,0.0,0.0,0.0,0.0,0.0,0.0,0.0,0.0,0.0,0.0,0.0,0.0,0.0,0.0,0.0,0.0,0.0,0.0,0.0,0.0,0.0,0.0,0.0,0.0,0.0,0.0,0.0,0.0,0.0,0.0,0.0,0.0,0.0,0.0,0.0,0.0,0.0,0.0,0.0,0.0,0.0,0.0,0.0,0.0,0.0,0.0,0.0,0.0,0.0,0.0,0.0,0.0,0.0,0.0,0.0,0.0,0.0,0.0,0.0,0.0,0.0,0.0,0.0,0.0,0.0,0.0,-0.7388,-0.7502,-0.7741,0.0,-0.7655,0.0,0.0,0.0,0.0,0.0,0.0,0.0,0.0,0.0,0.0,0.0,0.0,0.0,0.0,0.0,0.0,0.0,0.0,0.0,0.0,0.0,0.0,0.0,0.0,0.0,0.0,0.0,0.0,0.0,0.0,0.0,0.0,0.0,0.0,0.0,0.0,0.0,0.0,0.0,0.0,0.0,0.0,0.0,0.0,0.0,0.0,0.0,0.0,0.0,0.0,0.0,0.0,0.0,0.0,0.0,0.0,0.0,0.0,0.0,0.0,0.0,0.0,0.0,0.0,0.0,0.0,0.0,0.0,0.0,0.0,0.0,0.0,0.0,0.0,0.0,0.0,0.0,0.0,0.0,0.0,0.0,0.0,0.0,0.0,0.0,0.0,0.0,0.0,0.0,0.0,0.0,0.0,0.0,0.0,0.0,0.0,0.0,0.0,0.0,0.0,0.0,0.0,0.0,0.0,0.0,0.0,0.0,0.0,0.0,0.0,-0.7578,-0.7627,-0.7785,-0.7785,0.0,0.0,0.0,0.0,0.0,0.0,0.0,0.0,0.0,0.0,0.0,0.0,0.0,0.0,0.0,0.0,0.0,0.0,0.0,0.0,0.0,0.0,0.0,0.0,0.0,0.0,0.0,0.0,0.0,0.0,0.0,0.0,0.0,0.0,0.0,0.0,0.0,0.0,0.0,0.0,0.0,0.0,0.0,0.0,0.0,0.0,0.0,0.0,0.0,0.0,0.0,0.0,0.0,0.0,0.0,0.0,0.0,0.0,0.0,0.0,0.0,0.0,0.0,0.0,0.0,0.0,0.0,0.0,0.0,0.0,0.0,0.0,0.0,0.0,0.0,0.0,0.0,0.0,0.0,0.0,0.0,0.0,0.0,0.0,0.0,0.0,0.0,0.0,0.0,0.0,0.0,0.0,0.0,0.0,0.0,0.0,0.0,0.0,0.0,0.0,0.0,0.0,0.0,0.0,0.0,0.0,0.0,0.0,0.0,0.0,-0.7546,-0.7731,-0.7796,-0.7812,-0.7741,-0.7573,0.0,0.0,0.0,0.0,0.0,0.0,0.0,0.0,0.0,0.0,0.0,0.0,0.0,0.0,0.0,0.0,0.0,0.0,0.0,0.0,0.0,0.0,0.0,0.0,0.0,0.0,0.0,0.0,0.0,0.0,0.0,0.0,0.0,0.0,0.0,0.0,0.0,0.0,0.0,0.0,0.0,0.0,0.0,0.0,0.0,0.0,0.0,0.0,0.0,0.0,0.0,0.0,0.0,0.0,0.0,0.0,0.0,0.0,0.0,0.0,0.0,0.0,0.0,0.0,0.0,0.0,0.0,0.0,0.0,0.0,0.0,0.0,0.0,0.0,0.0,0.0,0.0,0.0,0.0,0.0,0.0,0.0,0.0,0.0,0.0,0.0,0.0,0.0,0.0,0.0,0.0,0.0,0.0,0.0,0.0,0.0,0.0,0.0,0.0,0.0,0.0,0.0,0.0,0.0,0.0,0.0,0.0,0.0,-0.7491,-0.7633,-0.7812,-0.8081,-0.7823,-0.7703,0.0,0.0,0.0,0.0,0.0,0.0,0.0,0.0,0.0,0.0,0.0,0.0,0.0,0.0,0.0,0.0,0.0,0.0,0.0,0.0,0.0,0.0,0.0,0.0,0.0,0.0,0.0,0.0,0.0,0.0,0.0,0.0,0.0,0.0,0.0,0.0,0.0,0.0,0.0,0.0,0.0,0.0,0.0,0.0,0.0,0.0,0.0,0.0,0.0,0.0,0.0,0.0,0.0,0.0,0.0,0.0,0.0,0.0,0.0,0.0,0.0,0.0,0.0,0.0,0.0,0.0,0.0,0.0,0.0,0.0,0.0,0.0,0.0,0.0,0.0,0.0,0.0,0.0,0.0,0.0,0.0,0.0,0.0,0.0,0.0,0.0,0.0,0.0,0.0,0.0,0.0,0.0,0.0,0.0,0.0,0.0,0.0,0.0,0.0,0.0,0.0,0.0,0.0,0.0,0.0,0.0,0.0,0.0,0.0,-0.7982,-0.7873,-0.7888,-0.8103,-0.7955,-0.7812,0.0,0.0,0.0,0.0,0.0,0.0,0.0,0.0,0.0,0.0,0.0,0.0,0.0,0.0,0.0,0.0,0.0,0.0,0.0,0.0,0.0,0.0,0.0,0.0,0.0,0.0,0.0,0.0,0.0,0.0,0.0,0.0,0.0,0.0,0.0,0.0,0.0,0.0,0.0,0.0,0.0,0.0,0.0,0.0,0.0,0.0,0.0,0.0,0.0,0.0,0.0,0.0,0.0,0.0,0.0,0.0,0.0,0.0,0.0,0.0,0.0,0.0,0.0,0.0,0.0,0.0,0.0,0.0,0.0,0.0,0.0,0.0,0.0,0.0,0.0,0.0,0.0,0.0,0.0,0.0,0.0,0.0,0.0,0.0,0.0,0.0,0.0,0.0,0.0,0.0,0.0,0.0,0.0,0.0,0.0,0.0,0.0,0.0,0.0,0.0,0.0,0.0,0.0,0.0,0.0,0.0,0.0,0.0,0.0,-0.8291,-0.8111,-0.8013,-0.8114,-0.8037,-0.7894,0.0,0.0,0.0,0.0,0.0,0.0,0.0,0.0,0.0,0.0,0.0,0.0,0.0,0.0,0.0,0.0,0.0,0.0,0.0,0.0,0.0,0.0,0.0,0.0,0.0,0.0,0.0,0.0,0.0,0.0,0.0,0.0,0.0,0.0,0.0,0.0,0.0,0.0,0.0,0.0,0.0,0.0,0.0,0.0,0.0,0.0,0.0,0.0,0.0,0.0,0.0,0.0,0.0,0.0,0.0,0.0,0.0,0.0,0.0,0.0,0.0,0.0,0.0,0.0,0.0,0.0,0.0,0.0,0.0,0.0,0.0,0.0,0.0,0.0,0.0,0.0,0.0,0.0,0.0,0.0,0.0,0.0,0.0,0.0,0.0,0.0,0.0,0.0,0.0,0.0,0.0,0.0,0.0,0.0,0.0,0.0,0.0,0.0,0.0,0.0,0.0,0.0,0.0,0.0,0.0,0.0,0.0,0.0,-0.8902,-0.8534,-0.835,-0.8171,-0.8125,-0.8114,-0.8004,0.0,0.0,0.0,0.0,0.0,0.0,0.0,0.0,0.0,0.0,0.0,0.0,0.0,0.0,0.0,0.0,0.0,0.0,0.0,0.0,0.0,0.0,0.0,0.0,0.0,0.0,0.0,0.0,0.0,0.0,0.0,0.0,0.0,0.0,0.0,0.0,0.0,0.0,0.0,0.0,0.0,0.0,0.0,0.0,0.0,0.0,0.0,0.0,0.0,0.0,0.0,0.0,0.0,0.0,0.0,0.0,0.0,0.0,0.0,0.0,0.0,0.0,0.0,0.0,0.0,0.0,0.0,0.0,0.0,0.0,0.0,0.0,0.0,0.0,0.0,0.0,0.0,0.0,0.0,0.0,0.0,0.0,0.0,0.0,0.0,0.0,0.0,0.0,0.0,0.0,0.0,0.0,0.0,0.0,0.0,0.0,0.0,0.0,0.0,0.0,0.0,0.0,0.0,0.0,0.0,0.0,0.0,0.0,0.0,-0.8805,-0.8695,-0.8469,-0.8176,-0.8095,-0.8057,0.0,0.0,0.0,0.0,0.0,0.0,0.0,0.0,0.0,0.0,0.0,0.0,0.0,0.0,0.0,0.0,0.0,0.0,0.0,0.0,0.0,0.0,0.0,0.0,0.0,0.0,0.0,0.0,0.0,0.0,0.0,0.0,0.0,0.0,0.0,0.0,0.0,0.0,0.0,0.0,0.0,0.0,0.0,0.0,0.0,0.0,0.0,0.0,0.0,0.0,0.0,0.0,0.0,0.0,0.0,0.0,0.0,0.0,0.0,0.0,0.0,0.0,0.0,0.0,0.0,0.0,0.0,0.0,0.0,0.0,0.0,0.0,0.0,0.0,0.0,0.0,0.0,0.0,0.0,0.0,0.0,0.0,0.0,0.0,0.0,0.0,0.0,0.0,0.0,0.0,0.0,0.0,0.0,0.0,0.0,0.0,0.0,0.0,0.0,0.0,0.0,0.0,0.0,0.0,0.0,0.0,0.0,0.0,0.0,-0.95,-0.9376,-0.9115,-0.8762,-0.8573,-0.8499,-0.8546,0.0,0.0,0.0,0.0,0.0,0.0,0.0,0.0,0.0,0.0,0.0,0.0,0.0,0.0,0.0,0.0,0.0,0.0,0.0,0.0,0.0,0.0,0.0,0.0,0.0,0.0,0.0,0.0,0.0,0.0,0.0,0.0,0.0,0.0,0.0,0.0,0.0,0.0,0.0,0.0,0.0,0.0,0.0,0.0,0.0,0.0,0.0,0.0,0.0,0.0,0.0,0.0,0.0,0.0,0.0,0.0,0.0,0.0,0.0,0.0,0.0,0.0,0.0,0.0,0.0,0.0,0.0,0.0,0.0,0.0,0.0,0.0,0.0,0.0,0.0,0.0,0.0,0.0,0.0,0.0,0.0,0.0,0.0,0.0,0.0,0.0,0.0,0.0,0.0,0.0,0.0,0.0,0.0,0.0,0.0,0.0,0.0,0.0,0.0,0.0,0.0,0.0,0.0,0.0,0.0,0.0,0.0,0.0,-1.0554,-1.0291,-1.0029,-0.9692,-0.9276,-0.9015,0.0,0.0,0.0,0.0,0.0,0.0,0.0,0.0,0.0,0.0,0.0,0.0,0.0,0.0,0.0,0.0,0.0,0.0,0.0,0.0,0.0,0.0,0.0,0.0,0.0,0.0,0.0,0.0,0.0,0.0,0.0,0.0,0.0,0.0,0.0,0.0,0.0,0.0,0.0,0.0,0.0,0.0,0.0,0.0,0.0,0.0,0.0,0.0,0.0,0.0,0.0,0.0,0.0,0.0,0.0,0.0,0.0,0.0,0.0,0.0,0.0,0.0,0.0,0.0,0.0,0.0,0.0,0.0,0.0,0.0,0.0,0.0,0.0,0.0,0.0,0.0,0.0,0.0,0.0,0.0,0.0,0.0,0.0,0.0,0.0,0.0,0.0,0.0,0.0,0.0,0.0,0.0,0.0,0.0,0.0,0.0,0.0,0.0,0.0,0.0,0.0,0.0,0.0,0.0,0.0,0.0,0.0,0.0,0.0,-1.1204,-1.1311,-1.0896,-1.0035,-0.9564,-0.9358,0.0,0.0,0.0,0.0,0.0,0.0,0.0,0.0,0.0,0.0,0.0,0.0,0.0,0.0,0.0,0.0,0.0,0.0,0.0,0.0,0.0,0.0,0.0,0.0,0.0,0.0,0.0,0.0,0.0,0.0,0.0,0.0,0.0,0.0,0.0,0.0,0.0,0.0,0.0,0.0,0.0,0.0,0.0,0.0,0.0,0.0,0.0,0.0,0.0,0.0,0.0,0.0,0.0,0.0,0.0,0.0,0.0,0.0,0.0,0.0,0.0,0.0,0.0,0.0,0.0,0.0,0.0,0.0,0.0,0.0,0.0,0.0,0.0,0.0,0.0,0.0,0.0,0.0,0.0,0.0,0.0,0.0,0.0,0.0,0.0,0.0,0.0,0.0,0.0,0.0,0.0,0.0,0.0,0.0,0.0,0.0,0.0,0.0,0.0,0.0,0.0,0.0,0.0,0.0,0.0,0.0,0.0,0.0,-1.3747,-1.2661,-1.2779,-1.2271,-1.1063,-1.0322,-1.022,0.0,0.0,0.0,0.0,0.0,0.0,0.0,0.0,0.0,0.0,0.0,0.0,0.0,0.0,0.0,0.0,0.0,0.0,0.0,0.0,0.0,0.0,0.0,0.0,0.0,0.0,0.0,0.0,0.0,0.0,0.0,0.0,0.0,0.0,0.0,0.0,0.0,0.0,0.0,0.0,0.0,0.0,0.0,0.0,0.0,0.0,0.0,0.0,0.0,0.0,0.0,0.0,0.0,0.0,0.0,0.0,0.0,0.0,0.0,0.0,0.0,0.0,0.0,0.0,0.0,0.0,0.0,0.0,0.0,0.0,0.0,0.0,0.0,0.0,0.0,0.0,0.0,0.0,0.0,0.0,0.0,0.0,0.0,0.0,0.0,0.0,0.0,0.0,0.0,0.0,0.0,0.0,0.0,0.0,0.0,0.0,0.0,0.0,0.0,0.0,0.0,0.0,0.0,0.0,0.0,0.0,0.0,0.0,-1.5569,-1.4629,-1.4644,-1.4072,-1.2877,-1.1494,-1.124,0.0,0.0,0.0,0.0,0.0,0.0,0.0,0.0,0.0,0.0,0.0,0.0,0.0,0.0,0.0,0.0,0.0,0.0,0.0,0.0,0.0,0.0,0.0,0.0,0.0,0.0,0.0,0.0,0.0,0.0,0.0,0.0,0.0,0.0,0.0,0.0,0.0,0.0,0.0,0.0,0.0,0.0,0.0,0.0,0.0,0.0,0.0,0.0,0.0,0.0,0.0,0.0,0.0,0.0,0.0,0.0,0.0,0.0,0.0,0.0,0.0,0.0,0.0,0.0,0.0,0.0,0.0,0.0,0.0,0.0,0.0,0.0,0.0,0.0,0.0,0.0,0.0,0.0,0.0,0.0,0.0,0.0,0.0,0.0,0.0,0.0,0.0,0.0,0.0,0.0,0.0,0.0,0.0,0.0,0.0,0.0,0.0,0.0,0.0,0.0,0.0,0.0,0.0,0.0,0.0,0.0,0.0,0.0,-1.757,-1.661,-1.6582,-1.6534,-1.6478,-1.2968,-1.1132,0.0,0.0,0.0,0.0,0.0,0.0,0.0,0.0,0.0,0.0,0.0,0.0,0.0,0.0,0.0,0.0,0.0,0.0,0.0,0.0,0.0,0.0,0.0,0.0,0.0,0.0,0.0,0.0,0.0,0.0,0.0,0.0,0.0,0.0,0.0,0.0,0.0,0.0,0.0,0.0,0.0,0.0,0.0,0.0,0.0,0.0,0.0,0.0,-1.0656,0.0,0.0,0.0,0.0,0.0,0.0,0.0,0.0,0.0,0.0,0.0,0.0,0.0,0.0,0.0,0.0,0.0,0.0,0.0,0.0,0.0,0.0,0.0,0.0,0.0,0.0,0.0,0.0,0.0,0.0,0.0,0.0,0.0,0.0,0.0,0.0,0.0,0.0,0.0,0.0,0.0,0.0,0.0,0.0,0.0,0.0,0.0,0.0,0.0,0.0,0.0,0.0,0.0,0.0,0.0,0.0,0.0,0.0,0.0,-1.9326,-1.8465,-1.8496,-1.8305,-1.7636,-1.522,-1.3883,0.0,0.0,0.0,0.0,0.0,0.0,0.0,0.0,0.0,0.0,0.0,0.0,0.0,0.0,0.0,0.0,0.0,0.0,0.0,0.0,0.0,0.0,0.0,0.0,0.0,0.0,0.0,0.0,0.0,0.0,0.0,0.0,0.0,0.0,0.0,0.0,0.0,0.0,0.0,0.0,0.0,0.0,0.0,0.0,0.0,0.0,0.0,0.0,0.0,0.0,0.0,0.0,0.0,0.0,0.0,0.0,0.0,0.0,0.0,0.0,0.0,0.0,0.0,0.0,0.0,0.0,0.0,0.0,0.0,0.0,0.0,0.0,0.0,0.0,0.0,0.0,0.0,0.0,0.0,0.0,0.0,0.0,0.0,0.0,0.0,0.0,0.0,0.0,0.0,0.0,0.0,0.0,0.0,0.0,0.0,0.0,0.0,0.0,0.0,0.0,0.0,0.0,0.0,0.0,0.0,0.0,0.0,-2.0929,-2.0848,-2.0296,-2.0373,-1.9864,-1.8648,-1.7956,-1.7684,-1.7575,0.0,0.0,0.0,0.0,0.0,0.0,0.0,0.0,0.0,0.0,0.0,0.0,0.0,0.0,0.0,0.0,0.0,0.0,0.0,0.0,0.0,0.0,0.0,0.0,0.0,0.0,0.0,0.0,0.0,0.0,0.0,0.0,0.0,0.0,0.0,0.0,0.0,0.0,-1.1805,-1.0999,0.0,0.0,0.0,0.0,0.0,0.0,0.0,0.0,-1.1179,0.0,0.0,0.0,0.0,0.0,0.0,0.0,0.0,0.0,0.0,0.0,0.0,0.0,0.0,0.0,0.0,0.0,0.0,0.0,0.0,0.0,0.0,0.0,0.0,0.0,0.0,0.0,0.0,0.0,0.0,0.0,0.0,0.0,0.0,0.0,0.0,0.0,0.0,0.0,0.0,0.0,0.0,0.0,0.0,0.0,0.0,0.0,0.0,0.0,0.0,0.0,0.0,0.0,0.0,0.0,0.0,-2.0593,-2.1124,-2.1703,-2.2182,-2.2496,-2.2461,-2.2241,-2.1527,-2.0603,-1.948,0.0,0.0,0.0,0.0,0.0,0.0,0.0,0.0,0.0,0.0,0.0,0.0,0.0,0.0,0.0,0.0,0.0,0.0,0.0,0.0,0.0,0.0,0.0,0.0,0.0,0.0,0.0,0.0,0.0,0.0,0.0,0.0,0.0,0.0,0.0,0.0,0.0,0.0,0.0,-1.1432,-1.09,0.0,0.0,0.0,0.0,0.0,0.0,0.0,0.0,-1.1294,0.0,0.0,0.0,0.0,0.0,0.0,0.0,0.0,0.0,0.0,0.0,0.0,0.0,0.0,0.0,0.0,0.0,0.0,0.0,0.0,0.0,0.0,0.0,0.0,0.0,0.0,0.0,0.0,0.0,0.0,0.0,0.0,0.0,0.0,0.0,0.0,0.0,0.0,0.0,0.0,0.0,0.0,0.0,0.0,0.0,0.0,0.0,0.0,0.0,0.0,0.0,0.0,0.0,0.0,0.0,-2.0641,-2.1401,-2.2128,-2.2903,-2.3116,-2.3188,-2.3109,-2.2416,-2.1522,0.0,0.0,0.0,0.0,0.0,0.0,0.0,0.0,0.0,0.0,0.0,0.0,0.0,0.0,0.0,0.0,0.0,0.0,0.0,0.0,0.0,0.0,0.0,0.0,0.0,0.0,0.0,0.0,0.0,0.0,0.0,0.0,0.0,0.0,0.0,0.0,0.0,0.0,0.0,0.0,-1.127,-1.1138,-1.1369,0.0,0.0,0.0,0.0,0.0,0.0,-1.1396,-1.1396,0.0,0.0,0.0,0.0,0.0,0.0,0.0,0.0,0.0,0.0,0.0,0.0,0.0,0.0,0.0,0.0,0.0,0.0,0.0,0.0,0.0,0.0,0.0,0.0,0.0,0.0,0.0,0.0,0.0,0.0,0.0,0.0,0.0,0.0,0.0,0.0,0.0,0.0,0.0,0.0,0.0,0.0,0.0,0.0,0.0,0.0,0.0,0.0,0.0,0.0,0.0,0.0,0.0,0.0,0.0,-2.0735,-2.1462,-2.2247,-2.3084,-2.3369,-2.3369,-2.3121,-2.2661,-2.1691,0.0,0.0,0.0,0.0,0.0,0.0,0.0,0.0,0.0,0.0,0.0,0.0,0.0,0.0,0.0,0.0,0.0,0.0,0.0,0.0,0.0,0.0,0.0,0.0,0.0,0.0,0.0,0.0,0.0,0.0,0.0,0.0,0.0,0.0,0.0,0.0,0.0,0.0,0.0,0.0,0.0,-1.1769,-1.2051,-1.1955,0.0,0.0,0.0,0.0,-1.1742,-1.1626,0.0,0.0,0.0,0.0,0.0,0.0,0.0,0.0,0.0,0.0,0.0,0.0,0.0,0.0,0.0,0.0,0.0,0.0,0.0,0.0,0.0,0.0,0.0,0.0,0.0,0.0,0.0,0.0,0.0,0.0,0.0,0.0,0.0,0.0,0.0,0.0,0.0,0.0,0.0,0.0,0.0,0.0,0.0,0.0,0.0,0.0,0.0,0.0,0.0,0.0,0.0,0.0,0.0,0.0,0.0,0.0,-2.0653,-2.1462,-2.2334,-2.3097,-2.3538,-2.355,-2.3133,-2.283,-2.1873,0.0,0.0,0.0,0.0,0.0,0.0,0.0,0.0,0.0,0.0,0.0,0.0,0.0,0.0,0.0,0.0,0.0,0.0,0.0,0.0,0.0,0.0,0.0,0.0,0.0,0.0,0.0,0.0,0.0,0.0,0.0,0.0,0.0,0.0,0.0,0.0,0.0,0.0,0.0,0.0,0.0,-1.3531,-1.3809,-1.294,-1.223,0.0,0.0,-1.2332,-1.223,-1.2081,0.0,0.0,0.0,0.0,0.0,0.0,0.0,0.0,0.0,0.0,0.0,0.0,0.0,0.0,0.0,0.0,0.0,0.0,0.0,0.0,0.0,0.0,0.0,0.0,0.0,0.0,0.0,0.0,0.0,0.0,0.0,0.0,0.0,0.0,0.0,0.0,0.0,0.0,0.0,0.0,0.0,0.0,0.0,0.0,0.0,0.0,0.0,0.0,0.0,0.0,0.0,0.0,0.0,0.0,0.0,-2.005,-2.0747,-2.1752,-2.2633,-2.3261,-2.3647,-2.3731,-2.3502,-2.2947,-2.22,0.0,0.0,0.0,0.0,0.0,0.0,0.0,0.0,0.0,0.0,0.0,0.0,0.0,0.0,0.0,0.0,0.0,0.0,0.0,0.0,0.0,0.0,0.0,0.0,0.0,0.0,0.0,0.0,0.0,0.0,0.0,0.0,0.0,0.0,0.0,0.0,0.0,0.0,0.0,0.0,0.0,0.0,-1.5671,-1.4757,0.0,0.0,0.0,-1.3697,-1.2477,0.0,0.0,0.0,0.0,0.0,0.0,0.0,0.0,0.0,0.0,0.0,0.0,0.0,0.0,0.0,0.0,0.0,0.0,0.0,0.0,0.0,0.0,0.0,0.0,0.0,0.0,0.0,0.0,0.0,0.0,0.0,0.0,0.0,0.0,0.0,0.0,0.0,0.0,0.0,0.0,0.0,0.0,0.0,0.0,0.0,0.0,0.0,0.0,0.0,0.0,0.0,0.0,0.0,0.0,0.0,0.0,0.0,-2.0856,-2.2079,-2.2947,-2.3447,-2.3724,-2.3832,-2.3748,-2.3261,0.0,0.0,0.0,0.0,0.0,0.0,0.0,0.0,0.0,0.0,0.0,0.0,0.0,0.0,0.0,0.0,0.0,0.0,0.0,0.0,0.0,0.0,0.0,0.0,0.0,0.0,0.0,-1.7648,0.0,0.0,0.0,0.0,0.0,0.0,0.0,0.0,0.0,0.0,0.0,0.0,0.0,0.0,-1.6194,-1.7628,-1.6463,-1.542,0.0,0.0,-1.4319,-1.293,-1.2608,-1.2512,0.0,0.0,0.0,0.0,0.0,0.0,0.0,0.0,0.0,0.0,0.0,0.0,0.0,0.0,0.0,0.0,0.0,0.0,0.0,0.0,0.0,0.0,0.0,0.0,0.0,0.0,0.0,0.0,0.0,0.0,0.0,0.0,0.0,0.0,0.0,0.0,0.0,0.0,0.0,0.0,0.0,0.0,0.0,0.0,0.0,0.0,0.0,0.0,0.0,0.0,0.0,0.0,0.0,0.0,-2.0533,-2.111,-2.2176,-2.3043,-2.3792,-2.4069,-2.4094,-2.3772,-2.3712,-2.3164,0.0,0.0,0.0,0.0,0.0,0.0,0.0,0.0,0.0,0.0,0.0,0.0,0.0,0.0,0.0,0.0,0.0,0.0,0.0,0.0,0.0,0.0,0.0,0.0,0.0,0.0,0.0,0.0,0.0,0.0,0.0,0.0,0.0,0.0,0.0,0.0,0.0,0.0,0.0,0.0,0.0,-1.8906,-1.9575,-1.741,-1.5796,0.0,-1.443,-1.3376,-1.3686,-1.3518,-1.3326,-1.3312,0.0,0.0,0.0,0.0,0.0,0.0,0.0,0.0,0.0,0.0,0.0,0.0,0.0,0.0,0.0,0.0,0.0,0.0,0.0,0.0,0.0,0.0,0.0,0.0,0.0,0.0,0.0,0.0,0.0,0.0,0.0,0.0,0.0,0.0,0.0,0.0,0.0,0.0,0.0,0.0,0.0,0.0,0.0,0.0,0.0,0.0,0.0,0.0,0.0,0.0,0.0,0.0,0.0,-2.0943,-2.1401,-2.2524,-2.3454,-2.4057,-2.4347,-2.4516,-2.4506,-2.4025,-2.3526,0.0,0.0,0.0,0.0,0.0,0.0,0.0,0.0,0.0,0.0,0.0,0.0,0.0,0.0,0.0,0.0,0.0,0.0,0.0,0.0,0.0,0.0,0.0,0.0,0.0,0.0,0.0,0.0,-1.865,-1.865,-1.8336,0.0,0.0,0.0,0.0,0.0,0.0,0.0,0.0,0.0,0.0,-2.0516,-2.2007,-2.0608,0.0,0.0,-1.8494,-1.6999,-1.5998,-1.4754,-1.3901,-1.3901,-1.3867,0.0,0.0,0.0,0.0,0.0,0.0,0.0,0.0,0.0,0.0,0.0,0.0,0.0,0.0,0.0,0.0,0.0,0.0,0.0,0.0,0.0,0.0,0.0,0.0,0.0,0.0,0.0,0.0,0.0,0.0,0.0,0.0,0.0,0.0,0.0,0.0,0.0,0.0,0.0,0.0,0.0,0.0,0.0,0.0,0.0,0.0,0.0,0.0,0.0,0.0,0.0,0.0,-2.1483,-2.1934,-2.2862,-2.3664,-2.4335,-2.4528,-2.4758,-2.5011,-2.4265,-2.376,-2.3495,0.0,0.0,0.0,0.0,0.0,0.0,0.0,0.0,0.0,0.0,0.0,0.0,0.0,0.0,0.0,0.0,0.0,0.0,0.0,0.0,0.0,0.0,0.0,0.0,0.0,0.0,0.0,-1.906,-1.9048,-1.8686,0.0,0.0,0.0,0.0,0.0,0.0,0.0,0.0,0.0,0.0,-2.2125,-2.3761,-2.2808,-2.1986,-2.2396,-2.1103,-1.9622,-1.8422,-1.673,-1.5553,-1.5497,0.0,0.0,0.0,0.0,0.0,0.0,0.0,0.0,0.0,0.0,0.0,0.0,0.0,0.0,0.0,0.0,0.0,0.0,0.0,0.0,0.0,0.0,0.0,0.0,0.0,0.0,0.0,-1.7944,0.0,0.0,-1.8451,0.0,0.0,0.0,0.0,0.0,0.0,0.0,0.0,0.0,0.0,0.0,0.0,0.0,0.0,0.0,0.0,0.0,0.0,0.0,0.0,0.0,0.0,-2.2038,-2.2843,-2.33,-2.384,-2.4576,-2.4625,-2.4674,-2.4927,-2.4434,-2.4106,-2.3748,0.0,0.0,0.0,0.0,0.0,0.0,0.0,0.0,0.0,0.0,0.0,0.0,0.0,0.0,0.0,0.0,0.0,0.0,0.0,0.0,0.0,0.0,0.0,0.0,0.0,0.0,-1.836,-1.9,-1.9446,0.0,0.0,0.0,0.0,0.0,0.0,0.0,0.0,0.0,-2.3079,-2.3476,-2.3915,-2.4568,-2.3464,-2.2591,-2.2602,-2.1323,-2.0467,-2.0868,-1.9634,-1.8559,0.0,0.0,0.0,0.0,0.0,0.0,0.0,0.0,0.0,0.0,0.0,0.0,0.0,0.0,0.0,0.0,0.0,0.0,0.0,0.0,0.0,0.0,0.0,0.0,0.0,0.0,0.0,-1.8834,-1.8936,0.0,0.0,0.0,0.0,0.0,0.0,0.0,0.0,0.0,0.0,0.0,-2.2752,-2.3527,0.0,0.0,0.0,0.0,0.0,0.0,0.0,0.0,0.0,0.0,0.0,0.0,-2.329,-2.4111,-2.4306,-2.4596,-2.5038,-2.4901,-2.4771,-2.477,-2.4589,-2.4205,-2.3852,0.0,0.0,0.0,0.0,0.0,0.0,0.0,0.0,0.0,0.0,0.0,0.0,0.0,0.0,0.0,0.0,0.0,0.0,0.0,0.0,0.0,0.0,0.0,0.0,0.0,-1.8891,0.0,0.0,0.0,0.0,0.0,0.0,0.0,0.0,0.0,0.0,-2.1701,-2.2633,-2.3438,-2.4397,-2.5155,-2.5644,-2.5473,-2.5313,0.0,0.0,0.0,0.0,0.0,0.0,0.0,0.0,0.0,0.0,0.0,0.0,0.0,-1.5951,-1.591,-1.5496,-1.5268,-1.522,-1.5455,0.0,0.0,0.0,0.0,0.0,0.0,0.0,0.0,0.0,0.0,0.0,0.0,0.0,0.0,-2.0296,-2.0331,-2.0799,0.0,0.0,0.0,0.0,0.0,0.0,0.0,0.0,-2.3915,-2.4088,-2.3821,-2.4489,-2.4502,-2.4026,-2.3941,-2.3634,0.0,0.0,0.0,0.0,0.0,0.0,0.0,0.0,-2.4239,-2.5139,-2.4987,-2.5106,-2.5532,-2.5068,-2.4818,-2.4802,-2.4707,-2.4383,-2.3772,-2.3345,-2.2899,0.0,0.0,0.0,0.0,0.0,0.0,0.0,0.0,0.0,0.0,0.0,0.0,0.0,0.0,0.0,0.0,0.0,0.0,0.0,0.0,0.0,0.0,0.0,-1.9839,0.0,0.0,0.0,0.0,0.0,0.0,0.0,0.0,0.0,-2.164,-2.2399,-2.3392,-2.4326,-2.5209,-2.598,-2.6475,0.0,0.0,0.0,0.0,0.0,0.0,0.0,-2.2141,-2.04,-1.9352,-1.8229,-1.6618,-1.6357,-1.6357,-1.6235,0.0,0.0,-1.5959,-1.5788,-1.5756,-1.5926,-1.5918,-1.5886,-1.5886,-1.6016,-1.617,0.0,0.0,0.0,0.0,-1.9759,0.0,0.0,0.0,-2.1314,-2.1734,0.0,-2.2398,0.0,0.0,0.0,0.0,-2.2525,-2.3367,0.0,0.0,-2.5504,-2.5798,-2.5558,-2.5825,-2.605,-2.601,-2.5384,-2.5117,-2.5037,-2.3981,-2.3554,0.0,0.0,0.0,0.0,0.0,-2.5008,-2.5858,-2.5274,-2.5282,-2.5956,-2.512,-2.4778,-2.519,-2.4848,-2.4277,-2.3888,-2.376,-2.3599,-2.3145,-2.2152,0.0,0.0,0.0,0.0,0.0,0.0,0.0,0.0,0.0,0.0,0.0,0.0,0.0,0.0,0.0,0.0,0.0,0.0,0.0,0.0,-2.0388,0.0,0.0,0.0,0.0,0.0,0.0,0.0,0.0,0.0,-2.2843,-2.2607,-2.303,-2.3959,-2.5543,0.0,0.0,0.0,0.0,-2.7295,-2.7308,-2.7535,-2.7709,-2.7696,-2.6386,-2.4658,-2.2649,0.0,0.0,-1.6726,-1.6487,-1.6511,-1.6154,-1.6267,-1.6397,-1.656,-1.6535,-1.6479,-1.6357,-1.6438,-1.656,-1.656,-1.6414,-1.643,-1.9559,0.0,0.0,0.0,0.0,-2.0696,-2.1258,-2.1063,-2.2827,-2.3676,-2.3806,-2.3951,0.0,0.0,0.0,0.0,0.0,0.0,-2.4703,-2.5277,-2.5745,-2.6026,-2.6146,-2.644,-2.6466,-2.6266,-2.6306,-2.6213,-2.6012,-2.5892,-2.5344,-2.4409,0.0,0.0,0.0,0.0,-2.6281,-2.7091,-2.6479,-2.6057,-2.5969,-2.5193,-2.4674,-2.4511,-2.4247,-2.4082,-2.4118,-2.3949,-2.3683,-2.3345,-2.3043,0.0,0.0,0.0,0.0,0.0,0.0,0.0,0.0,0.0,0.0,0.0,0.0,0.0,0.0,0.0,0.0,0.0,0.0,0.0,-2.0678,-2.1209,-2.1583,0.0,0.0,0.0,0.0,0.0,0.0,0.0,0.0,0.0,-2.4136,-2.4546,-2.5011,0.0,0.0,-2.7317,-2.7562,-2.7749,-2.798,-2.7966,-2.8047,0.0,-2.7722,-2.6234,-2.4481,-2.2542,-1.9771,-1.76,-1.6979,-1.7031,-1.708,-1.6844,-1.6958,-1.7055,-1.695,-1.6633,-1.6487,-1.6633,-1.6641,-1.6584,-1.6584,-1.6633,-1.6636,-2.1644,-2.1583,-2.0935,-2.0619,-2.0734,-2.2301,-2.2818,-2.2709,-2.4278,-2.506,-2.5047,-2.5259,-2.502,-2.4503,-2.4522,0.0,0.0,0.0,-2.5651,-2.6213,-2.6386,-2.6573,-2.6734,-2.6907,-2.6907,-2.6747,-2.68,-2.68,-2.6734,-2.6787,-2.644,-2.5705,0.0,-2.5972,-2.6547,-2.668,-2.6987,-2.7495,-2.6964,-2.6492,-2.6281,-2.5592,-2.505,-2.4566,-2.4356,-2.4275,-2.4324,-2.4211,-2.3904,-2.3544,-2.3435,-2.3116,0.0,0.0,0.0,0.0,0.0,0.0,0.0,0.0,0.0,0.0,0.0,-1.9096,-1.8939,0.0,0.0,0.0,-2.1868,-2.2003,-2.1801,-2.1897,0.0,0.0,0.0,0.0,0.0,0.0,0.0,-2.2794,-2.3555,-2.4329,-2.5048,-2.557,-2.6083,-2.6373,-2.7131,-2.7736,-2.7856,0.0,-2.8274,-2.831,-2.8323,-2.831,-2.8243,-2.7271,-2.5726,-2.3042,-2.0385,-1.816,-1.7322,-1.7315,-1.7315,-1.7177,-1.7201,-1.7242,-1.7128,-1.6893,-1.6763,-1.6917,-1.6868,-1.6812,-1.6885,-1.699,-1.708,-2.3491,-2.3056,-2.1627,-2.1925,-2.3519,-2.4162,-2.4621,-2.5037,-2.5594,-2.5845,-2.5937,-2.6268,-2.6293,-2.6039,-2.5785,0.0,-2.6466,-2.648,-2.6774,-2.7295,-2.7403,-2.7417,-2.7335,-2.7335,-2.7335,-2.7335,-2.7054,-2.7054,-2.7268,-2.7054,-2.7054,-2.7295,-2.7321,-2.7188,-2.6921,-2.7148,-2.7295,-2.7335,-2.6885,-2.6741,-2.6773,-2.6121,-2.5592,-2.5206,-2.5019,-2.4858,-2.4554,-2.4592,-2.4371,-2.382,-2.3568,-2.3393,-2.3181,0.0,0.0,0.0,0.0,0.0,0.0,0.0,0.0,0.0,0.0,0.0,0.0,0.0,0.0,-2.3897,-2.4639,0.0,-2.3,-2.2654,0.0,0.0,0.0,-2.2261,-2.2745,-2.3086,-2.3403,-2.3479,0.0,0.0,-2.5505,-2.6308,-2.7001,-2.7295,-2.7562,-2.7843,-2.8221,-2.8274,-2.8297,-2.8591,-2.8644,-2.8738,-2.8825,-2.8604,-2.7097,-2.3488,-2.1681,-1.9832,-1.7942,-1.7478,-1.7388,-1.7242,-1.7177,-1.7177,-1.7161,-1.7283,-1.7356,-1.7185,-1.7153,-1.7201,-1.7348,-1.7388,-1.7429,-2.3977,-2.4123,-2.4066,-2.3236,-2.2211,-2.4271,-2.4538,-2.3792,-2.5502,-2.6348,-2.656,-2.664,-2.68,-2.6947,-2.6881,-2.6921,-2.7068,-2.7295,-2.7455,-2.7602,-2.7829,-2.802,-2.802,-2.802,-2.802,-2.8006,-2.7953,-2.7749,-2.7615,-2.7749,-2.7749,-2.7615,-2.7816,-2.7789,-2.7495,-2.7348,-2.7495,-2.8006,-2.7413,-2.6983,-2.6659,-2.6199,-2.5929,-2.5766,-2.5545,-2.52,-2.4802,-2.4844,-2.46,-2.4154,-2.4082,-2.3925,-2.3671,-2.3285,0.0,0.0,0.0,0.0,0.0,0.0,0.0,0.0,0.0,-2.1003,-2.0868,0.0,-2.4486,0.0,-2.5674,-2.587,-2.456,-2.437,0.0,0.0,-2.3152,-2.3283,-2.3704,-2.3872,-2.4183,-2.4817,-2.5348,-2.5977,-2.6733,-2.7186,-2.7602,-2.798,-2.8073,-2.815,-2.8444,-2.8497,-2.8591,-2.8871,-2.8938,-2.8965,-2.8958,-2.7797,-2.5837,-2.1961,-2.1086,-2.0125,-1.8333,-1.7989,-1.7932,-1.777,-1.7721,-1.7672,-1.7526,-1.7551,-1.7567,-1.7526,-1.7518,-1.7526,-1.7575,-1.7583,-1.7591,-2.4758,-2.5092,-2.577,-2.5223,-2.3832,-2.5214,-2.5347,-2.4694,-2.6029,-2.6667,-2.6841,-2.7094,-2.7308,-2.7468,-2.7602,-2.7738,-2.7752,-2.7899,-2.7896,-2.7909,-2.807,-2.8234,-2.8234,-2.8234,-2.8234,-2.8234,-2.8234,-2.8123,-2.811,-2.827,-2.8323,-2.8297,-2.8457,-2.8404,-2.8096,-2.7802,-2.7899,-2.8221,-2.7645,-2.7186,-2.6928,-2.6695,-2.6744,-2.6978,-2.6354,-2.6036,-2.5918,-2.5432,-2.5032,-2.4735,-2.4543,-2.4389,-2.419,-2.3856,-2.3736,0.0,0.0,0.0,0.0,0.0,0.0,0.0,0.0,0.0,0.0,0.0,-2.6391,-2.6057,-2.6831,-2.674,-2.5286,-2.4555,-2.401,-2.3548,-2.3507,-2.379,-2.4372,-2.4721,-2.5084,-2.5687,-2.6201,-2.6705,-2.7402,-2.7709,-2.8003,-2.831,-2.8457,-2.8551,-2.8604,-2.8711,-2.8911,-2.9179,-2.9232,-2.9285,-2.9406,-2.8728,-2.6851,-2.3329,-2.2454,-2.1554,-1.8727,-1.8111,-1.8005,-1.7835,-1.7794,-1.777,-1.7574,-1.7713,-1.7778,-1.7867,-1.7949,-1.7908,-1.7697,-1.7705,-1.7762,-2.5613,-2.5707,-2.6754,-2.7009,-2.6643,-2.6547,-2.6507,-2.652,-2.676,-2.6894,-2.6974,-2.7522,-2.7749,-2.7776,-2.803,-2.8248,-2.8288,-2.8288,-2.8301,-2.8257,-2.8341,-2.8341,-2.8341,-2.8341,-2.8341,-2.8341,-2.8257,-2.8404,-2.8657,-2.8671,-2.8791,-2.8945,-2.8918,-2.8871,-2.8657,-2.8323,-2.8207,-2.8167,-2.7655,-2.7442,-2.7442,-2.7442,-2.7765,-2.815,-2.7284,-2.6865,-2.703,-2.6208,-2.5608,-2.5388,-2.5106,-2.4881,-2.462,-2.445,-2.43,0.0,-2.4215,0.0,0.0,0.0,0.0,0.0,0.0,0.0,0.0,-2.7732,-2.8175,-2.8401,-2.8507,-2.774,-2.59,-2.4611,-2.3813,-2.3888,-2.3888,-2.4233,-2.4982,-2.5555,-2.6054,-2.6329,-2.7025,-2.7482,-2.7789,-2.807,-2.8364,-2.8631,-2.8898,-2.8991,-2.8804,-2.8951,-2.9205,-2.9499,-2.9579,-2.97,-2.9927,-3.0207,-2.8894,-2.537,-2.4295,-2.3045,-1.8981,-1.8079,-1.7916,-1.7802,-1.7802,-1.7786,-1.777,-1.7932,-1.807,-1.8217,-1.8355,-1.8322,-1.7965,-1.7949,-1.8014,-2.5552,-2.5975,-2.6492,-2.6928,-2.7173,-2.7148,-2.7108,-2.7108,-2.7161,-2.7308,-2.7549,-2.7909,-2.814,-2.814,-2.8207,-2.8283,-2.8511,-2.8524,-2.8644,-2.8871,-2.8871,-2.8871,-2.8871,-2.8871,-2.8871,-2.8871,-2.8871,-2.8898,-2.8951,-2.8951,-2.8978,-2.9032,-2.8804,-2.8778,-2.8911,0.0,0.0,0.0,-2.8163,-2.835,-2.835,-2.835,-2.8404,-2.8511,-2.7852,0.0,-2.7127,-2.6635,-2.6118,-2.5557,-2.5506,0.0,-2.4714,0.0,0.0,0.0,0.0,0.0,0.0,0.0,0.0,0.0,-3.015,-3.0598,-2.8089,-2.9259,-3.0787,-3.2077,-3.1959,-3.0692,-2.8013,-2.7812,-2.7037,-2.4992,-2.4974,-2.5477,-2.6151,-2.6405,-2.6712,-2.733,-2.7789,-2.8096,-2.839,-2.8698,-2.8885,-2.8951,-2.9205,-2.9366,-2.9325,-2.9366,-2.9499,-2.9793,-3.0007,-3.0181,-3.0261,-3.0501,-2.9174,-2.5791,-2.4621,-2.292,-1.933,-1.8257,-1.8192,-1.8249,-1.8298,-1.8338,-1.8468,-1.855,-1.855,-1.8606,-1.8647,-1.8647,-1.8541,-1.8541,-1.8574,-2.6408,-2.6835,-2.7214,-2.7529,0.0,-2.7779,-2.7779,-2.7669,-2.7388,-2.7348,-2.7509,-2.7789,-2.7923,-2.7923,-2.8167,-2.8315,-2.8377,-2.8377,-2.8457,-2.8591,-2.8591,-2.8604,-2.8604,-2.8591,-2.8591,-2.8591,-2.8591,-2.8671,-2.8818,-2.8831,-2.8898,-2.8958,-2.8898,-2.8818,-2.8804,-2.8377,-2.8154,-2.7923,-2.823,-2.8377,-2.8377,-2.823,-2.8297,-2.8577,-2.7883,0.0,0.0,0.0,0.0,0.0,0.0,0.0,0.0,-2.5333,-2.5577,-2.6201,-2.7035,-2.743,-2.7278,-3.0053,-3.1385,-3.0278,-3.2459,-3.2844,-3.0463,-3.1365,-3.2342,-3.3197,-3.2868,-3.1658,-2.9371,-2.8842,-2.7866,-2.5989,-2.5728,-2.6141,-2.7109,-2.7231,-2.746,-2.8172,-2.8497,-2.8657,-2.8804,-2.9085,-2.9245,-2.9272,-2.9513,-2.97,-2.97,-2.97,-2.9793,-3.0087,-3.0247,-3.0354,-3.029,-2.9663,-2.8365,-2.5351,-2.3832,-2.1961,-1.9154,-1.8509,-1.8476,-1.8574,-1.859,-1.8623,-1.8696,-1.8728,-1.8753,-1.8826,-1.885,-1.8891,-1.8948,-1.885,-1.8728,-2.7412,-2.7799,-2.8123,-2.8341,-2.8297,-2.8297,-2.8297,-2.8257,-2.7765,0.0,0.0,-2.7669,-2.7776,-2.7802,-2.8114,-2.8261,-2.8217,-2.8315,-2.8341,-2.8297,-2.8297,-2.8382,-2.8297,-2.831,-2.8297,-2.8297,-2.8297,-2.8457,-2.8751,-2.8764,-2.8911,-2.9165,-2.9098,-2.8871,-2.8524,-2.8355,-2.8234,-2.8234,-2.8288,-2.8288,-2.8221,-2.7909,-2.7989,-2.8444,-2.7682,-2.7375,-2.7602,-2.7161,-2.6987,-2.7093,-2.688,-2.6719,-2.6745,-2.6546,-2.6547,-2.6892,-2.8174,-2.8977,-2.8898,-3.1681,-3.3212,-3.2676,-3.4296,-3.4676,-3.3241,-3.346,-3.3719,-3.377,-3.3271,-3.2197,-3.0359,-2.9304,-2.8221,-2.6938,-2.6368,-2.673,-2.803,-2.8016,-2.8163,-2.8871,-2.9058,-2.9112,-2.9125,-2.9379,-2.9566,-2.9593,-2.9753,-2.9953,-2.998,-2.9993,-3.0074,-3.0287,-3.0408,-3.0356,-2.9821,-2.8926,-2.6923,-2.4332,-2.271,-2.1087,-1.9426,-1.8744,-1.8736,-1.8761,-1.8769,-1.8793,-1.8818,-1.8842,-1.8866,-1.9004,-1.9037,-1.9077,-1.9191,-1.9029,-1.885,-2.765,-2.7958,-2.8353,-2.8684,-2.8911,-2.8911,-2.8911,-2.8858,-2.8283,-2.81,-2.8114,-2.8154,-2.8167,-2.8083,-2.8207,-2.8283,-2.8537,-2.8537,-2.8671,-2.8911,-2.8911,-2.8911,-2.8911,-2.8911,-2.8911,-2.8911,-2.8911,-2.9072,-2.9339,-2.9339,-2.9513,-2.9686,-2.9285,-2.8764,-2.8257,-2.8248,-2.8234,-2.8234,-2.8404,-2.8417,-2.8234,-2.8194,-2.7989,-2.7816,-2.7537,-2.7281,-2.7321,-2.7323,-2.7743,-2.8856,-2.8892,-2.9262,-3.013,-3.0084,-3.064,-3.1581,-3.1977,-3.2142,-3.2067,-3.3816,-3.49,-3.5146,-3.5728,-3.5681,-3.4879,-3.5069,-3.544,-3.5722,-3.507,-3.371,-3.1579,-3.0923,-2.9785,-2.7772,-2.7376,-2.7706,-2.847,-2.8484,-2.8604,-2.9032,-2.9272,-2.9432,-2.9472,-2.9686,-2.986,-2.986,-2.9927,-3.0007,-3.0207,-3.0287,-3.0314,-3.0381,-3.0581,-3.0044,-2.8976,-2.8099,-2.6291,-2.2988,-2.2097,-2.0969,-1.9287,-1.8842,-1.8818,-1.8923,-1.8948,-1.9004,-1.9126,-1.9183,-1.9167,-1.9199,-1.9199,-1.9224,-1.9256,-1.9191,-1.9159,-2.8366,-2.8485,-2.8745,-2.8911,-2.8958,-2.8958,-2.8958,-2.9018,-2.8751,-2.8631,-2.8604,-2.8457,-2.839,-2.8377,-2.8301,-2.8301,-2.835,-2.835,-2.843,-2.8551,-2.8551,-2.8551,-2.8551,-2.8551,-2.8551,-2.8551,-2.8551,-2.8617,-2.8851,-2.8925,-2.9072,-2.9192,-2.9085,-2.8898,-2.8644,-2.8631,-2.8551,-2.839,-2.8203,-2.8043,-2.798,-2.8482,-2.8723,-2.8582,-2.9312,-2.9798,-2.9798,-3.004,-3.0375,-3.102,-3.1005,-3.126,-3.1743,-3.1788,-3.2114,-3.2857,-3.3795,-3.4265,-3.4171,-3.5493,-3.6421,-3.662,-3.6981,-3.7053,-3.6692,-3.6236,-3.6,-3.616,-3.6172,-3.5444,-3.3467,-3.2587,-3.1457,-2.9719,-2.8329,-2.7923,-2.8818,-2.8764,-2.8845,-2.9419,-2.978,-2.9953,-2.9953,-3.0074,-3.0154,-3.0154,-3.0154,-3.0221,-3.0354,-3.0635,-3.0768,-3.0648,-3.0702,-3.0412,-2.9282,-2.74,-2.5577,-2.3517,-2.1543,-2.0123,-1.9077,-1.8964,-1.9045,-1.911,-1.9134,-1.9159,-1.9256,-1.9264,-1.9264,-1.9264,-1.9264,-1.9264,-1.9264,-1.9264,-1.9264,-2.9072,-2.9138,-2.9138,-2.9179,-2.9232,-2.9232,-2.9232,-2.9232,-2.9245,-2.9232,-2.9192,-2.8871,-2.8711,-2.8671,-2.8457,-2.835,-2.8435,-2.835,-2.835,-2.835,-2.8337,-2.835,-2.835,-2.835,-2.835,-2.835,-2.8337,-2.8462,-2.847,-2.8684,-2.8804,-2.8831,-2.9032,-2.9098,-2.8958,-2.8958,-2.8925,-2.8684,-2.8517,-2.833,-2.8345,-2.9082,-2.9674,-3.0062,-3.1339,-3.2045,-3.2061,-3.23,-3.2665,-3.2997,-3.306,-3.3218,-3.3628,-3.3611,-3.3743,-3.4087,-3.5316,-3.6131,-3.6201,-3.7072,-3.7704,-3.7704,-3.7979,-3.8181,-3.8158,-3.7379,-3.6809,-3.6898,-3.724,-3.6755,-3.4889,-3.3548,-3.2375,-3.0875,-2.8938,-2.8221,-2.9205,-2.9125,-2.9165,-2.99,-3.0274,-3.0448,-3.0448,-3.0394,-3.0314,-3.0247,-3.0314,-3.0381,-3.0501,-3.0915,-3.1076,-3.0889,-3.0795,-3.007,-2.9376,-2.6805,-2.4448,-2.3499,-2.0882,-1.9442,-1.9053,-1.9175,-1.924,-1.9248,-1.9248,-1.9248,-1.9256,-1.9264,-1.9264,-1.9264,-1.9264,-1.9264,-1.9264,-1.9264,-1.9264,-2.9205,-2.9432,-2.9446,-2.9593,-2.9806,-2.982,-2.9806,-2.9806,-2.9833,-2.9833,-2.974,-2.9245,-2.9005,-2.8991,-2.8951,-2.8925,-2.8925,-2.8951,-2.8938,-2.8925,-2.8951,-2.8951,-2.8925,-2.8938,-2.8951,-2.8938,-2.8925,-2.9032,-2.9245,-2.9339,-2.9392,-2.9406,-2.9432,-2.9312,-2.9085,-2.9058,-2.9032,-2.8991,-3.0001,-3.035,-3.0074,-3.0165,-3.0866,-3.2158,-3.238,-3.2459,-3.2633,-3.2491,-3.3234,-3.4569,-3.4759,-3.5461,-3.6736,-3.6873,-3.6909,-3.6963,-3.7426,-3.7928,-3.8195,-3.839,-3.8414,-3.8451,-3.8469,-3.8731,-3.9043,-3.8688,-3.8536,-3.8718,-3.8359,-3.6984,-3.468,-3.3558,-3.2,-2.9965,-2.8928,-2.8751,-2.9379,-2.9673,-2.994,-3.0274,-3.0581,-3.0755,-3.0728,-3.0555,-3.0287,-3.0087,-3.0274,-3.0501,-3.0742,-3.1036,-3.1156,-3.0902,-3.0795,-2.917,-2.6643,-2.5004,-2.3152,-2.057,-1.9425,-1.9053,-1.9167,-1.9224,-1.9264,-1.9264,-1.9264,-1.9264,-1.9264,-1.9264,-1.9264,-1.9264,-1.9264,-1.9264,-1.9264,-1.9264,-1.9264,-2.9633,-2.974,-2.974,-2.9806,-2.9913,-2.9913,-2.9913,-2.9913,-2.9913,-2.9913,-2.9873,-2.9472,-2.9299,-2.9299,-2.9125,-2.8958,-2.8958,-2.8958,-2.8958,-2.8958,-2.8958,-2.8958,-2.8958,-2.8958,-2.8958,-2.8958,-2.8958,-2.9098,-2.9232,-2.9406,-2.9566,-2.9726,-2.974,-3.0192,-3.1113,-3.1187,-3.1612,-3.2535,-3.3035,-3.3657,-3.4159,-3.3548,-3.3381,-3.4054,-3.5087,-3.5774,-3.5792,-3.6,-3.6456,-3.7088,-3.7106,-3.742,-3.8066,-3.8066,-3.8144,-3.8066,-3.8213,-3.8456,-3.8621,-3.864,-3.867,-3.897,-3.8908,-3.9153,-3.9557,-3.9667,-3.9795,-3.9832,-3.9226,-3.7828,-3.5841,-3.4518,-3.2991,-3.1123,-2.9863,-2.9352,-2.9927,-3.01,-3.0287,-3.0581,-3.0875,-3.1049,-3.1009,-3.0795,-3.0515,-3.0287,-3.0434,-3.0715,-3.1009,-3.1303,-3.1343,-3.0942,-3.0091,-2.8514,-2.634,-2.4177,-2.2422,-2.0966,-1.9852,-1.929,-1.9224,-1.9264,-1.9264,-1.9264,-1.9272,-1.9272,-1.9264,-1.9264,-1.9264,-1.9281,-1.9264,-1.9264,-1.9264,-1.9264,-1.9264,-2.9913,-2.9913,-2.9913,-2.9913,-2.9913,-2.9913,-2.9913,-2.9913,-2.9913,-2.9913,-2.9887,-2.9606,-2.9486,-2.9446,-2.9165,-2.8958,-2.8958,-2.9125,-2.9112,-2.9072,-2.9205,-2.9158,-2.9179,-2.9259,-2.9285,-2.9285,-2.9299,-2.9285,-2.9299,-2.9486,-2.9966,-3.0588,-3.0691,-3.1657,-3.3307,-3.3468,-3.3975,-3.5027,-3.5531,-3.6288,-3.7076,-3.6696,-3.6325,-3.65,-3.7607,-3.8346,-3.8346,-3.864,-3.867,-3.8579,-3.864,-3.864,-3.864,-3.864,-3.864,-3.864,-3.864,-3.8615,-3.8707,-3.8725,-3.897,-3.9336,-3.9392,-3.9575,-3.996,-4.029,-4.051,-4.0584,-3.9658,-3.8147,-3.6408,-3.4842,-3.3244,-3.1842,-3.0479,-3.0034,-3.0408,-3.0528,-3.0688,-3.0902,-3.1169,-3.1263,-3.1129,-3.0969,-3.0782,-3.0448,-3.0662,-3.0969,-3.1209,-3.145,-3.1557,-3.1102,-2.9073,-2.7334,-2.6491,-2.4093,-2.2143,-2.1004,-1.9863,-1.924,-1.9264,-1.9264,-1.9264,-1.9264,-1.9289,-1.9337,-1.9378,-1.9362,-1.9402,-1.9402,-1.9402,-1.9402,-1.9451,-1.9419,-1.941,-2.9913,-2.9927,-2.9927,-2.9953,-2.9927,-2.994,-2.9927,-2.998,-2.994,-2.994,-2.9927,-2.9646,-2.9499,-2.9486,-2.9205,-2.8958,-2.9072,-2.9299,-2.9285,-2.9138,-2.9579,-2.9713,-2.9499,-2.974,-2.986,-2.9793,-2.9793,-2.9896,-2.9923,-2.9949,-3.0767,-3.2514,-3.2602,-3.3483,-3.513,-3.5407,-3.5478,-3.5918,-3.7045,-3.7707,-3.7891,-3.9002,-3.9485,-3.9467,-3.9274,-3.9135,-3.9171,-3.919,-3.9043,-3.8658,-3.8676,-3.8658,-3.864,-3.864,-3.864,-3.8658,-3.8658,-3.8823,-3.9153,-3.9208,-3.9373,-3.9821,-3.9813,-4.0079,-4.0382,-4.0492,-4.0675,-4.1005,-3.931,-3.7434,-3.5902,-3.4063,-3.2232,-3.0881,-3.0724,-3.0702,-3.0755,-3.0996,-3.1156,-3.1236,-3.1436,-3.1396,-3.0942,-3.1049,-3.0915,-3.0675,-3.0862,-3.1209,-3.1289,-3.1503,-3.1517,-3.0629,-2.8355,-2.5549,-2.5035,-2.3069,-2.1137,-2.0247,-1.9742,-1.9305,-1.9272,-1.9264,-1.9272,-1.9305,-1.9394,-1.9467,-1.9524,-1.9597,-1.9678,-1.9703,-1.9687,-1.9687,-1.9638,-1.9727,-1.9711,-3.0314,-3.0474,-3.0474,-3.0474,-3.0474,-3.0474,-3.0474,-3.0474,-3.0488,-3.0474,-3.0421,-3.0167,-2.994,-2.9753,-2.9459,-2.9219,-2.9058,-2.9152,-2.9245,-2.9325,-2.9539,-2.9686,-2.978,-2.9873,-2.9913,-2.9913,-2.9913,-3.0526,-3.1657,-3.1657,-3.2617,-3.417,-3.4519,-3.5391,-3.6983,-3.7327,-3.7843,-3.904,-3.968,-3.988,-3.9844,-4.0188,-4.0446,-4.0648,-3.9978,-3.963,-3.963,-3.963,-3.9428,-3.9043,-3.9025,-3.8817,-3.8676,-3.864,-3.867,-3.8988,-3.8945,-3.9208,-3.9557,-3.963,-3.9795,-4.018,-4.0253,-4.0483,-4.0749,-4.0859,-4.1024,-4.0826,-3.8458,-3.6593,-3.5962,-3.4185,-3.2247,-3.1053,-3.0889,-3.1076,-3.1129,-3.1316,-3.1503,-3.153,-3.161,-3.149,-3.1209,-3.1169,-3.1142,-3.0982,-3.1102,-3.1289,-3.1476,-3.1623,-3.1623,-3.0881,-2.82,-2.5432,-2.5367,-2.2378,-2.0131,-1.9833,-1.9394,-1.9549,-1.9589,-1.9459,-1.9443,-1.9524,-1.9589,-1.9638,-1.9711,-1.9808,-1.9898,-1.9898,-1.989,-1.9946,-1.9792,-1.9906,-1.9873,-3.0608,-3.0782,-3.0795,-3.0795,-3.0795,-3.0795,-3.0795,-3.0795,-3.0795,-3.0795,-3.0742,-3.0488,-3.0194,-2.99,-2.9606,-2.9325,-2.9072,-2.9138,-2.9232,-2.9352,-2.9539,-2.9686,-2.978,-2.9873,-2.9913,-2.9913,-2.9913,-3.0616,-3.1745,-3.2425,-3.3659,-3.5407,-3.6015,-3.7327,-3.8887,-3.916,-3.9925,-4.0892,-4.106,-4.106,-4.1108,-4.0804,-4.0869,-4.0932,-4.0593,-4.0244,-4.0134,-4.0115,-3.985,-3.9502,-3.9428,-3.93,-3.9061,-3.8915,-3.9006,-3.9373,-3.9428,-3.9612,-4.006,-4.0134,-4.0299,-4.062,-4.0675,-4.0785,-4.1126,-4.117,-4.1135,-4.0203,-3.8083,-3.6126,-3.5285,-3.3688,-3.205,-3.1207,-3.1196,-3.137,-3.137,-3.1543,-3.165,-3.165,-3.1664,-3.153,-3.1316,-3.133,-3.1316,-3.1249,-3.1303,-3.149,-3.173,-3.181,-3.1416,-3.0638,-2.7921,-2.555,-2.4274,-2.1659,-2.0066,-1.9575,-1.9581,-1.9752,-1.9808,-1.9678,-1.9646,-1.9735,-1.9808,-1.9849,-1.9922,-2.0011,-2.006,-2.0085,-2.0214,-2.0328,-2.0198,-2.0093,-2.0068,-3.0808,-3.0849,-3.0808,-3.0862,-3.0875,-3.0875,-3.0822,-3.0862,-3.0862,-3.0889,-3.0875,-3.0555,-3.0354,-2.9993,-2.982,-2.9419,-2.9285,-2.9446,-2.9379,-2.9192,-2.9619,-2.9726,-2.9579,-2.9806,-2.9913,-2.9913,-3.0003,-3.0093,-3.0705,-3.2528,-3.4257,-3.5842,-3.7586,-3.9143,-4.0976,-4.0807,-4.0976,-4.106,-4.106,-4.106,-4.106,-4.1108,-4.1024,-4.106,-4.1071,-4.0887,-4.0492,-4.0473,-4.0272,-3.9987,-3.9932,-3.9932,-3.9803,-3.9428,-3.941,-3.9858,-3.9932,-4.0134,-4.04,-4.0473,-4.0639,-4.0932,-4.1126,-4.1079,-4.117,-4.1294,-4.074,-3.927,-3.7345,-3.5769,-3.425,-3.2538,-3.1329,-3.1236,-3.1436,-3.161,-3.161,-3.165,-3.1677,-3.1677,-3.1677,-3.1543,-3.1383,-3.145,-3.1517,-3.1383,-3.1503,-3.1553,-3.1504,-3.1474,-3.1018,-2.925,-2.6887,-2.4696,-2.284,-2.1007,-2.0259,-1.9613,-1.976,-1.9898,-1.9914,-1.9849,-1.9841,-1.9922,-2.0076,-2.0133,-2.0279,-2.0369,-2.0466,-2.0523,-2.0637,-2.0588,-2.0418,-2.0271,-2.0304,-3.1396,-3.1396,-3.1396,-3.1396,-3.1396,-3.1396,-3.1396,-3.1396,-3.1396,-3.1396,-3.1383,-3.1303,-3.1102,-3.0849,-3.0715,-3.0515,-3.0247,-3.014,-2.982,-2.9459,-2.9553,-2.97,-2.978,-2.9873,-2.9913,-3.0169,-3.1212,-3.2528,-3.3834,-3.5581,-3.75,-3.9143,-3.9841,-4.0536,-4.106,-4.106,-4.106,-4.106,-4.106,-4.106,-4.106,-4.106,-4.106,-4.106,-4.1145,-4.1071,-4.0877,-4.0877,-4.0694,-4.0373,-4.0272,-4.0226,-3.9968,-3.9722,-3.985,-4.0217,-4.0272,-4.0538,-4.0804,-4.0961,-4.0914,-4.1079,-4.1317,-4.1482,-4.1348,-4.0606,-3.9948,-3.9079,-3.6738,-3.4584,-3.408,-3.2426,-3.133,-3.1223,-3.149,-3.157,-3.1463,-3.1557,-3.1664,-3.1677,-3.1677,-3.1623,-3.157,-3.165,-3.1623,-3.1583,-3.1675,-3.1518,-3.0341,-3.0141,-2.9322,-2.7243,-2.5252,-2.3768,-2.2287,-2.105,-2.0215,-1.9865,-1.9971,-2.0044,-2.0052,-2.0036,-2.0044,-2.0133,-2.0288,-2.0442,-2.0596,-2.0677,-2.0734,-2.0718,-2.0661,-2.0564,-2.045,-2.0409,-2.0426,-3.1677,-3.1677,-3.1677,-3.1677,-3.1677,-3.1677,-3.1677,-3.1677,-3.1677,-3.1677,-3.1664,-3.1664,-3.1503,-3.1276,-3.1223,-3.1062,-3.0782,-3.0488,-3.0167,-2.982,-2.9673,-2.9753,-2.99,-2.9913,-3.0348,-3.1048,-3.2174,-3.3644,-3.5494,-3.7327,-3.8887,-3.9841,-4.0723,-4.106,-4.106,-4.106,-4.106,-4.106,-4.106,-4.106,-4.106,-4.106,-4.1218,-4.1262,-4.1299,-4.128,-4.128,-4.1299,-4.1115,-4.0749,-4.0565,-4.04,-4.0354,-4.0262,-4.0253,-4.0584,-4.0694,-4.0804,-4.1024,-4.1126,-4.1152,-4.1299,-4.1537,-4.131,-4.0851,-3.9825,-3.9355,-3.7456,-3.5715,-3.4045,-3.3347,-3.2351,-3.141,-3.1076,-3.1316,-3.1463,-3.1396,-3.145,-3.1557,-3.1623,-3.1677,-3.1677,-3.1677,-3.1677,-3.173,-3.1824,-3.1299,-3.0772,-2.9298,-2.8602,-2.7059,-2.5592,-2.4297,-2.2995,-2.1908,-2.0977,-2.0274,-2.0133,-2.0206,-2.0223,-2.0231,-2.0198,-2.019,-2.0369,-2.0531,-2.0694,-2.084,-2.0807,-2.0824,-2.0751,-2.0702,-2.0637,-2.0564,-2.0491,-2.0466,-3.1677,-3.1677,-3.1677,-3.1677,-3.1677,-3.1677,-3.1677,-3.1677,-3.1677,-3.1677,-3.1677,-3.1677,-3.153,-3.1303,-3.1289,-3.1142,-3.0808,-3.0555,-3.0381,-3.0221,-3.0034,-2.99,-2.9913,-3.0169,-3.1123,-3.2248,-3.3131,-3.417,-3.6015,-3.7843,-3.846,-3.9058,-4.0451,-4.106,-4.106,-4.106,-4.106,-4.106,-4.106,-4.106,-4.1079,-4.1115,-4.128,-4.1629,-4.1684,-4.1721,-4.1721,-4.1647,-4.1464,-4.1079,-4.0712,-4.0675,-4.0895,-4.0694,-4.0759,-4.0987,-4.1042,-4.1024,-4.106,-4.1152,-4.128,-4.1592,-4.1432,-4.1006,-3.9859,-3.9121,-3.7718,-3.5149,-3.4353,-3.3577,-3.2219,-3.1691,-3.1356,-3.0969,-3.1089,-3.1303,-3.1583,-3.1436,-3.1463,-3.1623,-3.1677,-3.1704,-3.1744,-3.1757,-3.1808,-3.1378,-3.0223,-2.9493,-2.8134,-2.6868,-2.5306,-2.4007,-2.2803,-2.2199,-2.1088,-2.0908,-2.0182,-2.0223,-2.0288,-2.0304,-2.0353,-2.0336,-2.0344,-2.0531,-2.0751,-2.0921,-2.1019,-2.0978,-2.0937,-2.0897,-2.084,-2.0767,-2.0637,-2.0507,-2.0458,-3.1677,-3.1677,-3.1677,-3.1677,-3.1677,-3.1677,-3.1677,-3.1677,-3.1677,-3.1677,-3.1677,-3.1677,-3.1623,-3.1557,-3.153,-3.1396,-3.1076,-3.0782,-3.0541,-3.0327,-3.006,-2.9927,-3.0258,-3.1301,-3.2263,-3.3131,-3.5304,-3.7052,-3.7671,-3.9331,-4.0282,-4.0367,-4.0723,-4.1079,-4.106,-4.1097,-4.106,-4.106,-4.1079,-4.1097,-4.1236,-4.139,-4.1574,-4.1684,-4.1977,-4.2106,-4.2087,-4.1831,-4.1482,-4.1181,-4.0987,-4.1034,-4.1042,-4.095,-4.0932,-4.1108,-4.106,-4.1079,-4.1134,-4.1354,-4.1555,-4.1549,-4.0909,-4.0225,-3.969,-3.7392,-3.5744,-3.424,-3.3389,-3.2313,-3.1718,-3.149,-3.1263,-3.1142,-3.1062,-3.1169,-3.153,-3.161,-3.1583,-3.1664,-3.1851,-3.1971,-3.2024,-3.2144,-3.171,-3.0547,-2.9491,-2.8257,-2.644,-2.4951,-2.3567,-2.2078,-2.0965,-2.0758,-2.0455,-2.0351,-2.0271,-2.0288,-2.0312,-2.0312,-2.0377,-2.0434,-2.0491,-2.0596,-2.0897,-2.1108,-2.1157,-2.1165,-2.1108,-2.0994,-2.0872,-2.0742,-2.0523,-2.0369,-2.0393,-3.1677,-3.1677,-3.1677,-3.1677,-3.1677,-3.1677,-3.1677,-3.1677,-3.1677,-3.1677,-3.1677,-3.1677,-3.1677,-3.1664,-3.153,-3.1396,-3.1183,-3.0795,-3.0515,-3.0523,-3.0918,-3.1137,-3.139,-3.2337,-3.3483,-3.5217,-3.7241,-3.8631,-3.9501,-4.062,-4.106,-4.106,-4.106,-4.1152,-4.1354,-4.1335,-4.1409,-4.1555,-4.1574,-4.1574,-4.161,-4.1812,-4.2032,-4.2161,-4.2417,-4.2527,-4.2472,-4.2142,-4.1739,-4.139,-4.1189,-4.1134,-4.128,-4.1134,-4.1079,-4.106,-4.1145,-4.1115,-4.1335,-4.1574,-4.1401,-4.0943,-4.0084,-3.8943,-3.7563,-3.5423,-3.4309,-3.2929,-3.2055,-3.1773,-3.1503,-3.1423,-3.1423,-3.1396,-3.1263,-3.1303,-3.165,-3.1664,-3.173,-3.1864,-3.2091,-3.2291,-3.2291,-3.2452,-3.1496,-2.991,-2.8614,-2.6642,-2.445,-2.3128,-2.2063,-2.092,-2.0312,-2.0304,-2.04,-2.0304,-2.032,-2.0344,-2.0361,-2.0353,-2.0418,-2.0523,-2.0645,-2.0775,-2.1051,-2.1238,-2.1262,-2.1238,-2.1092,-2.097,-2.0848,-2.0686,-2.0474,-2.0426,-2.0434,-3.1677,-3.1677,-3.1677,-3.1677,-3.1677,-3.1677,-3.1677,-3.1664,-3.161,-3.1597,-3.1678,-3.1854,-3.1867,-3.1651,-3.2077,-3.1781,-3.1527,-3.1587,-3.1367,-3.1713,-3.2393,-3.3131,-3.3659,-3.3834,-3.532,-3.75,-3.8289,-3.9501,-4.0536,-4.106,-4.106,-4.106,-4.106,-4.1299,-4.1537,-4.1647,-4.1886,-4.2124,-4.2142,-4.2124,-4.2161,-4.2271,-4.2454,-4.2692,-4.2858,-4.2876,-4.2766,-4.2509,-4.2265,-4.1916,-4.1494,-4.1634,-4.1751,-4.1542,-4.1516,-4.1516,-4.1571,-4.1512,-4.1409,-4.1315,-4.0856,-3.9816,-3.9198,-3.7843,-3.5456,-3.4392,-3.3315,-3.1768,-3.1584,-3.1611,-3.1436,-3.1517,-3.161,-3.161,-3.1623,-3.165,-3.1677,-3.1677,-3.1784,-3.2064,-3.2345,-3.2519,-3.2585,-3.2305,-3.1488,-2.8702,-2.727,-2.4931,-2.3026,-2.1801,-2.1035,-2.055,-2.0279,-2.032,-2.0328,-2.0344,-2.0369,-2.0393,-2.0409,-2.0426,-2.0483,-2.0596,-2.0775,-2.0962,-2.1165,-2.1287,-2.1343,-2.1246,-2.1108,-2.1002,-2.0921,-2.0694,-2.0483,-2.0572,-2.0612,-3.1677,-3.1677,-3.1677,-3.1677,-3.1677,-3.1677,-3.1664,-3.1637,-3.141,-3.1504,-3.1637,-3.2639,-3.2371,-3.1367,-3.3711,-3.4442,-3.309,-3.3754,-3.4641,-3.4468,-3.4669,-3.5842,-3.6707,-3.6966,-3.75,-3.8716,-3.9841,-4.062,-4.106,-4.106,-4.106,-4.106,-4.1079,-4.1262,-4.1629,-4.1702,-4.1886,-4.2197,-4.2289,-4.2326,-4.2417,-4.2619,-4.2784,-4.2931,-4.3188,-4.3151,-4.2913,-4.2784,-4.2868,-4.2963,-4.2876,-4.2814,-4.2709,-4.2873,-4.2951,-4.2847,-4.2542,-4.1909,-4.0717,-4.0315,-3.9673,-3.8318,-3.7285,-3.6006,-3.5326,-3.3945,-3.3089,-3.223,-3.2164,-3.1989,-3.1665,-3.1623,-3.169,-3.1704,-3.173,-3.1717,-3.169,-3.169,-3.1851,-3.2091,-3.2385,-3.2723,-3.2741,-3.1308,-2.9857,-2.7605,-2.5405,-2.3105,-2.1665,-2.0566,-2.0315,-2.0158,-2.0223,-2.0279,-2.0418,-2.0458,-2.0523,-2.0531,-2.0531,-2.058,-2.0637,-2.0694,-2.0889,-2.1067,-2.1238,-2.1327,-2.136,-2.1335,-2.1205,-2.1108,-2.1002,-2.0848,-2.0734,-2.0791,-2.0799,-3.1677,-3.1677,-3.1677,-3.1583,-3.1476,-3.1463,-3.1383,-3.1437,-3.2098,-3.2292,-3.2711,-3.4093,-3.4306,-3.3551,-3.5191,-3.5362,-3.4837,-3.5197,-3.6105,-3.6567,-3.688,-3.7843,-3.9228,-3.9586,-3.9586,-3.9756,-4.0536,-4.106,-4.106,-4.106,-4.106,-4.106,-4.1079,-4.128,-4.1629,-4.1721,-4.2032,-4.2454,-4.2564,-4.2637,-4.2876,-4.3041,-4.3169,-4.3169,-4.3371,-4.346,-4.3542,-4.3505,-4.3769,-4.4103,-4.4329,-4.414,-4.3676,-4.366,-4.3671,-4.3547,-4.2494,-4.1822,-4.0737,-3.9741,-3.858,-3.7031,-3.5991,-3.5129,-3.4417,-3.3313,-3.2776,-3.2294,-3.2122,-3.2219,-3.1772,-3.1837,-3.1851,-3.1904,-3.1998,-3.216,-3.2174,-3.2078,-3.2118,-3.2332,-3.2585,-3.2786,-3.2314,-3.0627,-2.8755,-2.6804,-2.4779,-2.2599,-2.1027,-2.0127,-2.0098,-2.006,-2.0141,-2.0255,-2.045,-2.058,-2.0702,-2.071,-2.0718,-2.0799,-2.088,-2.0945,-2.1019,-2.1157,-2.127,-2.1303,-2.1327,-2.1311,-2.1278,-2.1165,-2.1059,-2.1002,-2.097,-2.0945,-2.0962,-3.1557,-3.1597,-3.161,-3.145,-3.1249,-3.1503,-3.1634,-3.156,-3.3172,-3.396,-3.4307,-3.5879,-3.6273,-3.6273,-3.6755,-3.6713,-3.672,-3.6731,-3.7705,-3.8787,-3.8751,-3.9572,-4.0729,-4.0862,-4.0862,-4.1134,-4.1079,-4.106,-4.106,-4.1079,-4.1134,-4.1152,-4.117,-4.1519,-4.1794,-4.1922,-4.2344,-4.3004,-4.3133,-4.3298,-4.3609,-4.3701,-4.3719,-4.3899,-4.3807,-4.4075,-4.4268,-4.4389,-4.4548,-4.5085,-4.5852,-4.5465,-4.4586,-4.4065,-4.3838,-4.3721,-4.208,-4.0803,-4.0095,-3.901,-3.7524,-3.5987,-3.5544,-3.4655,-3.3465,-3.3228,-3.3013,-3.2682,-3.2581,-3.2831,-3.2205,-3.2408,-3.2543,-3.2487,-3.2689,-3.2797,-3.2687,-3.27,-3.2687,-3.2629,-3.2612,-3.2661,-3.1488,-2.9787,-2.7939,-2.6,-2.3898,-2.2095,-2.062,-1.9768,-1.9841,-1.9971,-2.0052,-2.0271,-2.0483,-2.0588,-2.0718,-2.084,-2.0856,-2.0954,-2.1067,-2.1132,-2.1165,-2.1173,-2.1246,-2.1295,-2.1319,-2.1311,-2.1262,-2.1173,-2.1165,-2.1157,-2.1124,-2.1092,-2.1116,-3.1076,-3.1303,-3.1289,-3.1263,-3.1503,-3.2873,-3.3427,-3.3383,-3.4889,-3.5478,-3.5785,-3.721,-3.7214,-3.6818,-3.9129,-4.0118,-3.9692,-3.9621,-4.0068,-4.0673,-4.0565,-4.0971,-4.1342,-4.1335,-4.1317,-4.1409,-4.1317,-4.117,-4.1152,-4.1163,-4.1335,-4.1537,-4.1592,-4.1922,-4.2381,-4.2692,-4.2931,-4.3536,-4.3719,-4.3958,-4.4251,-4.4434,-4.4616,-4.4869,-4.4737,-4.4894,-4.5069,-4.5021,-4.5142,-4.5891,-4.6095,-4.5513,-4.4667,-4.4341,-4.3996,-4.3543,-4.187,-4.0125,-3.8894,-3.7679,-3.6227,-3.5067,-3.4609,-3.4435,-3.3952,-3.4075,-3.3944,-3.3955,-3.3978,-3.4166,-3.374,-3.3505,-3.3671,-3.3727,-3.3588,-3.3492,-3.3078,-3.2939,-3.2827,-3.2469,-3.2394,-3.1933,-3.0348,-2.8519,-2.6375,-2.4251,-2.2172,-2.101,-1.995,-1.9549,-1.9654,-1.9808,-1.9971,-2.0247,-2.0523,-2.0588,-2.0694,-2.088,-2.0954,-2.1027,-2.114,-2.127,-2.1311,-2.1246,-2.1254,-2.1319,-2.1327,-2.1319,-2.1311,-2.127,-2.1295,-2.1319,-2.127,-2.123,-2.1262,-3.1183,-3.1544,-3.255,-3.292,-3.3072,-3.4783,-3.5303,-3.5218,-3.67,-3.7309,-3.7751,-3.8889,-3.9313,-3.9058,-4.001,-4.106,-4.1079,-4.106,-4.1189,-4.1299,-4.1372,-4.1464,-4.1739,-4.1647,-4.1812,-4.1904,-4.1794,-4.1666,-4.1702,-4.1702,-4.1794,-4.1922,-4.1996,-4.2197,-4.2527,-4.2747,-4.3224,-4.3738,-4.405,-4.4325,-4.4765,-4.4966,-4.5332,-4.5622,-4.5709,-4.5758,-4.61,-4.6304,-4.6575,-4.6967,-4.6413,-4.5759,-4.4761,-4.3287,-4.2397,-4.24,-4.0915,-3.9318,-3.8071,-3.7046,-3.5779,-3.5287,-3.4855,-3.4798,-3.4878,-3.5017,-3.5017,-3.467,-3.423,-3.4137,-3.3821,-3.3973,-3.3849,-3.3849,-3.3863,-3.3601,-3.3133,-3.3106,-3.2612,-3.208,-3.1779,-3.0933,-2.9041,-2.7083,-2.4798,-2.2537,-2.0498,-1.9658,-1.9314,-1.9329,-1.9459,-1.9792,-2.0003,-2.0279,-2.0531,-2.0612,-2.0669,-2.0848,-2.0986,-2.1067,-2.114,-2.123,-2.1246,-2.1213,-2.1254,-2.1262,-2.1319,-2.1303,-2.1335,-2.136,-2.136,-2.1352,-2.1368,-2.1376,-2.1384,-3.1865,-3.2326,-3.424,-3.5022,-3.5074,-3.6869,-3.7281,-3.7156,-3.8748,-3.9392,-3.9232,-4.0498,-4.1251,-4.1317,-4.1335,-4.1335,-4.1299,-4.1354,-4.1445,-4.1677,-4.1721,-4.1831,-4.2014,-4.2106,-4.2271,-4.2362,-4.2362,-4.2344,-4.2179,-4.2161,-4.2289,-4.2381,-4.2399,-4.2601,-4.2894,-4.3316,-4.3499,-4.405,-4.438,-4.4857,-4.5317,-4.5723,-4.6145,-4.6637,-4.6542,-4.6758,-4.7347,-4.7405,-4.7381,-4.7224,-4.6542,-4.5543,-4.4382,-4.171,-4.0158,-4.0309,-3.9085,-3.8386,-3.7716,-3.6889,-3.583,-3.5637,-3.5661,-3.5602,-3.5485,-3.5383,-3.5375,-3.4924,-3.4593,-3.4368,-3.4397,-3.423,-3.4148,-3.412,-3.3996,-3.3597,-3.3118,-3.2722,-3.211,-3.1625,-3.1195,-2.9596,-2.7404,-2.5297,-2.2958,-2.149,-1.948,-1.9403,-1.9061,-1.9134,-1.9337,-1.9768,-2.0085,-2.0344,-2.0539,-2.0629,-2.0694,-2.0791,-2.0905,-2.0994,-2.1059,-2.114,-2.1124,-2.1108,-2.1075,-2.1092,-2.1181,-2.1303,-2.1335,-2.1368,-2.1376,-2.1384,-2.1384,-2.1384,-2.1384,-3.3644,-3.412,-3.6036,-3.681,-3.7067,-3.8784,-3.9273,-3.8957,-4.0907,-4.1719,-4.1097,-4.1768,-4.2069,-4.2051,-4.2069,-4.2087,-4.2087,-4.2032,-4.2124,-4.2289,-4.2271,-4.2362,-4.2582,-4.2362,-4.2601,-4.2766,-4.2803,-4.2582,-4.2472,-4.2399,-4.2509,-4.2747,-4.2894,-4.3261,-4.4013,-4.4196,-4.5058,-4.5865,-4.6103,-4.659,-4.7306,-4.7573,-4.7911,-4.8113,-4.7915,-4.7829,-4.8376,-4.8192,-4.7695,-4.6705,-4.6382,-4.4474,-4.19,-4.0992,-3.9327,-3.8112,-3.7165,-3.6874,-3.6868,-3.6383,-3.6027,-3.5968,-3.5822,-3.5529,-3.5493,-3.539,-3.528,-3.5222,-3.5192,-3.5198,-3.5168,-3.5323,-3.5366,-3.4971,-3.4426,-3.3832,-3.3205,-3.2401,-3.1713,-2.9857,-2.904,-2.7297,-2.5307,-2.3226,-2.1273,-1.9941,-1.8888,-1.893,-1.8988,-1.9126,-1.9337,-1.9792,-2.0093,-2.0353,-2.045,-2.0556,-2.0645,-2.0726,-2.0832,-2.0913,-2.0954,-2.0994,-2.0978,-2.0954,-2.0945,-2.1027,-2.1189,-2.1295,-2.1343,-2.1335,-2.1303,-2.1335,-2.1384,-2.1376,-2.1352,-3.7028,-3.6344,-3.8266,-3.8993,-3.9282,-4.1101,-4.1622,-4.1475,-4.216,-4.2381,-4.2106,-4.2197,-4.2271,-4.2307,-4.2271,-4.2271,-4.2271,-4.2307,-4.2362,-4.2619,-4.2601,-4.2711,-4.2839,-4.2931,-4.3114,-4.3133,-4.3224,-4.3188,-4.2986,-4.2949,-4.3078,-4.3151,-4.3279,-4.3664,-4.471,-4.493,-4.5553,-4.6308,-4.7036,-4.7756,-4.8519,-4.8843,-4.9032,-4.9505,-4.9098,-4.9153,-4.9024,-4.8386,-4.7759,-4.6592,-4.5213,-4.2906,-4.1012,-3.9745,-3.8268,-3.7661,-3.7151,-3.6901,-3.6597,-3.6466,-3.6305,-3.6144,-3.5968,-3.5792,-3.5485,-3.5251,-3.5251,-3.5441,-3.5368,-3.5368,-3.531,-3.5207,-3.5017,-3.4747,-3.4356,-3.3293,-3.2561,-3.2167,-3.1208,-2.9,-2.6807,-2.5106,-2.3551,-2.2157,-2.0642,-1.9483,-1.8784,-1.8971,-1.911,-1.9362,-1.9597,-1.9898,-2.0133,-2.0328,-2.0361,-2.0418,-2.0523,-2.0621,-2.0783,-2.084,-2.0824,-2.0832,-2.0832,-2.0954,-2.1067,-2.1157,-2.123,-2.1213,-2.1189,-2.1197,-2.1213,-2.1246,-2.1262,-2.1145,-2.1145,-3.997,-3.9242,-4.0623,-4.1273,-4.1363,-4.2855,-4.3243,-4.2894,-4.2968,-4.2803,-4.2546,-4.2546,-4.2601,-4.2582,-4.2637,-4.2674,-4.2619,-4.2582,-4.2582,-4.2692,-4.2839,-4.3004,-4.3133,-4.3353,-4.3444,-4.3481,-4.3426,-4.3408,-4.3444,-4.3444,-4.3408,-4.3518,-4.3756,-4.427,-4.5022,-4.5777,-4.6648,-4.7598,-4.8378,-4.907,-4.955,-4.9723,-4.9569,-4.9512,-4.9358,-4.9129,-4.8592,-4.7563,-4.6752,-4.5235,-4.344,-4.1543,-4.0239,-3.9011,-3.8059,-3.7592,-3.73,-3.7007,-3.6758,-3.6539,-3.6422,-3.6187,-3.5895,-3.5646,-3.5485,-3.5236,-3.509,-3.528,-3.5163,-3.5031,-3.49,-3.4695,-3.4505,-3.412,-3.3509,-3.2435,-3.129,-3.0509,-2.917,-2.6807,-2.4793,-2.3354,-2.1972,-2.1123,-2.0041,-1.8959,-1.8655,-1.8899,-1.9216,-1.954,-1.9768,-2.002,-2.0166,-2.0312,-2.0328,-2.0353,-2.0434,-2.0507,-2.0669,-2.0702,-2.0645,-2.0686,-2.0726,-2.0897,-2.1059,-2.0994,-2.0897,-2.0954,-2.1019,-2.1051,-2.1083,-2.1108,-2.1124,-2.1008,-2.0714,-4.1544,-4.3124,-4.3213,-4.3213,-4.3213,-4.3392,-4.3261,-4.2894,-4.3261,-4.3151,-4.2858,-4.3169,-4.3316,-4.3389,-4.3389,-4.3389,-4.3389,-4.3408,-4.3316,-4.3334,-4.3444,-4.3389,-4.3408,-4.3444,-4.3481,-4.3481,-4.3481,-4.3481,-4.3518,-4.3573,-4.3536,-4.3554,-4.4031,-4.493,-4.5961,-4.6851,-4.8132,-4.9042,-4.9872,-5.0007,-5.0222,-5.0069,-4.9472,-4.8002,-4.7259,-4.647,-4.4945,-4.4717,-4.4123,-4.2883,-4.1719,-4.0496,-3.9118,-3.8487,-3.7943,-3.7651,-3.7461,-3.7139,-3.6817,-3.6612,-3.6407,-3.6056,-3.5631,-3.528,-3.5192,-3.4929,-3.4812,-3.4871,-3.4856,-3.4724,-3.4505,-3.4241,-3.409,-3.3504,-3.2668,-3.0954,-2.965,-2.8136,-2.6711,-2.4533,-2.3015,-2.184,-2.0879,-2.0173,-1.9829,-1.883,-1.8809,-1.9053,-1.9394,-1.9711,-1.9898,-2.0101,-2.0214,-2.0304,-2.032,-2.0353,-2.0385,-2.0418,-2.0523,-2.0483,-2.0409,-2.0491,-2.071,-2.0637,-2.0734,-2.0653,-2.0653,-2.0856,-2.0978,-2.0945,-2.0929,-2.0897,-2.0738,-2.0563,-2.017,-4.2748,-4.3499,-4.3481,-4.3481,-4.3518,-4.3756,-4.3481,-4.2949,-4.3041,-4.3041,-4.2894,-4.3298,-4.3628,-4.3848,-4.4123,-4.4068,-4.3884,-4.3866,-4.3719,-4.3554,-4.3481,-4.3481,-4.3481,-4.3481,-4.3481,-4.3481,-4.3481,-4.3481,-4.3499,-4.3683,-4.3829,-4.4013,-4.4397,-4.5132,-4.6274,-4.7862,-4.9173,-5.0005,-5.0451,-5.0353,-4.9199,-4.9026,-4.8189,-4.6158,-4.5906,-4.5521,-4.4727,-4.324,-4.2267,-4.1255,-4.006,-3.9026,-3.8207,-3.8002,-3.7841,-3.7563,-3.7417,-3.7153,-3.689,-3.667,-3.6378,-3.5807,-3.528,-3.49,-3.4944,-3.4783,-3.4724,-3.4724,-3.4753,-3.4724,-3.4827,-3.4196,-3.36,-3.2987,-3.1698,-2.9899,-2.8054,-2.6576,-2.4708,-2.2756,-2.1872,-2.1104,-2.0244,-1.9371,-1.9091,-1.8818,-1.9004,-1.9232,-1.9581,-1.9857,-2.0036,-2.0158,-2.0263,-2.0304,-2.032,-2.032,-2.032,-2.0353,-2.0393,-2.0369,-2.0361,-2.0612,-2.0759,-2.0612,-2.0515,-2.058,-2.0702,-2.088,-2.0921,-2.0824,-2.0604,-2.0499,-2.0277,-2.0091,-1.9616,-4.3481,-4.3499,-4.3628,-4.3609,-4.3518,-4.3664,-4.3408,-4.2913,-4.2729,-4.2784,-4.2894,-4.3316,-4.3719,-4.4086,-4.4306,-4.4453,-4.427,-4.4233,-4.3995,-4.3829,-4.3701,-4.3591,-4.3518,-4.3481,-4.3481,-4.3481,-4.3481,-4.3481,-4.3499,-4.3903,-4.4215,-4.4526,-4.4819,-4.5778,-4.6854,-4.86,-5.0059,-5.0646,-5.004,-4.955,-4.8311,-4.7501,-4.6188,-4.4329,-4.3909,-4.3137,-4.2348,-4.0942,-4.028,-3.9525,-3.874,-3.7825,-3.7592,-3.7563,-3.7519,-3.7387,-3.7241,-3.7065,-3.689,-3.6524,-3.6129,-3.5675,-3.5222,-3.4944,-3.4856,-3.4914,-3.5075,-3.5046,-3.5031,-3.5031,-3.5192,-3.4595,-3.3923,-3.3351,-3.1021,-2.9069,-2.6908,-2.5129,-2.3021,-2.0968,-2.0556,-2.0185,-2.0119,-1.9429,-1.9339,-1.9272,-1.9443,-1.9613,-1.9808,-2.0036,-2.0158,-2.0247,-2.0304,-2.032,-2.032,-2.032,-2.032,-2.0328,-2.0361,-2.0369,-2.0442,-2.0653,-2.0694,-2.0515,-2.0474,-2.058,-2.0629,-2.0661,-2.0677,-2.0669,-2.045,-2.0135,-1.977,-1.9478,-1.9021,-4.3481,-4.3536,-4.3884,-4.3811,-4.3481,-4.3078,-4.2913,-4.2766,-4.2454,-4.2509,-4.2894,-4.3316,-4.3756,-4.4086,-4.4325,-4.449,-4.4655,-4.4655,-4.4416,-4.4086,-4.394,-4.3811,-4.3609,-4.3481,-4.3481,-4.3481,-4.3499,-4.3499,-4.3554,-4.4086,-4.4581,-4.5483,-4.6281,-4.7047,-4.7552,-4.9529,-5.0822,-5.0939,-4.9236,-4.841,-4.7031,-4.5618,-4.3892,-4.2141,-4.1474,-4.067,-3.9607,-3.8842,-3.8388,-3.804,-3.7865,-3.7402,-3.7417,-3.7431,-3.7329,-3.7109,-3.708,-3.6919,-3.6641,-3.6041,-3.5792,-3.5705,-3.5368,-3.5178,-3.5207,-3.5368,-3.55,-3.5397,-3.5566,-3.5493,-3.5295,-3.501,-3.4313,-3.2755,-3.035,-2.7746,-2.5489,-2.3328,-2.1284,-2.0272,-1.967,-1.9208,-1.9559,-1.9711,-1.9711,-1.9776,-1.9906,-2.002,-2.0101,-2.0166,-2.0263,-2.0288,-2.032,-2.032,-2.032,-2.032,-2.032,-2.032,-2.0328,-2.0344,-2.0344,-2.0434,-2.0426,-2.0353,-2.0393,-2.0466,-2.0409,-2.0353,-2.0321,-2.0288,-2.0014,-1.9741,-1.9353,-1.8978,-1.8532,-4.3481,-4.3499,-4.3646,-4.3609,-4.3518,-4.3628,-4.3243,-4.2491,-4.2124,-4.2252,-4.2858,-4.3316,-4.3884,-4.4361,-4.4728,-4.4911,-4.5058,-4.5058,-4.4801,-4.4141,-4.4105,-4.3829,-4.3609,-4.3481,-4.3499,-4.3499,-4.3518,-4.3683,-4.3903,-4.4453,-4.5372,-4.6317,-4.778,-4.8938,-4.9339,-5.0242,-5.0432,-4.9433,-4.8194,-4.6896,-4.4059,-4.292,-4.1527,-3.9241,-3.9105,-3.8537,-3.7826,-3.7417,-3.727,-3.7226,-3.7139,-3.7007,-3.6992,-3.6992,-3.6919,-3.6787,-3.6773,-3.6729,-3.6539,-3.6217,-3.5997,-3.5866,-3.5675,-3.5485,-3.5514,-3.5654,-3.5728,-3.5772,-3.583,-3.5705,-3.5763,-3.4885,-3.3779,-3.1456,-2.8922,-2.6045,-2.3575,-2.1509,-1.9715,-1.975,-1.9354,-1.9524,-1.9817,-1.9963,-1.9995,-2.0028,-2.0125,-2.0166,-2.0231,-2.0247,-2.0304,-2.0304,-2.032,-2.032,-2.032,-2.032,-2.032,-2.032,-2.032,-2.0328,-2.0328,-2.032,-2.0328,-2.0336,-2.0328,-2.032,-2.032,-2.0216,-2.0007,-1.9919,-1.9702,-1.9276,-1.8888,-1.8686,-1.8491,-4.3481,-4.3481,-4.3481,-4.3481,-4.3518,-4.3628,-4.3114,-4.2344,-4.2161,-4.2399,-4.2876,-4.3316,-4.3921,-4.4563,-4.493,-4.5352,-4.5462,-4.548,-4.5058,-4.438,-4.4288,-4.3976,-4.3664,-4.3518,-4.3609,-4.3646,-4.3738,-4.3903,-4.4306,-4.4966,-4.6019,-4.7573,-4.9263,-4.947,-4.962,-4.9399,-4.9222,-4.7949,-4.6519,-4.4174,-4.1971,-4.0435,-3.9277,-3.8129,-3.7692,-3.7402,-3.7314,-3.7153,-3.6934,-3.6861,-3.6744,-3.6612,-3.6612,-3.6612,-3.6612,-3.6612,-3.6612,-3.6612,-3.6524,-3.6451,-3.629,-3.6261,-3.5983,-3.5836,-3.5851,-3.5953,-3.6012,-3.6027,-3.5953,-3.5958,-3.5767,-3.4785,-3.3222,-3.0958,-2.8224,-2.5314,-2.2821,-2.0811,-1.9683,-1.9714,-1.9703,-1.9906,-2.0068,-2.0166,-2.0239,-2.0271,-2.0312,-2.032,-2.032,-2.032,-2.032,-2.032,-2.032,-2.032,-2.032,-2.032,-2.032,-2.032,-2.032,-2.032,-2.032,-2.032,-2.032,-2.032,-2.032,-2.032,-2.0216,-2.0111,-1.9798,-1.959,-1.9485,-1.9067,-1.8432,-1.8222,-1.8125,-4.3481,-4.3481,-4.3481,-4.3481,-4.3426,-4.3169,-4.2747,-4.2381,-4.2692,-4.2858,-4.2931,-4.3353,-4.3921,-4.4545,-4.4691,-4.5132,-4.5663,-4.5773,-4.526,-4.4783,-4.449,-4.405,-4.3719,-4.3573,-4.3756,-4.3958,-4.4123,-4.4306,-4.471,-4.5594,-4.6934,-4.8042,-4.92,-4.8918,-4.8324,-4.732,-4.7032,-4.5702,-4.3922,-4.1826,-4.0084,-3.8731,-3.7981,-3.7344,-3.7197,-3.7095,-3.6992,-3.6831,-3.67,-3.6641,-3.6612,-3.6612,-3.6612,-3.6612,-3.6612,-3.6612,-3.6612,-3.6612,-3.6597,-3.6539,-3.6539,-3.648,-3.629,-3.6173,-3.6187,-3.6305,-3.6363,-3.6407,-3.6392,-3.6071,-3.5719,-3.4631,-3.3458,-3.0839,-2.8129,-2.5444,-2.2901,-2.1203,-2.0273,-1.9946,-2.0003,-2.0125,-2.0214,-2.032,-2.032,-2.032,-2.032,-2.032,-2.032,-2.032,-2.032,-2.032,-2.032,-2.032,-2.032,-2.032,-2.032,-2.032,-2.032,-2.032,-2.032,-2.032,-2.032,-2.032,-2.032,-2.032,-2.0216,-2.0007,-1.959,-1.9381,-1.9067,-1.8649,-1.8118,-1.7706,-1.7608,-4.3481,-4.3481,-4.3481,-4.3481,-4.3481,-4.3353,-4.3243,-4.3151,-4.2986,-4.3004,-4.3334,-4.3426,-4.394,-4.4636,-4.4673,-4.5187,-4.5517,-4.5572,-4.515,-4.4765,-4.4416,-4.3958,-4.3756,-4.3738,-4.3958,-4.425,-4.4471,-4.482,-4.5372,-4.6299,-4.6571,-4.7135,-4.8076,-4.7282,-4.5702,-4.4091,-4.369,-4.294,-4.1345,-4.009,-3.8775,-3.7628,-3.7139,-3.6963,-3.6875,-3.6787,-3.6729,-3.6685,-3.6612,-3.6612,-3.6612,-3.6612,-3.6612,-3.6612,-3.6612,-3.6612,-3.6612,-3.6612,-3.6612,-3.6612,-3.6612,-3.6612,-3.6495,-3.6495,-3.6495,-3.6524,-3.6612,-3.6612,-3.6513,-3.6202,-3.5196,-3.4046,-3.2193,-2.9504,-2.6895,-2.4279,-2.2052,-2.0952,-2.0101,-2.0085,-2.015,-2.0214,-2.0312,-2.032,-2.032,-2.032,-2.032,-2.032,-2.032,-2.032,-2.032,-2.032,-2.032,-2.032,-2.032,-2.032,-2.032,-2.032,-2.032,-2.032,-2.032,-2.032,-2.032,-2.032,-2.032,-2.032,-2.032,-1.9903,-1.9493,-1.8858,-1.8432,-1.8118,-1.7811,-1.7524,-1.7348,-4.3481,-4.3481,-4.3481,-4.3481,-4.3481,-4.3481,-4.3481,-4.3444,-4.3224,-4.3279,-4.3463,-4.3481,-4.3921,-4.4581,-4.471,-4.5095,-4.581,-4.5498,-4.5095,-4.4673,-4.4251,-4.3884,-4.3756,-4.3993,-4.4341,-4.4562,-4.5095,-4.5594,-4.6057,-4.635,-4.6599,-4.6205,-4.6517,-4.4974,-4.3355,-4.2009,-4.0843,-4.0084,-3.9212,-3.8269,-3.7621,-3.6919,-3.6758,-3.6656,-3.6612,-3.6612,-3.6612,-3.6612,-3.6612,-3.6612,-3.6612,-3.6612,-3.6612,-3.6612,-3.648,-3.648,-3.6553,-3.6583,-3.6612,-3.6612,-3.6612,-3.6612,-3.6612,-3.6597,-3.6583,-3.6597,-3.6612,-3.6612,-3.6301,-3.5905,-3.4585,-3.3073,-3.042,-2.7771,-2.5297,-2.2828,-2.1596,-2.0463,-2.0239,-2.0198,-2.0231,-2.0288,-2.032,-2.032,-2.032,-2.032,-2.032,-2.032,-2.032,-2.032,-2.032,-2.032,-2.032,-2.032,-2.032,-2.032,-2.032,-2.032,-2.032,-2.032,-2.032,-2.032,-2.032,-2.032,-2.032,-2.0216,-2.0111,-1.9806,-1.9284,-1.8649,-1.814,-1.7966,-1.7784,-1.7509,-1.7452,-4.3481,-4.3481,-4.3481,-4.3481,-4.3481,-4.3481,-4.3518,-4.3554,-4.3609,-4.3554,-4.3518,-4.3536,-4.3976,-4.46,-4.4783,-4.5205,-4.5553,-4.5388,-4.4985,-4.4636,-4.4141,-4.3793,-4.3991,-4.403,-4.4834,-4.5388,-4.5852,-4.6225,-4.6504,-4.6308,-4.5783,-4.5322,-4.45,-4.2924,-4.0848,-4.0306,-3.9212,-3.8174,-3.771,-3.7218,-3.6927,-3.6626,-3.6612,-3.6612,-3.6612,-3.6612,-3.6612,-3.6612,-3.6612,-3.6612,-3.6553,-3.6539,-3.6524,-3.6509,-3.6348,-3.6392,-3.6509,-3.6568,-3.6612,-3.6612,-3.6612,-3.6612,-3.6612,-3.6103,-3.589,-3.5905,-3.5805,-3.5182,-3.467,-3.356,-3.2245,-3.0319,-2.7884,-2.5953,-2.3897,-2.1948,-2.0728,-2.0141,-2.0166,-2.0174,-2.0271,-2.032,-2.032,-2.032,-2.032,-2.032,-2.032,-2.032,-2.032,-2.032,-2.032,-2.032,-2.032,-2.032,-2.032,-2.032,-2.032,-2.032,-2.032,-2.032,-2.032,-2.032,-2.032,-2.032,-2.032,-2.0111,-1.9903,-1.9597,-1.9179,-1.8551,-1.8056,-1.791,-1.7756,-1.7514,-1.7711,-4.3481,-4.3481,-4.3481,-4.3481,-4.3481,-4.3481,-4.3664,-4.3958,-4.427,-4.4013,-4.3628,-4.3829,-4.4233,-4.4728,-4.5003,-4.5425,-4.5645,-4.5223,-4.4838,-4.4563,-4.414,-4.4263,-4.4535,-4.4851,-4.5624,-4.6331,-4.6707,-4.6448,-4.5975,-4.5376,-4.4035,-4.193,-4.1502,-4.0501,-3.8802,-3.845,-3.7754,-3.7022,-3.6861,-3.6758,-3.6641,-3.6612,-3.6612,-3.6612,-3.6612,-3.6612,-3.6612,-3.6612,-3.6612,-3.6597,-3.6334,-3.6261,-3.6231,-3.6246,-3.6348,-3.6466,-3.6524,-3.6583,-3.6612,-3.6612,-3.6612,-3.6597,-3.6301,-3.5082,-3.4571,-3.4698,-3.43,-3.336,-3.2346,-3.1126,-2.9712,-2.768,-2.5851,-2.4216,-2.2676,-2.138,-1.9995,-2.0036,-2.0093,-2.0182,-2.0296,-2.032,-2.032,-2.032,-2.032,-2.032,-2.032,-2.032,-2.032,-2.032,-2.032,-2.032,-2.032,-2.032,-2.032,-2.032,-2.032,-2.032,-2.032,-2.032,-2.032,-2.032,-2.032,-2.032,-2.0216,-2.0007,-1.9798,-1.9702,-1.9179,-1.8371,-1.8016,-1.7996,-1.7697,-1.7573,-1.7892,-4.3481,-4.3481,-4.3481,-4.3481,-4.3481,-4.3481,-4.3628,-4.3829,-4.405,-4.3921,-4.3683,-4.4251,-4.482,-4.5095,-4.5297,-4.548,-4.5645,-4.504,-4.4967,-4.4745,-4.4466,-4.4625,-4.5119,-4.5713,-4.6417,-4.7017,-4.6785,-4.6311,-4.5286,-4.3551,-4.1834,-4.0352,-3.9859,-3.8772,-3.7387,-3.7168,-3.7007,-3.6861,-3.667,-3.6597,-3.6583,-3.6597,-3.6612,-3.6612,-3.6612,-3.6612,-3.6612,-3.6583,-3.6509,-3.6422,-3.6202,-3.6027,-3.607,-3.6217,-3.6334,-3.6407,-3.648,-3.6612,-3.6612,-3.6612,-3.6612,-3.6498,-3.6202,-3.5082,-3.3047,-3.296,-3.1542,-3.0622,-3.0004,-2.889,-2.8077,-2.6455,-2.5142,-2.3709,-2.2063,-2.0646,-2.0174,-2.0182,-2.0214,-2.0255,-2.032,-2.032,-2.032,-2.032,-2.032,-2.032,-2.032,-2.032,-2.032,-2.032,-2.032,-2.032,-2.032,-2.032,-2.032,-2.032,-2.032,-2.032,-2.032,-2.032,-2.032,-2.032,-2.032,-2.032,-2.0111,-1.9903,-1.9694,-1.9508,-1.8836,-1.7939,-1.7904,-1.7982,-1.7801,-1.7616,-1.7929,-4.3481,-4.3481,-4.3481,-4.3481,-4.3481,-4.3481,-4.3536,-4.3609,-4.3664,-4.3756,-4.394,-4.4856,-4.5443,-4.5443,-4.5425,-4.5553,-4.5463,-4.4967,-4.5038,-4.5071,-4.4917,-4.5168,-4.5811,-4.6447,-4.6827,-4.6801,-4.6651,-4.5752,-4.4649,-4.267,-4.094,-4.0006,-3.8756,-3.7373,-3.7168,-3.7007,-3.689,-3.67,-3.6553,-3.6509,-3.6539,-3.6583,-3.6597,-3.6612,-3.6612,-3.6612,-3.6612,-3.6509,-3.6363,-3.6305,-3.6173,-3.6012,-3.5997,-3.6187,-3.6305,-3.6378,-3.6495,-3.6583,-3.6612,-3.6612,-3.6498,-3.64,-3.5805,-3.4272,-3.2031,-3.0206,-2.8788,-2.7567,-2.6955,-2.6546,-2.5738,-2.5029,-2.3813,-2.2977,-2.1431,-2.0304,-2.0296,-2.0271,-2.0279,-2.0304,-2.032,-2.032,-2.032,-2.032,-2.032,-2.032,-2.032,-2.032,-2.032,-2.032,-2.032,-2.032,-2.032,-2.032,-2.032,-2.032,-2.032,-2.032,-2.032,-2.032,-2.032,-2.032,-2.032,-2.032,-2.0111,-1.971,-1.9532,-1.9256,-1.8474,-1.7727,-1.7953,-1.8166,-1.7933,-1.7847,-1.7937,-4.3481,-4.3481,-4.3481,-4.3481,-4.3481,-4.3481,-4.3664,-4.3995,-4.4288,-4.4618,-4.4765,-4.4966,-4.5058,-4.4453,-4.4728,-4.5004,-4.5243,-4.4927,-4.4795,-4.4827,-4.5069,-4.5725,-4.6285,-4.6523,-4.6687,-4.6316,-4.5585,-4.4395,-4.3041,-4.1273,-3.9737,-3.8358,-3.7858,-3.7153,-3.7095,-3.6905,-3.6641,-3.648,-3.6319,-3.6217,-3.6305,-3.6392,-3.6583,-3.6612,-3.6612,-3.6612,-3.6553,-3.6334,-3.6378,-3.6363,-3.6261,-3.61,-3.61,-3.6187,-3.6319,-3.6451,-3.6568,-3.6583,-3.6612,-3.6103,-3.589,-3.538,-3.4173,-3.163,-2.9385,-2.6955,-2.5327,-2.3287,-2.2779,-2.2986,-2.2374,-2.2166,-2.1241,-2.1207,-2.0367,-2.0279,-2.0279,-2.0231,-2.0198,-2.0263,-2.032,-2.032,-2.032,-2.032,-2.032,-2.032,-2.032,-2.032,-2.032,-2.032,-2.0328,-2.0328,-2.0328,-2.032,-2.032,-2.032,-2.032,-2.032,-2.032,-2.032,-2.032,-2.032,-2.032,-2.0111,-1.9943,-1.9555,-1.9376,-1.9024,-1.862,-1.8095,-1.8251,-1.8364,-1.8107,-1.7944,-1.8012]}]]